<?xml version="1.0" encoding="UTF-8"?>
<gpx version="1.1" creator="https://www.youtrack.es" xsi:schemaLocation="http://www.topografix.com/GPX/1/1 http://www.topografix.com/GPX/1/1/gpx.xsd http://www.garmin.com/xmlschemas/GpxExtensions/v3 http://www.garmin.com/xmlschemas/GpxExtensionsv3.xsd http://www.garmin.com/xmlschemas/TrackPointExtension/v1 http://www.garmin.com/xmlschemas/TrackPointExtensionv1.xsd" xmlns:gpxtpx="http://www.garmin.com/xmlschemas/TrackPointExtension/v1" xmlns:gpxx="http://www.garmin.com/xmlschemas/GpxExtensions/v3" xmlns:xsi="http://www.w3.org/2001/XMLSchema-instance">
  <metadata>
    <link href="https://www.youtrack.es">
      <text>YouTrack.es</text>
    </link>
    <time>2026-05-08T14:28:37Z</time>
  </metadata>
  <trk>
    <src>https://www.youtrack.es</src>
    <link href="https://www.youtrack.es/ruta/10102-germany-33">
      <text>YouTrack.es</text>
    </link>
    <trkseg>
      <trkpt lat="41.95743170" lon="3.055100440">
        <ele>52.000000</ele>
        <time>2010-01-01T00:00:00Z</time>
      </trkpt>
      <trkpt lat="41.71368170" lon="2.830524440">
        <ele>22.000000</ele>
        <time>2010-01-01T00:00:20Z</time>
      </trkpt>
      <trkpt lat="41.71403410" lon="2.831039420">
        <ele>25.000000</ele>
        <time>2010-01-01T00:02:37Z</time>
      </trkpt>
      <trkpt lat="41.71717230" lon="2.829240000">
        <ele>31.000000</ele>
        <time>2010-01-01T00:02:46Z</time>
      </trkpt>
      <trkpt lat="41.71725780" lon="2.829525990">
        <ele>33.000000</ele>
        <time>2010-01-01T00:03:01Z</time>
      </trkpt>
      <trkpt lat="41.71725870" lon="2.830016410">
        <ele>30.000000</ele>
        <time>2010-01-01T00:03:50Z</time>
      </trkpt>
      <trkpt lat="41.71838340" lon="2.830644380">
        <ele>30.000000</ele>
        <time>2010-01-01T00:04:16Z</time>
      </trkpt>
      <trkpt lat="41.71879240" lon="2.831317870">
        <ele>31.000000</ele>
        <time>2010-01-01T00:05:08Z</time>
      </trkpt>
      <trkpt lat="41.71975100" lon="2.832527460">
        <ele>30.000000</ele>
        <time>2010-01-01T00:05:32Z</time>
      </trkpt>
      <trkpt lat="41.72001770" lon="2.833240010">
        <ele>29.000000</ele>
        <time>2010-01-01T00:05:49Z</time>
      </trkpt>
      <trkpt lat="41.72016650" lon="2.833777040">
        <ele>29.000000</ele>
        <time>2010-01-01T00:06:05Z</time>
      </trkpt>
      <trkpt lat="41.72023230" lon="2.834282550">
        <ele>29.000000</ele>
        <time>2010-01-01T00:06:15Z</time>
      </trkpt>
      <trkpt lat="41.72035080" lon="2.834578930">
        <ele>32.000000</ele>
        <time>2010-01-01T00:06:26Z</time>
      </trkpt>
      <trkpt lat="41.72056790" lon="2.834810110">
        <ele>37.000000</ele>
        <time>2010-01-01T00:06:44Z</time>
      </trkpt>
      <trkpt lat="41.72097610" lon="2.835051510">
        <ele>41.000000</ele>
        <time>2010-01-01T00:07:13Z</time>
      </trkpt>
      <trkpt lat="41.72168390" lon="2.835299530">
        <ele>40.000000</ele>
        <time>2010-01-01T00:07:29Z</time>
      </trkpt>
      <trkpt lat="41.72201670" lon="2.835605380">
        <ele>45.000000</ele>
        <time>2010-01-01T00:08:06Z</time>
      </trkpt>
      <trkpt lat="41.72258860" lon="2.836564190">
        <ele>43.000000</ele>
        <time>2010-01-01T00:08:35Z</time>
      </trkpt>
      <trkpt lat="41.72288970" lon="2.837442440">
        <ele>47.000000</ele>
        <time>2010-01-01T00:08:54Z</time>
      </trkpt>
      <trkpt lat="41.72317200" lon="2.837958430">
        <ele>46.000000</ele>
        <time>2010-01-01T00:09:05Z</time>
      </trkpt>
      <trkpt lat="41.72336210" lon="2.838220370">
        <ele>44.000000</ele>
        <time>2010-01-01T00:09:24Z</time>
      </trkpt>
      <trkpt lat="41.72378170" lon="2.838522870">
        <ele>41.000000</ele>
        <time>2010-01-01T00:09:47Z</time>
      </trkpt>
      <trkpt lat="41.72402730" lon="2.839229630">
        <ele>41.000000</ele>
        <time>2010-01-01T00:10:20Z</time>
      </trkpt>
      <trkpt lat="41.72453170" lon="2.840099260">
        <ele>42.000000</ele>
        <time>2010-01-01T00:10:41Z</time>
      </trkpt>
      <trkpt lat="41.72489340" lon="2.840592190">
        <ele>47.000000</ele>
        <time>2010-01-01T00:11:01Z</time>
      </trkpt>
      <trkpt lat="41.72533540" lon="2.840917080">
        <ele>49.000000</ele>
        <time>2010-01-01T00:11:25Z</time>
      </trkpt>
      <trkpt lat="41.72594720" lon="2.841006930">
        <ele>48.000000</ele>
        <time>2010-01-01T00:11:38Z</time>
      </trkpt>
      <trkpt lat="41.72621410" lon="2.841222850">
        <ele>48.000000</ele>
        <time>2010-01-01T00:12:02Z</time>
      </trkpt>
      <trkpt lat="41.72644310" lon="2.841988450">
        <ele>53.000000</ele>
        <time>2010-01-01T00:12:29Z</time>
      </trkpt>
      <trkpt lat="41.72652310" lon="2.842854470">
        <ele>53.000000</ele>
        <time>2010-01-01T00:12:49Z</time>
      </trkpt>
      <trkpt lat="41.72655180" lon="2.843542790">
        <ele>50.000000</ele>
        <time>2010-01-01T00:13:09Z</time>
      </trkpt>
      <trkpt lat="41.72639140" lon="2.844180320">
        <ele>45.000000</ele>
        <time>2010-01-01T00:13:14Z</time>
      </trkpt>
      <trkpt lat="41.72643640" lon="2.844310070">
        <ele>45.000000</ele>
        <time>2010-01-01T00:13:32Z</time>
      </trkpt>
      <trkpt lat="41.72687670" lon="2.844508890">
        <ele>51.000000</ele>
        <time>2010-01-01T00:14:40Z</time>
      </trkpt>
      <trkpt lat="41.72816370" lon="2.845977230">
        <ele>56.000000</ele>
        <time>2010-01-01T00:14:57Z</time>
      </trkpt>
      <trkpt lat="41.72856880" lon="2.846181830">
        <ele>60.000000</ele>
        <time>2010-01-01T00:15:19Z</time>
      </trkpt>
      <trkpt lat="41.72910560" lon="2.846233550">
        <ele>63.000000</ele>
        <time>2010-01-01T00:15:26Z</time>
      </trkpt>
      <trkpt lat="41.72926700" lon="2.846333550">
        <ele>62.000000</ele>
        <time>2010-01-01T00:15:50Z</time>
      </trkpt>
      <trkpt lat="41.72941720" lon="2.847127230">
        <ele>56.000000</ele>
        <time>2010-01-01T00:15:58Z</time>
      </trkpt>
      <trkpt lat="41.72953820" lon="2.847349010">
        <ele>56.000000</ele>
        <time>2010-01-01T00:16:06Z</time>
      </trkpt>
      <trkpt lat="41.72969960" lon="2.847459070">
        <ele>56.000000</ele>
        <time>2010-01-01T00:16:25Z</time>
      </trkpt>
      <trkpt lat="41.73017090" lon="2.847583460">
        <ele>57.000000</ele>
        <time>2010-01-01T00:16:39Z</time>
      </trkpt>
      <trkpt lat="41.73044750" lon="2.847872800">
        <ele>57.000000</ele>
        <time>2010-01-01T00:17:03Z</time>
      </trkpt>
      <trkpt lat="41.73096920" lon="2.848257700">
        <ele>60.000000</ele>
        <time>2010-01-01T00:17:10Z</time>
      </trkpt>
      <trkpt lat="41.73106970" lon="2.848472780">
        <ele>61.000000</ele>
        <time>2010-01-01T00:17:24Z</time>
      </trkpt>
      <trkpt lat="41.73107210" lon="2.848924230">
        <ele>60.000000</ele>
        <time>2010-01-01T00:17:36Z</time>
      </trkpt>
      <trkpt lat="41.73125080" lon="2.849250870">
        <ele>61.000000</ele>
        <time>2010-01-01T00:17:44Z</time>
      </trkpt>
      <trkpt lat="41.73143190" lon="2.849396130">
        <ele>61.000000</ele>
        <time>2010-01-01T00:18:03Z</time>
      </trkpt>
      <trkpt lat="41.73190610" lon="2.849444990">
        <ele>65.000000</ele>
        <time>2010-01-01T00:18:44Z</time>
      </trkpt>
      <trkpt lat="41.73289580" lon="2.849218100">
        <ele>74.000000</ele>
        <time>2010-01-01T00:19:13Z</time>
      </trkpt>
      <trkpt lat="41.73352740" lon="2.849722850">
        <ele>83.000000</ele>
        <time>2010-01-01T00:19:28Z</time>
      </trkpt>
      <trkpt lat="41.73381170" lon="2.850041280">
        <ele>90.000000</ele>
        <time>2010-01-01T00:19:45Z</time>
      </trkpt>
      <trkpt lat="41.73423030" lon="2.849898790">
        <ele>86.000000</ele>
        <time>2010-01-01T00:20:11Z</time>
      </trkpt>
      <trkpt lat="41.73479020" lon="2.849489000">
        <ele>82.000000</ele>
        <time>2010-01-01T00:20:19Z</time>
      </trkpt>
      <trkpt lat="41.73499840" lon="2.849404840">
        <ele>81.000000</ele>
        <time>2010-01-01T00:20:38Z</time>
      </trkpt>
      <trkpt lat="41.73544970" lon="2.849605840">
        <ele>86.000000</ele>
        <time>2010-01-01T00:20:54Z</time>
      </trkpt>
      <trkpt lat="41.73583520" lon="2.849600140">
        <ele>88.000000</ele>
        <time>2010-01-01T00:21:11Z</time>
      </trkpt>
      <trkpt lat="41.73623260" lon="2.849816310">
        <ele>88.000000</ele>
        <time>2010-01-01T00:21:25Z</time>
      </trkpt>
      <trkpt lat="41.73657850" lon="2.849897780">
        <ele>91.000000</ele>
        <time>2010-01-01T00:21:32Z</time>
      </trkpt>
      <trkpt lat="41.73674650" lon="2.849845650">
        <ele>94.000000</ele>
        <time>2010-01-01T00:21:36Z</time>
      </trkpt>
      <trkpt lat="41.73682610" lon="2.849748750">
        <ele>96.000000</ele>
        <time>2010-01-01T00:21:55Z</time>
      </trkpt>
      <trkpt lat="41.73676390" lon="2.849132260">
        <ele>97.000000</ele>
        <time>2010-01-01T00:22:01Z</time>
      </trkpt>
      <trkpt lat="41.73679580" lon="2.848926490">
        <ele>99.000000</ele>
        <time>2010-01-01T00:22:08Z</time>
      </trkpt>
      <trkpt lat="41.73692660" lon="2.848785670">
        <ele>100.00000</ele>
        <time>2010-01-01T00:22:17Z</time>
      </trkpt>
      <trkpt lat="41.73714760" lon="2.848685930">
        <ele>103.00000</ele>
        <time>2010-01-01T00:22:30Z</time>
      </trkpt>
      <trkpt lat="41.73734610" lon="2.848358280">
        <ele>104.00000</ele>
        <time>2010-01-01T00:22:49Z</time>
      </trkpt>
      <trkpt lat="41.73773230" lon="2.847968190">
        <ele>107.00000</ele>
        <time>2010-01-01T00:23:08Z</time>
      </trkpt>
      <trkpt lat="41.73818950" lon="2.848096600">
        <ele>108.00000</ele>
        <time>2010-01-01T00:23:25Z</time>
      </trkpt>
      <trkpt lat="41.73858110" lon="2.847843970">
        <ele>110.00000</ele>
        <time>2010-01-01T00:23:33Z</time>
      </trkpt>
      <trkpt lat="41.73878010" lon="2.847792080">
        <ele>110.00000</ele>
        <time>2010-01-01T00:23:48Z</time>
      </trkpt>
      <trkpt lat="41.73912700" lon="2.847964920">
        <ele>110.00000</ele>
        <time>2010-01-01T00:24:19Z</time>
      </trkpt>
      <trkpt lat="41.73988700" lon="2.848068270">
        <ele>121.00000</ele>
        <time>2010-01-01T00:24:49Z</time>
      </trkpt>
      <trkpt lat="41.74062310" lon="2.848289380">
        <ele>127.00000</ele>
        <time>2010-01-01T00:25:04Z</time>
      </trkpt>
      <trkpt lat="41.74089560" lon="2.848628680">
        <ele>133.00000</ele>
        <time>2010-01-01T00:25:26Z</time>
      </trkpt>
      <trkpt lat="41.74114130" lon="2.849285320">
        <ele>148.00000</ele>
        <time>2010-01-01T00:26:07Z</time>
      </trkpt>
      <trkpt lat="41.74177920" lon="2.850382090">
        <ele>166.00000</ele>
        <time>2010-01-01T00:26:23Z</time>
      </trkpt>
      <trkpt lat="41.74188700" lon="2.850867070">
        <ele>176.00000</ele>
        <time>2010-01-01T00:26:51Z</time>
      </trkpt>
      <trkpt lat="41.74234440" lon="2.851604760">
        <ele>180.00000</ele>
        <time>2010-01-01T00:26:54Z</time>
      </trkpt>
      <trkpt lat="41.74242120" lon="2.851572400">
        <ele>178.00000</ele>
        <time>2010-01-01T00:27:08Z</time>
      </trkpt>
      <trkpt lat="41.74256170" lon="2.851149790">
        <ele>170.00000</ele>
        <time>2010-01-01T00:27:12Z</time>
      </trkpt>
      <trkpt lat="41.74264400" lon="2.851077540">
        <ele>170.00000</ele>
        <time>2010-01-01T00:27:17Z</time>
      </trkpt>
      <trkpt lat="41.74274980" lon="2.851166300">
        <ele>173.00000</ele>
        <time>2010-01-01T00:27:38Z</time>
      </trkpt>
      <trkpt lat="41.74303170" lon="2.851768120">
        <ele>189.00000</ele>
        <time>2010-01-01T00:27:46Z</time>
      </trkpt>
      <trkpt lat="41.74319760" lon="2.851908600">
        <ele>195.00000</ele>
        <time>2010-01-01T00:27:50Z</time>
      </trkpt>
      <trkpt lat="41.74327850" lon="2.851821260">
        <ele>196.00000</ele>
        <time>2010-01-01T00:28:13Z</time>
      </trkpt>
      <trkpt lat="41.74342680" lon="2.851079880">
        <ele>190.00000</ele>
        <time>2010-01-01T00:28:16Z</time>
      </trkpt>
      <trkpt lat="41.74346130" lon="2.850996570">
        <ele>189.00000</ele>
        <time>2010-01-01T00:28:21Z</time>
      </trkpt>
      <trkpt lat="41.74358360" lon="2.850943430">
        <ele>190.00000</ele>
        <time>2010-01-01T00:28:41Z</time>
      </trkpt>
      <trkpt lat="41.74402110" lon="2.851236540">
        <ele>201.00000</ele>
        <time>2010-01-01T00:29:15Z</time>
      </trkpt>
      <trkpt lat="41.74470620" lon="2.851916820">
        <ele>214.00000</ele>
        <time>2010-01-01T00:29:19Z</time>
      </trkpt>
      <trkpt lat="41.74480140" lon="2.851900470">
        <ele>214.00000</ele>
        <time>2010-01-01T00:29:30Z</time>
      </trkpt>
      <trkpt lat="41.74496750" lon="2.851617250">
        <ele>208.00000</ele>
        <time>2010-01-01T00:29:41Z</time>
      </trkpt>
      <trkpt lat="41.74516470" lon="2.851911030">
        <ele>217.00000</ele>
        <time>2010-01-01T00:29:56Z</time>
      </trkpt>
      <trkpt lat="41.74551980" lon="2.851833330">
        <ele>221.00000</ele>
        <time>2010-01-01T00:30:11Z</time>
      </trkpt>
      <trkpt lat="41.74589800" lon="2.851959400">
        <ele>229.00000</ele>
        <time>2010-01-01T00:30:22Z</time>
      </trkpt>
      <trkpt lat="41.74615700" lon="2.851899890">
        <ele>229.00000</ele>
        <time>2010-01-01T00:30:32Z</time>
      </trkpt>
      <trkpt lat="41.74637950" lon="2.852039440">
        <ele>226.00000</ele>
        <time>2010-01-01T00:30:47Z</time>
      </trkpt>
      <trkpt lat="41.74661910" lon="2.852417220">
        <ele>220.00000</ele>
        <time>2010-01-01T00:31:06Z</time>
      </trkpt>
      <trkpt lat="41.74670670" lon="2.853051140">
        <ele>218.00000</ele>
        <time>2010-01-01T00:31:14Z</time>
      </trkpt>
      <trkpt lat="41.74666330" lon="2.853332860">
        <ele>216.00000</ele>
        <time>2010-01-01T00:31:43Z</time>
      </trkpt>
      <trkpt lat="41.74628770" lon="2.854160740">
        <ele>212.00000</ele>
        <time>2010-01-01T00:31:55Z</time>
      </trkpt>
      <trkpt lat="41.74648200" lon="2.854443960">
        <ele>212.00000</ele>
        <time>2010-01-01T00:32:06Z</time>
      </trkpt>
      <trkpt lat="41.74656510" lon="2.854800950">
        <ele>210.00000</ele>
        <time>2010-01-01T00:32:17Z</time>
      </trkpt>
      <trkpt lat="41.74674860" lon="2.855069170">
        <ele>213.00000</ele>
        <time>2010-01-01T00:32:36Z</time>
      </trkpt>
      <trkpt lat="41.74696500" lon="2.855634530">
        <ele>218.00000</ele>
        <time>2010-01-01T00:32:48Z</time>
      </trkpt>
      <trkpt lat="41.74715310" lon="2.855962430">
        <ele>223.00000</ele>
        <time>2010-01-01T00:33:03Z</time>
      </trkpt>
      <trkpt lat="41.74723610" lon="2.856460390">
        <ele>224.00000</ele>
        <time>2010-01-01T00:33:15Z</time>
      </trkpt>
      <trkpt lat="41.74738970" lon="2.856792570">
        <ele>228.00000</ele>
        <time>2010-01-01T00:33:28Z</time>
      </trkpt>
      <trkpt lat="41.74739040" lon="2.857212420">
        <ele>225.00000</ele>
        <time>2010-01-01T00:33:47Z</time>
      </trkpt>
      <trkpt lat="41.74748210" lon="2.857831930">
        <ele>223.00000</ele>
        <time>2010-01-01T00:33:54Z</time>
      </trkpt>
      <trkpt lat="41.74762300" lon="2.857974670">
        <ele>224.00000</ele>
        <time>2010-01-01T00:34:01Z</time>
      </trkpt>
      <trkpt lat="41.74780370" lon="2.858017580">
        <ele>226.00000</ele>
        <time>2010-01-01T00:34:18Z</time>
      </trkpt>
      <trkpt lat="41.74819230" lon="2.857821620">
        <ele>233.00000</ele>
        <time>2010-01-01T00:34:30Z</time>
      </trkpt>
      <trkpt lat="41.74838380" lon="2.858136110">
        <ele>235.00000</ele>
        <time>2010-01-01T00:34:45Z</time>
      </trkpt>
      <trkpt lat="41.74868410" lon="2.858442970">
        <ele>244.00000</ele>
        <time>2010-01-01T00:35:08Z</time>
      </trkpt>
      <trkpt lat="41.74920660" lon="2.858792830">
        <ele>251.00000</ele>
        <time>2010-01-01T00:35:39Z</time>
      </trkpt>
      <trkpt lat="41.74997260" lon="2.858841270">
        <ele>248.00000</ele>
        <time>2010-01-01T00:35:52Z</time>
      </trkpt>
      <trkpt lat="41.75020590" lon="2.858536420">
        <ele>255.00000</ele>
        <time>2010-01-01T00:35:59Z</time>
      </trkpt>
      <trkpt lat="41.75038210" lon="2.858511870">
        <ele>254.00000</ele>
        <time>2010-01-01T00:36:14Z</time>
      </trkpt>
      <trkpt lat="41.75074530" lon="2.858631310">
        <ele>250.00000</ele>
        <time>2010-01-01T00:36:21Z</time>
      </trkpt>
      <trkpt lat="41.75087760" lon="2.858462080">
        <ele>249.00000</ele>
        <time>2010-01-01T00:36:31Z</time>
      </trkpt>
      <trkpt lat="41.75082290" lon="2.858130240">
        <ele>251.00000</ele>
        <time>2010-01-01T00:36:53Z</time>
      </trkpt>
      <trkpt lat="41.75053820" lon="2.857515840">
        <ele>265.00000</ele>
        <time>2010-01-01T00:36:57Z</time>
      </trkpt>
      <trkpt lat="41.75060730" lon="2.857414510">
        <ele>263.00000</ele>
        <time>2010-01-01T00:37:11Z</time>
      </trkpt>
      <trkpt lat="41.75093930" lon="2.857346030">
        <ele>255.00000</ele>
        <time>2010-01-01T00:37:30Z</time>
      </trkpt>
      <trkpt lat="41.75077870" lon="2.856726690">
        <ele>262.00000</ele>
        <time>2010-01-01T00:37:35Z</time>
      </trkpt>
      <trkpt lat="41.75087660" lon="2.856626440">
        <ele>260.00000</ele>
        <time>2010-01-01T00:37:43Z</time>
      </trkpt>
      <trkpt lat="41.75106870" lon="2.856558130">
        <ele>258.00000</ele>
        <time>2010-01-01T00:37:46Z</time>
      </trkpt>
      <trkpt lat="41.75110700" lon="2.856471630">
        <ele>257.00000</ele>
        <time>2010-01-01T00:37:55Z</time>
      </trkpt>
      <trkpt lat="41.75095260" lon="2.856265850">
        <ele>259.00000</ele>
        <time>2010-01-01T00:38:14Z</time>
      </trkpt>
      <trkpt lat="41.75047780" lon="2.856199300">
        <ele>270.00000</ele>
        <time>2010-01-01T00:38:20Z</time>
      </trkpt>
      <trkpt lat="41.75033290" lon="2.856113380">
        <ele>273.00000</ele>
        <time>2010-01-01T00:38:35Z</time>
      </trkpt>
      <trkpt lat="41.75026380" lon="2.855636370">
        <ele>271.00000</ele>
        <time>2010-01-01T00:38:57Z</time>
      </trkpt>
      <trkpt lat="41.74990260" lon="2.855088190">
        <ele>271.00000</ele>
        <time>2010-01-01T00:39:04Z</time>
      </trkpt>
      <trkpt lat="41.74987480" lon="2.854834470">
        <ele>270.00000</ele>
        <time>2010-01-01T00:39:36Z</time>
      </trkpt>
      <trkpt lat="41.75031950" lon="2.853954460">
        <ele>281.00000</ele>
        <time>2010-01-01T00:39:39Z</time>
      </trkpt>
      <trkpt lat="41.75038330" lon="2.853892930">
        <ele>282.00000</ele>
        <time>2010-01-01T00:40:00Z</time>
      </trkpt>
      <trkpt lat="41.75091510" lon="2.853839630">
        <ele>281.00000</ele>
        <time>2010-01-01T00:40:24Z</time>
      </trkpt>
      <trkpt lat="41.75138700" lon="2.853350210">
        <ele>283.00000</ele>
        <time>2010-01-01T00:40:32Z</time>
      </trkpt>
      <trkpt lat="41.75137800" lon="2.853104030">
        <ele>285.00000</ele>
        <time>2010-01-01T00:40:51Z</time>
      </trkpt>
      <trkpt lat="41.75109930" lon="2.852597510">
        <ele>288.00000</ele>
        <time>2010-01-01T00:40:59Z</time>
      </trkpt>
      <trkpt lat="41.75120900" lon="2.852371200">
        <ele>287.00000</ele>
        <time>2010-01-01T00:41:11Z</time>
      </trkpt>
      <trkpt lat="41.75146530" lon="2.852157710">
        <ele>285.00000</ele>
        <time>2010-01-01T00:41:26Z</time>
      </trkpt>
      <trkpt lat="41.75183840" lon="2.852135840">
        <ele>284.00000</ele>
        <time>2010-01-01T00:41:35Z</time>
      </trkpt>
      <trkpt lat="41.75200320" lon="2.851894100">
        <ele>283.00000</ele>
        <time>2010-01-01T00:41:55Z</time>
      </trkpt>
      <trkpt lat="41.75247310" lon="2.851716660">
        <ele>282.00000</ele>
        <time>2010-01-01T00:42:11Z</time>
      </trkpt>
      <trkpt lat="41.75286680" lon="2.851871810">
        <ele>285.00000</ele>
        <time>2010-01-01T00:42:24Z</time>
      </trkpt>
      <trkpt lat="41.75317420" lon="2.851899470">
        <ele>287.00000</ele>
        <time>2010-01-01T00:42:56Z</time>
      </trkpt>
      <trkpt lat="41.75395510" lon="2.851649350">
        <ele>289.00000</ele>
        <time>2010-01-01T00:43:07Z</time>
      </trkpt>
      <trkpt lat="41.75424310" lon="2.851688330">
        <ele>291.00000</ele>
        <time>2010-01-01T00:43:17Z</time>
      </trkpt>
      <trkpt lat="41.75449070" lon="2.851648510">
        <ele>295.00000</ele>
        <time>2010-01-01T00:43:23Z</time>
      </trkpt>
      <trkpt lat="41.75462660" lon="2.851677930">
        <ele>299.00000</ele>
        <time>2010-01-01T00:43:32Z</time>
      </trkpt>
      <trkpt lat="41.75483240" lon="2.851833580">
        <ele>303.00000</ele>
        <time>2010-01-01T00:43:48Z</time>
      </trkpt>
      <trkpt lat="41.75492910" lon="2.851315920">
        <ele>309.00000</ele>
        <time>2010-01-01T00:44:07Z</time>
      </trkpt>
      <trkpt lat="41.75524940" lon="2.850849880">
        <ele>318.00000</ele>
        <time>2010-01-01T00:44:19Z</time>
      </trkpt>
      <trkpt lat="41.75550670" lon="2.850661290">
        <ele>325.00000</ele>
        <time>2010-01-01T00:44:24Z</time>
      </trkpt>
      <trkpt lat="41.75559250" lon="2.850528610">
        <ele>328.00000</ele>
        <time>2010-01-01T00:44:37Z</time>
      </trkpt>
      <trkpt lat="41.75541280" lon="2.850182770">
        <ele>325.00000</ele>
        <time>2010-01-01T00:44:51Z</time>
      </trkpt>
      <trkpt lat="41.75551020" lon="2.849722350">
        <ele>332.00000</ele>
        <time>2010-01-01T00:44:59Z</time>
      </trkpt>
      <trkpt lat="41.75539210" lon="2.849499810">
        <ele>334.00000</ele>
        <time>2010-01-01T00:45:05Z</time>
      </trkpt>
      <trkpt lat="41.75523880" lon="2.849478940">
        <ele>333.00000</ele>
        <time>2010-01-01T00:45:27Z</time>
      </trkpt>
      <trkpt lat="41.75475620" lon="2.849816140">
        <ele>327.00000</ele>
        <time>2010-01-01T00:45:32Z</time>
      </trkpt>
      <trkpt lat="41.75464610" lon="2.849767860">
        <ele>327.00000</ele>
        <time>2010-01-01T00:45:59Z</time>
      </trkpt>
      <trkpt lat="41.75497550" lon="2.848986170">
        <ele>343.00000</ele>
        <time>2010-01-01T00:46:12Z</time>
      </trkpt>
      <trkpt lat="41.75530460" lon="2.848872510">
        <ele>344.00000</ele>
        <time>2010-01-01T00:46:18Z</time>
      </trkpt>
      <trkpt lat="41.75520970" lon="2.848727420">
        <ele>346.00000</ele>
        <time>2010-01-01T00:46:32Z</time>
      </trkpt>
      <trkpt lat="41.75551260" lon="2.848988770">
        <ele>345.00000</ele>
        <time>2010-01-01T00:46:51Z</time>
      </trkpt>
      <trkpt lat="41.75594110" lon="2.849198310">
        <ele>352.00000</ele>
        <time>2010-01-01T00:47:15Z</time>
      </trkpt>
      <trkpt lat="41.75639930" lon="2.849732580">
        <ele>359.00000</ele>
        <time>2010-01-01T00:47:21Z</time>
      </trkpt>
      <trkpt lat="41.75654180" lon="2.849818740">
        <ele>361.00000</ele>
        <time>2010-01-01T00:47:24Z</time>
      </trkpt>
      <trkpt lat="41.75661130" lon="2.849809610">
        <ele>363.00000</ele>
        <time>2010-01-01T00:47:37Z</time>
      </trkpt>
      <trkpt lat="41.75684710" lon="2.849523360">
        <ele>366.00000</ele>
        <time>2010-01-01T00:48:05Z</time>
      </trkpt>
      <trkpt lat="41.75722190" lon="2.848708980">
        <ele>365.00000</ele>
        <time>2010-01-01T00:48:19Z</time>
      </trkpt>
      <trkpt lat="41.75752570" lon="2.848511750">
        <ele>364.00000</ele>
        <time>2010-01-01T00:48:27Z</time>
      </trkpt>
      <trkpt lat="41.75773760" lon="2.848542350">
        <ele>362.00000</ele>
        <time>2010-01-01T00:48:59Z</time>
      </trkpt>
      <trkpt lat="41.75847310" lon="2.848891280">
        <ele>359.00000</ele>
        <time>2010-01-01T00:49:26Z</time>
      </trkpt>
      <trkpt lat="41.75909270" lon="2.849288500">
        <ele>358.00000</ele>
        <time>2010-01-01T00:49:43Z</time>
      </trkpt>
      <trkpt lat="41.75951780" lon="2.849271490">
        <ele>360.00000</ele>
        <time>2010-01-01T00:49:57Z</time>
      </trkpt>
      <trkpt lat="41.75982550" lon="2.849092870">
        <ele>362.00000</ele>
        <time>2010-01-01T00:50:12Z</time>
      </trkpt>
      <trkpt lat="41.76019580" lon="2.848987760">
        <ele>362.00000</ele>
        <time>2010-01-01T00:50:25Z</time>
      </trkpt>
      <trkpt lat="41.76037740" lon="2.848634880">
        <ele>363.00000</ele>
        <time>2010-01-01T00:50:40Z</time>
      </trkpt>
      <trkpt lat="41.76073490" lon="2.848424580">
        <ele>365.00000</ele>
        <time>2010-01-01T00:50:55Z</time>
      </trkpt>
      <trkpt lat="41.76082250" lon="2.847933570">
        <ele>363.00000</ele>
        <time>2010-01-01T00:51:05Z</time>
      </trkpt>
      <trkpt lat="41.76093920" lon="2.847660820">
        <ele>365.00000</ele>
        <time>2010-01-01T00:51:40Z</time>
      </trkpt>
      <trkpt lat="41.76041540" lon="2.846716350">
        <ele>361.00000</ele>
        <time>2010-01-01T00:51:45Z</time>
      </trkpt>
      <trkpt lat="41.76039550" lon="2.846535300">
        <ele>361.00000</ele>
        <time>2010-01-01T00:51:57Z</time>
      </trkpt>
      <trkpt lat="41.76050630" lon="2.846172360">
        <ele>364.00000</ele>
        <time>2010-01-01T00:52:20Z</time>
      </trkpt>
      <trkpt lat="41.76082140" lon="2.846808720">
        <ele>370.00000</ele>
        <time>2010-01-01T00:52:52Z</time>
      </trkpt>
      <trkpt lat="41.76158220" lon="2.847136280">
        <ele>379.00000</ele>
        <time>2010-01-01T00:53:09Z</time>
      </trkpt>
      <trkpt lat="41.76187920" lon="2.847540120">
        <ele>382.00000</ele>
        <time>2010-01-01T00:53:28Z</time>
      </trkpt>
      <trkpt lat="41.76207710" lon="2.848118390">
        <ele>390.00000</ele>
        <time>2010-01-01T00:53:48Z</time>
      </trkpt>
      <trkpt lat="41.76217890" lon="2.848802100">
        <ele>395.00000</ele>
        <time>2010-01-01T00:54:15Z</time>
      </trkpt>
      <trkpt lat="41.76259850" lon="2.849481710">
        <ele>397.00000</ele>
        <time>2010-01-01T00:54:42Z</time>
      </trkpt>
      <trkpt lat="41.76297280" lon="2.850247310">
        <ele>398.00000</ele>
        <time>2010-01-01T00:55:30Z</time>
      </trkpt>
      <trkpt lat="41.76327230" lon="2.851783210">
        <ele>402.00000</ele>
        <time>2010-01-01T00:55:45Z</time>
      </trkpt>
      <trkpt lat="41.76345720" lon="2.852245220">
        <ele>403.00000</ele>
        <time>2010-01-01T00:55:54Z</time>
      </trkpt>
      <trkpt lat="41.76366560" lon="2.852376230">
        <ele>404.00000</ele>
        <time>2010-01-01T00:56:17Z</time>
      </trkpt>
      <trkpt lat="41.76422570" lon="2.852348230">
        <ele>405.00000</ele>
        <time>2010-01-01T00:56:29Z</time>
      </trkpt>
      <trkpt lat="41.76451400" lon="2.852400030">
        <ele>404.00000</ele>
        <time>2010-01-01T00:56:39Z</time>
      </trkpt>
      <trkpt lat="41.76476440" lon="2.852532050">
        <ele>402.00000</ele>
        <time>2010-01-01T00:56:53Z</time>
      </trkpt>
      <trkpt lat="41.76499010" lon="2.852890290">
        <ele>396.00000</ele>
        <time>2010-01-01T00:57:27Z</time>
      </trkpt>
      <trkpt lat="41.76510690" lon="2.854020590">
        <ele>395.00000</ele>
        <time>2010-01-01T00:57:36Z</time>
      </trkpt>
      <trkpt lat="41.76502890" lon="2.854283950">
        <ele>393.00000</ele>
        <time>2010-01-01T00:57:48Z</time>
      </trkpt>
      <trkpt lat="41.76480970" lon="2.854561310">
        <ele>388.00000</ele>
        <time>2010-01-01T00:57:55Z</time>
      </trkpt>
      <trkpt lat="41.76477710" lon="2.854806480">
        <ele>388.00000</ele>
        <time>2010-01-01T00:58:38Z</time>
      </trkpt>
      <trkpt lat="41.76507450" lon="2.856162080">
        <ele>391.00000</ele>
        <time>2010-01-01T00:58:47Z</time>
      </trkpt>
      <trkpt lat="41.76501980" lon="2.856482520">
        <ele>391.00000</ele>
        <time>2010-01-01T00:59:05Z</time>
      </trkpt>
      <trkpt lat="41.76470530" lon="2.856919050">
        <ele>389.00000</ele>
        <time>2010-01-01T00:59:12Z</time>
      </trkpt>
      <trkpt lat="41.76466340" lon="2.857142260">
        <ele>388.00000</ele>
        <time>2010-01-01T00:59:37Z</time>
      </trkpt>
      <trkpt lat="41.76478390" lon="2.857943820">
        <ele>382.00000</ele>
        <time>2010-01-01T01:00:16Z</time>
      </trkpt>
      <trkpt lat="41.76484560" lon="2.859260030">
        <ele>376.00000</ele>
        <time>2010-01-01T01:00:27Z</time>
      </trkpt>
      <trkpt lat="41.76494050" lon="2.859593800">
        <ele>374.00000</ele>
        <time>2010-01-01T01:00:54Z</time>
      </trkpt>
      <trkpt lat="41.76536700" lon="2.860283460">
        <ele>375.00000</ele>
        <time>2010-01-01T01:01:13Z</time>
      </trkpt>
      <trkpt lat="41.76553560" lon="2.860900120">
        <ele>370.00000</ele>
        <time>2010-01-01T01:01:17Z</time>
      </trkpt>
      <trkpt lat="41.76552590" lon="2.861040850">
        <ele>367.00000</ele>
        <time>2010-01-01T01:01:21Z</time>
      </trkpt>
      <trkpt lat="41.76543780" lon="2.861087370">
        <ele>366.00000</ele>
        <time>2010-01-01T01:01:30Z</time>
      </trkpt>
      <trkpt lat="41.76564640" lon="2.861217130">
        <ele>367.00000</ele>
        <time>2010-01-01T01:01:36Z</time>
      </trkpt>
      <trkpt lat="41.76573930" lon="2.861358860">
        <ele>367.00000</ele>
        <time>2010-01-01T01:01:53Z</time>
      </trkpt>
      <trkpt lat="41.76586160" lon="2.861918270">
        <ele>369.00000</ele>
        <time>2010-01-01T01:02:12Z</time>
      </trkpt>
      <trkpt lat="41.76609490" lon="2.862473400">
        <ele>369.00000</ele>
        <time>2010-01-01T01:02:30Z</time>
      </trkpt>
      <trkpt lat="41.76616790" lon="2.863054440">
        <ele>365.00000</ele>
        <time>2010-01-01T01:02:52Z</time>
      </trkpt>
      <trkpt lat="41.76641010" lon="2.863728180">
        <ele>356.00000</ele>
        <time>2010-01-01T01:03:05Z</time>
      </trkpt>
      <trkpt lat="41.76642160" lon="2.864136210">
        <ele>359.00000</ele>
        <time>2010-01-01T01:03:30Z</time>
      </trkpt>
      <trkpt lat="41.76680460" lon="2.864796450">
        <ele>354.00000</ele>
        <time>2010-01-01T01:03:46Z</time>
      </trkpt>
      <trkpt lat="41.76691280" lon="2.865334820">
        <ele>353.00000</ele>
        <time>2010-01-01T01:03:59Z</time>
      </trkpt>
      <trkpt lat="41.76710040" lon="2.865672530">
        <ele>349.00000</ele>
        <time>2010-01-01T01:04:05Z</time>
      </trkpt>
      <trkpt lat="41.76710010" lon="2.865872100">
        <ele>349.00000</ele>
        <time>2010-01-01T01:04:13Z</time>
      </trkpt>
      <trkpt lat="41.76700490" lon="2.866106540">
        <ele>353.00000</ele>
        <time>2010-01-01T01:04:20Z</time>
      </trkpt>
      <trkpt lat="41.76703310" lon="2.866337380">
        <ele>353.00000</ele>
        <time>2010-01-01T01:04:27Z</time>
      </trkpt>
      <trkpt lat="41.76717630" lon="2.866502920">
        <ele>351.00000</ele>
        <time>2010-01-01T01:04:46Z</time>
      </trkpt>
      <trkpt lat="41.76765340" lon="2.866564530">
        <ele>342.00000</ele>
        <time>2010-01-01T01:05:05Z</time>
      </trkpt>
      <trkpt lat="41.76809370" lon="2.866808940">
        <ele>341.00000</ele>
        <time>2010-01-01T01:05:20Z</time>
      </trkpt>
      <trkpt lat="41.76845940" lon="2.866808610">
        <ele>335.00000</ele>
        <time>2010-01-01T01:05:23Z</time>
      </trkpt>
      <trkpt lat="41.76852720" lon="2.866862500">
        <ele>334.00000</ele>
        <time>2010-01-01T01:05:41Z</time>
      </trkpt>
      <trkpt lat="41.76880370" lon="2.867322170">
        <ele>333.00000</ele>
        <time>2010-01-01T01:05:51Z</time>
      </trkpt>
      <trkpt lat="41.76902270" lon="2.867488970">
        <ele>330.00000</ele>
        <time>2010-01-01T01:05:56Z</time>
      </trkpt>
      <trkpt lat="41.76903510" lon="2.867646970">
        <ele>330.00000</ele>
        <time>2010-01-01T01:06:06Z</time>
      </trkpt>
      <trkpt lat="41.76894540" lon="2.867969250">
        <ele>330.00000</ele>
        <time>2010-01-01T01:06:14Z</time>
      </trkpt>
      <trkpt lat="41.76906080" lon="2.868194980">
        <ele>327.00000</ele>
        <time>2010-01-01T01:06:35Z</time>
      </trkpt>
      <trkpt lat="41.76957080" lon="2.868355660">
        <ele>322.00000</ele>
        <time>2010-01-01T01:07:21Z</time>
      </trkpt>
      <trkpt lat="41.77053610" lon="2.869169710">
        <ele>310.00000</ele>
        <time>2010-01-01T01:07:29Z</time>
      </trkpt>
      <trkpt lat="41.77074340" lon="2.869190240">
        <ele>311.00000</ele>
        <time>2010-01-01T01:07:39Z</time>
      </trkpt>
      <trkpt lat="41.77098910" lon="2.869108690">
        <ele>312.00000</ele>
        <time>2010-01-01T01:07:57Z</time>
      </trkpt>
      <trkpt lat="41.77134790" lon="2.869466760">
        <ele>302.00000</ele>
        <time>2010-01-01T01:08:16Z</time>
      </trkpt>
      <trkpt lat="41.77181650" lon="2.869557030">
        <ele>299.00000</ele>
        <time>2010-01-01T01:08:41Z</time>
      </trkpt>
      <trkpt lat="41.77195380" lon="2.870376110">
        <ele>284.00000</ele>
        <time>2010-01-01T01:08:46Z</time>
      </trkpt>
      <trkpt lat="41.77205230" lon="2.870451720">
        <ele>283.00000</ele>
        <time>2010-01-01T01:08:58Z</time>
      </trkpt>
      <trkpt lat="41.77234600" lon="2.870351560">
        <ele>285.00000</ele>
        <time>2010-01-01T01:09:04Z</time>
      </trkpt>
      <trkpt lat="41.77249550" lon="2.870423560">
        <ele>282.00000</ele>
        <time>2010-01-01T01:09:23Z</time>
      </trkpt>
      <trkpt lat="41.77267480" lon="2.871005260">
        <ele>269.00000</ele>
        <time>2010-01-01T01:09:37Z</time>
      </trkpt>
      <trkpt lat="41.77274250" lon="2.871451180">
        <ele>260.00000</ele>
        <time>2010-01-01T01:09:42Z</time>
      </trkpt>
      <trkpt lat="41.77282710" lon="2.871589900">
        <ele>258.00000</ele>
        <time>2010-01-01T01:09:48Z</time>
      </trkpt>
      <trkpt lat="41.77297110" lon="2.871545050">
        <ele>258.00000</ele>
        <time>2010-01-01T01:10:13Z</time>
      </trkpt>
      <trkpt lat="41.77339240" lon="2.870922200">
        <ele>260.00000</ele>
        <time>2010-01-01T01:10:15Z</time>
      </trkpt>
      <trkpt lat="41.77343080" lon="2.870889670">
        <ele>260.00000</ele>
        <time>2010-01-01T01:10:17Z</time>
      </trkpt>
      <trkpt lat="41.77347720" lon="2.870939970">
        <ele>258.00000</ele>
        <time>2010-01-01T01:10:24Z</time>
      </trkpt>
      <trkpt lat="41.77345350" lon="2.871168960">
        <ele>257.00000</ele>
        <time>2010-01-01T01:11:08Z</time>
      </trkpt>
      <trkpt lat="41.77291870" lon="2.872450130">
        <ele>261.00000</ele>
        <time>2010-01-01T01:12:03Z</time>
      </trkpt>
      <trkpt lat="41.77247730" lon="2.874207230">
        <ele>279.00000</ele>
        <time>2010-01-01T01:12:25Z</time>
      </trkpt>
      <trkpt lat="41.77236980" lon="2.874937210">
        <ele>287.00000</ele>
        <time>2010-01-01T01:12:55Z</time>
      </trkpt>
      <trkpt lat="41.77232010" lon="2.875924180">
        <ele>293.00000</ele>
        <time>2010-01-01T01:13:20Z</time>
      </trkpt>
      <trkpt lat="41.77257760" lon="2.876670420">
        <ele>298.00000</ele>
        <time>2010-01-01T01:14:02Z</time>
      </trkpt>
      <trkpt lat="41.77290500" lon="2.878041360">
        <ele>316.00000</ele>
        <time>2010-01-01T01:14:50Z</time>
      </trkpt>
      <trkpt lat="41.77288620" lon="2.879624540">
        <ele>331.00000</ele>
        <time>2010-01-01T01:15:50Z</time>
      </trkpt>
      <trkpt lat="41.77307410" lon="2.881620270">
        <ele>359.00000</ele>
        <time>2010-01-01T01:16:16Z</time>
      </trkpt>
      <trkpt lat="41.77347120" lon="2.882303480">
        <ele>366.00000</ele>
        <time>2010-01-01T01:16:32Z</time>
      </trkpt>
      <trkpt lat="41.77377260" lon="2.882676310">
        <ele>371.00000</ele>
        <time>2010-01-01T01:16:57Z</time>
      </trkpt>
      <trkpt lat="41.77437410" lon="2.882938240">
        <ele>379.00000</ele>
        <time>2010-01-01T01:17:26Z</time>
      </trkpt>
      <trkpt lat="41.77500830" lon="2.883377450">
        <ele>383.00000</ele>
        <time>2010-01-01T01:17:49Z</time>
      </trkpt>
      <trkpt lat="41.77556530" lon="2.883590690">
        <ele>388.00000</ele>
        <time>2010-01-01T01:18:18Z</time>
      </trkpt>
      <trkpt lat="41.77616730" lon="2.884095190">
        <ele>406.00000</ele>
        <time>2010-01-01T01:18:48Z</time>
      </trkpt>
      <trkpt lat="41.77684500" lon="2.884556200">
        <ele>424.00000</ele>
        <time>2010-01-01T01:18:55Z</time>
      </trkpt>
      <trkpt lat="41.77701760" lon="2.884553520">
        <ele>426.00000</ele>
        <time>2010-01-01T01:19:06Z</time>
      </trkpt>
      <trkpt lat="41.77710780" lon="2.884205420">
        <ele>428.00000</ele>
        <time>2010-01-01T01:19:37Z</time>
      </trkpt>
      <trkpt lat="41.77709350" lon="2.883170250">
        <ele>425.00000</ele>
        <time>2010-01-01T01:19:53Z</time>
      </trkpt>
      <trkpt lat="41.77725520" lon="2.882668930">
        <ele>427.00000</ele>
        <time>2010-01-01T01:20:05Z</time>
      </trkpt>
      <trkpt lat="41.77728740" lon="2.882274310">
        <ele>425.00000</ele>
        <time>2010-01-01T01:20:29Z</time>
      </trkpt>
      <trkpt lat="41.77723810" lon="2.881483390">
        <ele>421.00000</ele>
        <time>2010-01-01T01:20:48Z</time>
      </trkpt>
      <trkpt lat="41.77698130" lon="2.880947290">
        <ele>418.00000</ele>
        <time>2010-01-01T01:20:58Z</time>
      </trkpt>
      <trkpt lat="41.77699770" lon="2.880612090">
        <ele>414.00000</ele>
        <time>2010-01-01T01:21:05Z</time>
      </trkpt>
      <trkpt lat="41.77716240" lon="2.880487200">
        <ele>412.00000</ele>
        <time>2010-01-01T01:21:30Z</time>
      </trkpt>
      <trkpt lat="41.77777230" lon="2.880396600">
        <ele>405.00000</ele>
        <time>2010-01-01T01:22:07Z</time>
      </trkpt>
      <trkpt lat="41.77864220" lon="2.879993930">
        <ele>385.00000</ele>
        <time>2010-01-01T01:23:38Z</time>
      </trkpt>
      <trkpt lat="41.78086670" lon="2.879285240">
        <ele>366.00000</ele>
        <time>2010-01-01T01:24:13Z</time>
      </trkpt>
      <trkpt lat="41.78165100" lon="2.878803030">
        <ele>360.00000</ele>
        <time>2010-01-01T01:24:46Z</time>
      </trkpt>
      <trkpt lat="41.78236950" lon="2.878245880">
        <ele>352.00000</ele>
        <time>2010-01-01T01:25:06Z</time>
      </trkpt>
      <trkpt lat="41.78285180" lon="2.878116380">
        <ele>348.00000</ele>
        <time>2010-01-01T01:25:12Z</time>
      </trkpt>
      <trkpt lat="41.78297300" lon="2.877974310">
        <ele>347.00000</ele>
        <time>2010-01-01T01:25:22Z</time>
      </trkpt>
      <trkpt lat="41.78308490" lon="2.877689320">
        <ele>345.00000</ele>
        <time>2010-01-01T01:25:36Z</time>
      </trkpt>
      <trkpt lat="41.78342180" lon="2.877574410">
        <ele>341.00000</ele>
        <time>2010-01-01T01:25:55Z</time>
      </trkpt>
      <trkpt lat="41.78390640" lon="2.877544990">
        <ele>337.00000</ele>
        <time>2010-01-01T01:26:10Z</time>
      </trkpt>
      <trkpt lat="41.78426590" lon="2.877711790">
        <ele>336.00000</ele>
        <time>2010-01-01T01:26:36Z</time>
      </trkpt>
      <trkpt lat="41.78470480" lon="2.878323840">
        <ele>332.00000</ele>
        <time>2010-01-01T01:26:52Z</time>
      </trkpt>
      <trkpt lat="41.78505930" lon="2.878625830">
        <ele>328.00000</ele>
        <time>2010-01-01T01:27:25Z</time>
      </trkpt>
      <trkpt lat="41.78538740" lon="2.879625540">
        <ele>316.00000</ele>
        <time>2010-01-01T01:28:00Z</time>
      </trkpt>
      <trkpt lat="41.78583390" lon="2.880638080">
        <ele>304.00000</ele>
        <time>2010-01-01T01:28:07Z</time>
      </trkpt>
      <trkpt lat="41.78599830" lon="2.880709160">
        <ele>304.00000</ele>
        <time>2010-01-01T01:28:32Z</time>
      </trkpt>
      <trkpt lat="41.78662700" lon="2.880769090">
        <ele>299.00000</ele>
        <time>2010-01-01T01:28:57Z</time>
      </trkpt>
      <trkpt lat="41.78718290" lon="2.881116850">
        <ele>293.00000</ele>
        <time>2010-01-01T01:29:05Z</time>
      </trkpt>
      <trkpt lat="41.78738630" lon="2.881096740">
        <ele>292.00000</ele>
        <time>2010-01-01T01:29:17Z</time>
      </trkpt>
      <trkpt lat="41.78764550" lon="2.880927250">
        <ele>289.00000</ele>
        <time>2010-01-01T01:29:21Z</time>
      </trkpt>
      <trkpt lat="41.78776090" lon="2.880922900">
        <ele>288.00000</ele>
        <time>2010-01-01T01:29:48Z</time>
      </trkpt>
      <trkpt lat="41.78816060" lon="2.881659330">
        <ele>282.00000</ele>
        <time>2010-01-01T01:30:10Z</time>
      </trkpt>
      <trkpt lat="41.78863300" lon="2.881984800">
        <ele>277.00000</ele>
        <time>2010-01-01T01:31:10Z</time>
      </trkpt>
      <trkpt lat="41.79011710" lon="2.882332730">
        <ele>274.00000</ele>
        <time>2010-01-01T01:31:27Z</time>
      </trkpt>
      <trkpt lat="41.79052300" lon="2.882512020">
        <ele>275.00000</ele>
        <time>2010-01-01T01:32:05Z</time>
      </trkpt>
      <trkpt lat="41.79128230" lon="2.883259020">
        <ele>274.00000</ele>
        <time>2010-01-01T01:32:35Z</time>
      </trkpt>
      <trkpt lat="41.79177520" lon="2.884010120">
        <ele>280.00000</ele>
        <time>2010-01-01T01:32:45Z</time>
      </trkpt>
      <trkpt lat="41.79199360" lon="2.884167280">
        <ele>281.00000</ele>
        <time>2010-01-01T01:32:59Z</time>
      </trkpt>
      <trkpt lat="41.79234980" lon="2.884234500">
        <ele>284.00000</ele>
        <time>2010-01-01T01:33:13Z</time>
      </trkpt>
      <trkpt lat="41.79263650" lon="2.884483190">
        <ele>285.00000</ele>
        <time>2010-01-01T01:33:23Z</time>
      </trkpt>
      <trkpt lat="41.79281300" lon="2.884718310">
        <ele>287.00000</ele>
        <time>2010-01-01T01:33:44Z</time>
      </trkpt>
      <trkpt lat="41.79310870" lon="2.885313920">
        <ele>288.00000</ele>
        <time>2010-01-01T01:34:08Z</time>
      </trkpt>
      <trkpt lat="41.79367760" lon="2.885595140">
        <ele>291.00000</ele>
        <time>2010-01-01T01:34:19Z</time>
      </trkpt>
      <trkpt lat="41.79395150" lon="2.885637550">
        <ele>293.00000</ele>
        <time>2010-01-01T01:34:25Z</time>
      </trkpt>
      <trkpt lat="41.79406730" lon="2.885547690">
        <ele>292.00000</ele>
        <time>2010-01-01T01:34:49Z</time>
      </trkpt>
      <trkpt lat="41.79424200" lon="2.884763230">
        <ele>284.00000</ele>
        <time>2010-01-01T01:35:18Z</time>
      </trkpt>
      <trkpt lat="41.79419490" lon="2.883780870">
        <ele>279.00000</ele>
        <time>2010-01-01T01:35:31Z</time>
      </trkpt>
      <trkpt lat="41.79427350" lon="2.883359350">
        <ele>281.00000</ele>
        <time>2010-01-01T01:35:50Z</time>
      </trkpt>
      <trkpt lat="41.79467410" lon="2.883051060">
        <ele>280.00000</ele>
        <time>2010-01-01T01:36:10Z</time>
      </trkpt>
      <trkpt lat="41.79516170" lon="2.883269830">
        <ele>271.00000</ele>
        <time>2010-01-01T01:36:24Z</time>
      </trkpt>
      <trkpt lat="41.79527650" lon="2.883710970">
        <ele>268.00000</ele>
        <time>2010-01-01T01:36:34Z</time>
      </trkpt>
      <trkpt lat="41.79550570" lon="2.883652970">
        <ele>267.00000</ele>
        <time>2010-01-01T01:36:43Z</time>
      </trkpt>
      <trkpt lat="41.79569260" lon="2.883487670">
        <ele>265.00000</ele>
        <time>2010-01-01T01:37:09Z</time>
      </trkpt>
      <trkpt lat="41.79621580" lon="2.882967740">
        <ele>259.00000</ele>
        <time>2010-01-01T01:37:46Z</time>
      </trkpt>
      <trkpt lat="41.79690940" lon="2.882131150">
        <ele>251.00000</ele>
        <time>2010-01-01T01:38:28Z</time>
      </trkpt>
      <trkpt lat="41.79724870" lon="2.880816700">
        <ele>251.00000</ele>
        <time>2010-01-01T01:38:48Z</time>
      </trkpt>
      <trkpt lat="41.79771390" lon="2.880572110">
        <ele>250.00000</ele>
        <time>2010-01-01T01:39:07Z</time>
      </trkpt>
      <trkpt lat="41.79811600" lon="2.880195430">
        <ele>242.00000</ele>
        <time>2010-01-01T01:39:26Z</time>
      </trkpt>
      <trkpt lat="41.79841310" lon="2.879693940">
        <ele>237.00000</ele>
        <time>2010-01-01T01:39:35Z</time>
      </trkpt>
      <trkpt lat="41.79862660" lon="2.879645330">
        <ele>235.00000</ele>
        <time>2010-01-01T01:39:57Z</time>
      </trkpt>
      <trkpt lat="41.79911420" lon="2.879984370">
        <ele>228.00000</ele>
        <time>2010-01-01T01:40:12Z</time>
      </trkpt>
      <trkpt lat="41.79947880" lon="2.879951010">
        <ele>226.00000</ele>
        <time>2010-01-01T01:40:21Z</time>
      </trkpt>
      <trkpt lat="41.79970670" lon="2.879825870">
        <ele>224.00000</ele>
        <time>2010-01-01T01:40:45Z</time>
      </trkpt>
      <trkpt lat="41.80019710" lon="2.879400070">
        <ele>220.00000</ele>
        <time>2010-01-01T01:41:07Z</time>
      </trkpt>
      <trkpt lat="41.80074170" lon="2.879243080">
        <ele>215.00000</ele>
        <time>2010-01-01T01:41:24Z</time>
      </trkpt>
      <trkpt lat="41.80109870" lon="2.878935630">
        <ele>209.00000</ele>
        <time>2010-01-01T01:41:36Z</time>
      </trkpt>
      <trkpt lat="41.80138260" lon="2.878987510">
        <ele>206.00000</ele>
        <time>2010-01-01T01:41:47Z</time>
      </trkpt>
      <trkpt lat="41.80165020" lon="2.878869920">
        <ele>201.00000</ele>
        <time>2010-01-01T01:41:54Z</time>
      </trkpt>
      <trkpt lat="41.80180580" lon="2.878738400">
        <ele>197.00000</ele>
        <time>2010-01-01T01:42:06Z</time>
      </trkpt>
      <trkpt lat="41.80196730" lon="2.878390470">
        <ele>192.00000</ele>
        <time>2010-01-01T01:42:12Z</time>
      </trkpt>
      <trkpt lat="41.80208500" lon="2.878297180">
        <ele>190.00000</ele>
        <time>2010-01-01T01:42:18Z</time>
      </trkpt>
      <trkpt lat="41.80222260" lon="2.878356780">
        <ele>187.00000</ele>
        <time>2010-01-01T01:42:30Z</time>
      </trkpt>
      <trkpt lat="41.80246150" lon="2.878595160">
        <ele>182.00000</ele>
        <time>2010-01-01T01:42:41Z</time>
      </trkpt>
      <trkpt lat="41.80273370" lon="2.878682580">
        <ele>178.00000</ele>
        <time>2010-01-01T01:43:16Z</time>
      </trkpt>
      <trkpt lat="41.80360950" lon="2.878471520">
        <ele>174.00000</ele>
        <time>2010-01-01T01:43:30Z</time>
      </trkpt>
      <trkpt lat="41.80390290" lon="2.878257870">
        <ele>172.00000</ele>
        <time>2010-01-01T01:43:40Z</time>
      </trkpt>
      <trkpt lat="41.80414610" lon="2.878178580">
        <ele>172.00000</ele>
        <time>2010-01-01T01:44:02Z</time>
      </trkpt>
      <trkpt lat="41.80464250" lon="2.877887890">
        <ele>172.00000</ele>
        <time>2010-01-01T01:44:27Z</time>
      </trkpt>
      <trkpt lat="41.80519090" lon="2.877460830">
        <ele>168.00000</ele>
        <time>2010-01-01T01:44:47Z</time>
      </trkpt>
      <trkpt lat="41.80566040" lon="2.877230830">
        <ele>165.00000</ele>
        <time>2010-01-01T01:45:04Z</time>
      </trkpt>
      <trkpt lat="41.80602190" lon="2.876956500">
        <ele>163.00000</ele>
        <time>2010-01-01T01:45:32Z</time>
      </trkpt>
      <trkpt lat="41.80668830" lon="2.876582080">
        <ele>159.00000</ele>
        <time>2010-01-01T01:46:03Z</time>
      </trkpt>
      <trkpt lat="41.80740960" lon="2.876271690">
        <ele>155.00000</ele>
        <time>2010-01-01T01:46:20Z</time>
      </trkpt>
      <trkpt lat="41.80782450" lon="2.876211510">
        <ele>152.00000</ele>
        <time>2010-01-01T01:46:33Z</time>
      </trkpt>
      <trkpt lat="41.80816100" lon="2.876326680">
        <ele>151.00000</ele>
        <time>2010-01-01T01:46:50Z</time>
      </trkpt>
      <trkpt lat="41.80856370" lon="2.876154100">
        <ele>151.00000</ele>
        <time>2010-01-01T01:47:00Z</time>
      </trkpt>
      <trkpt lat="41.80877230" lon="2.875998440">
        <ele>149.00000</ele>
        <time>2010-01-01T01:47:49Z</time>
      </trkpt>
      <trkpt lat="41.80963430" lon="2.874827160">
        <ele>144.00000</ele>
        <time>2010-01-01T01:48:50Z</time>
      </trkpt>
      <trkpt lat="41.81080390" lon="2.876161560">
        <ele>150.00000</ele>
        <time>2010-01-01T01:50:41Z</time>
      </trkpt>
      <trkpt lat="41.81308410" lon="2.878264990">
        <ele>148.00000</ele>
        <time>2010-01-01T02:00:37Z</time>
      </trkpt>
      <trkpt lat="41.82549200" lon="2.889307730">
        <ele>127.00000</ele>
        <time>2010-01-01T02:03:07Z</time>
      </trkpt>
      <trkpt lat="41.82923800" lon="2.889590120">
        <ele>123.00000</ele>
        <time>2010-01-01T02:04:34Z</time>
      </trkpt>
      <trkpt lat="41.83059900" lon="2.891829680">
        <ele>123.00000</ele>
        <time>2010-01-01T02:05:46Z</time>
      </trkpt>
      <trkpt lat="41.83236210" lon="2.891347720">
        <ele>123.00000</ele>
        <time>2010-01-01T02:09:35Z</time>
      </trkpt>
      <trkpt lat="41.83801190" lon="2.890175430">
        <ele>133.00000</ele>
        <time>2010-01-01T02:09:41Z</time>
      </trkpt>
      <trkpt lat="41.83817420" lon="2.890181630">
        <ele>134.00000</ele>
        <time>2010-01-01T02:09:45Z</time>
      </trkpt>
      <trkpt lat="41.83817940" lon="2.890331500">
        <ele>134.00000</ele>
        <time>2010-01-01T02:10:02Z</time>
      </trkpt>
      <trkpt lat="41.83796540" lon="2.890786220">
        <ele>134.00000</ele>
        <time>2010-01-01T02:10:47Z</time>
      </trkpt>
      <trkpt lat="41.83727260" lon="2.891990280">
        <ele>133.00000</ele>
        <time>2010-01-01T02:10:54Z</time>
      </trkpt>
      <trkpt lat="41.83723040" lon="2.892211140">
        <ele>133.00000</ele>
        <time>2010-01-01T02:11:03Z</time>
      </trkpt>
      <trkpt lat="41.83727530" lon="2.892522280">
        <ele>134.00000</ele>
        <time>2010-01-01T02:11:15Z</time>
      </trkpt>
      <trkpt lat="41.83740400" lon="2.892878090">
        <ele>135.00000</ele>
        <time>2010-01-01T02:11:54Z</time>
      </trkpt>
      <trkpt lat="41.83798500" lon="2.893941160">
        <ele>140.00000</ele>
        <time>2010-01-01T02:12:32Z</time>
      </trkpt>
      <trkpt lat="41.83834320" lon="2.895101640">
        <ele>139.00000</ele>
        <time>2010-01-01T02:14:02Z</time>
      </trkpt>
      <trkpt lat="41.83871050" lon="2.898074870">
        <ele>134.00000</ele>
        <time>2010-01-01T02:14:12Z</time>
      </trkpt>
      <trkpt lat="41.83881860" lon="2.898394050">
        <ele>135.00000</ele>
        <time>2010-01-01T02:14:32Z</time>
      </trkpt>
      <trkpt lat="41.83914210" lon="2.898909200">
        <ele>136.00000</ele>
        <time>2010-01-01T02:14:44Z</time>
      </trkpt>
      <trkpt lat="41.83923820" lon="2.899293510">
        <ele>136.00000</ele>
        <time>2010-01-01T02:15:01Z</time>
      </trkpt>
      <trkpt lat="41.83916510" lon="2.899838840">
        <ele>135.00000</ele>
        <time>2010-01-01T02:15:09Z</time>
      </trkpt>
      <trkpt lat="41.83928950" lon="2.900058530">
        <ele>135.00000</ele>
        <time>2010-01-01T02:15:43Z</time>
      </trkpt>
      <trkpt lat="41.83998310" lon="2.900712070">
        <ele>137.00000</ele>
        <time>2010-01-01T02:15:54Z</time>
      </trkpt>
      <trkpt lat="41.84017450" lon="2.900960590">
        <ele>136.00000</ele>
        <time>2010-01-01T02:16:53Z</time>
      </trkpt>
      <trkpt lat="41.84068850" lon="2.902839060">
        <ele>136.00000</ele>
        <time>2010-01-01T02:17:27Z</time>
      </trkpt>
      <trkpt lat="41.84078870" lon="2.903971620">
        <ele>136.00000</ele>
        <time>2010-01-01T02:18:05Z</time>
      </trkpt>
      <trkpt lat="41.84110010" lon="2.905152130">
        <ele>136.00000</ele>
        <time>2010-01-01T02:18:17Z</time>
      </trkpt>
      <trkpt lat="41.84126200" lon="2.905491680">
        <ele>136.00000</ele>
        <time>2010-01-01T02:18:57Z</time>
      </trkpt>
      <trkpt lat="41.84202670" lon="2.906354340">
        <ele>134.00000</ele>
        <time>2010-01-01T02:19:15Z</time>
      </trkpt>
      <trkpt lat="41.84231690" lon="2.906813670">
        <ele>136.00000</ele>
        <time>2010-01-01T02:19:17Z</time>
      </trkpt>
      <trkpt lat="41.84237840" lon="2.906820550">
        <ele>136.00000</ele>
        <time>2010-01-01T02:20:01Z</time>
      </trkpt>
      <trkpt lat="41.84335950" lon="2.906158460">
        <ele>132.00000</ele>
        <time>2010-01-01T02:20:12Z</time>
      </trkpt>
      <trkpt lat="41.84357580" lon="2.905955450">
        <ele>129.00000</ele>
        <time>2010-01-01T02:21:14Z</time>
      </trkpt>
      <trkpt lat="41.84440240" lon="2.904163820">
        <ele>133.00000</ele>
        <time>2010-01-01T02:21:42Z</time>
      </trkpt>
      <trkpt lat="41.84490060" lon="2.903527880">
        <ele>137.00000</ele>
        <time>2010-01-01T02:22:00Z</time>
      </trkpt>
      <trkpt lat="41.84531460" lon="2.903278440">
        <ele>137.00000</ele>
        <time>2010-01-01T02:22:10Z</time>
      </trkpt>
      <trkpt lat="41.84548030" lon="2.903031840">
        <ele>135.00000</ele>
        <time>2010-01-01T02:22:49Z</time>
      </trkpt>
      <trkpt lat="41.84591740" lon="2.901862230">
        <ele>130.00000</ele>
        <time>2010-01-01T02:23:19Z</time>
      </trkpt>
      <trkpt lat="41.84636800" lon="2.901066960">
        <ele>135.00000</ele>
        <time>2010-01-01T02:23:55Z</time>
      </trkpt>
      <trkpt lat="41.84676200" lon="2.899961890">
        <ele>135.00000</ele>
        <time>2010-01-01T02:24:19Z</time>
      </trkpt>
      <trkpt lat="41.84689280" lon="2.899193270">
        <ele>135.00000</ele>
        <time>2010-01-01T02:25:06Z</time>
      </trkpt>
      <trkpt lat="41.84735910" lon="2.897731040">
        <ele>137.00000</ele>
        <time>2010-01-01T02:25:42Z</time>
      </trkpt>
      <trkpt lat="41.84757540" lon="2.896574510">
        <ele>134.00000</ele>
        <time>2010-01-01T02:26:02Z</time>
      </trkpt>
      <trkpt lat="41.84777140" lon="2.895943600">
        <ele>136.00000</ele>
        <time>2010-01-01T02:26:37Z</time>
      </trkpt>
      <trkpt lat="41.84790290" lon="2.894796450">
        <ele>139.00000</ele>
        <time>2010-01-01T02:26:48Z</time>
      </trkpt>
      <trkpt lat="41.84800860" lon="2.894454810">
        <ele>140.00000</ele>
        <time>2010-01-01T02:26:52Z</time>
      </trkpt>
      <trkpt lat="41.84809860" lon="2.894488590">
        <ele>140.00000</ele>
        <time>2010-01-01T02:27:07Z</time>
      </trkpt>
      <trkpt lat="41.84832930" lon="2.894898290">
        <ele>140.00000</ele>
        <time>2010-01-01T02:28:36Z</time>
      </trkpt>
      <trkpt lat="41.85000180" lon="2.896865950">
        <ele>135.00000</ele>
        <time>2010-01-01T02:29:34Z</time>
      </trkpt>
      <trkpt lat="41.85118640" lon="2.897983840">
        <ele>142.00000</ele>
        <time>2010-01-01T02:30:15Z</time>
      </trkpt>
      <trkpt lat="41.85206240" lon="2.898725050">
        <ele>140.00000</ele>
        <time>2010-01-01T02:30:54Z</time>
      </trkpt>
      <trkpt lat="41.85294940" lon="2.899228220">
        <ele>148.00000</ele>
        <time>2010-01-01T02:31:38Z</time>
      </trkpt>
      <trkpt lat="41.85390220" lon="2.899938500">
        <ele>151.00000</ele>
        <time>2010-01-01T02:31:50Z</time>
      </trkpt>
      <trkpt lat="41.85414270" lon="2.900200520">
        <ele>152.00000</ele>
        <time>2010-01-01T02:32:14Z</time>
      </trkpt>
      <trkpt lat="41.85471830" lon="2.900467650">
        <ele>153.00000</ele>
        <time>2010-01-01T02:32:38Z</time>
      </trkpt>
      <trkpt lat="41.85523360" lon="2.900822620">
        <ele>149.00000</ele>
        <time>2010-01-01T02:32:55Z</time>
      </trkpt>
      <trkpt lat="41.85566100" lon="2.901002160">
        <ele>146.00000</ele>
        <time>2010-01-01T02:33:11Z</time>
      </trkpt>
      <trkpt lat="41.85603620" lon="2.901098560">
        <ele>145.00000</ele>
        <time>2010-01-01T02:33:26Z</time>
      </trkpt>
      <trkpt lat="41.85642200" lon="2.901082290">
        <ele>142.00000</ele>
        <time>2010-01-01T02:33:38Z</time>
      </trkpt>
      <trkpt lat="41.85669610" lon="2.901267530">
        <ele>142.00000</ele>
        <time>2010-01-01T02:33:46Z</time>
      </trkpt>
      <trkpt lat="41.85689270" lon="2.901267120">
        <ele>142.00000</ele>
        <time>2010-01-01T02:33:54Z</time>
      </trkpt>
      <trkpt lat="41.85704190" lon="2.901120260">
        <ele>142.00000</ele>
        <time>2010-01-01T02:34:09Z</time>
      </trkpt>
      <trkpt lat="41.85715570" lon="2.900649790">
        <ele>141.00000</ele>
        <time>2010-01-01T02:34:21Z</time>
      </trkpt>
      <trkpt lat="41.85741650" lon="2.900397910">
        <ele>141.00000</ele>
        <time>2010-01-01T02:34:51Z</time>
      </trkpt>
      <trkpt lat="41.85811990" lon="2.900055600">
        <ele>140.00000</ele>
        <time>2010-01-01T02:35:07Z</time>
      </trkpt>
      <trkpt lat="41.85845460" lon="2.899764660">
        <ele>141.00000</ele>
        <time>2010-01-01T02:35:34Z</time>
      </trkpt>
      <trkpt lat="41.85879990" lon="2.898979190">
        <ele>142.00000</ele>
        <time>2010-01-01T02:35:58Z</time>
      </trkpt>
      <trkpt lat="41.85919970" lon="2.898392960">
        <ele>142.00000</ele>
        <time>2010-01-01T02:36:16Z</time>
      </trkpt>
      <trkpt lat="41.85955180" lon="2.898047460">
        <ele>145.00000</ele>
        <time>2010-01-01T02:36:32Z</time>
      </trkpt>
      <trkpt lat="41.85996980" lon="2.898098090">
        <ele>147.00000</ele>
        <time>2010-01-01T02:36:54Z</time>
      </trkpt>
      <trkpt lat="41.86049980" lon="2.898298080">
        <ele>149.00000</ele>
        <time>2010-01-01T02:37:15Z</time>
      </trkpt>
      <trkpt lat="41.86099630" lon="2.898409390">
        <ele>151.00000</ele>
        <time>2010-01-01T02:38:36Z</time>
      </trkpt>
      <trkpt lat="41.86300680" lon="2.898774670">
        <ele>154.00000</ele>
        <time>2010-01-01T02:38:53Z</time>
      </trkpt>
      <trkpt lat="41.86339760" lon="2.899005850">
        <ele>154.00000</ele>
        <time>2010-01-01T02:38:55Z</time>
      </trkpt>
      <trkpt lat="41.86345560" lon="2.898984390">
        <ele>154.00000</ele>
        <time>2010-01-01T02:39:59Z</time>
      </trkpt>
      <trkpt lat="41.86417380" lon="2.897097120">
        <ele>152.00000</ele>
        <time>2010-01-01T02:40:43Z</time>
      </trkpt>
      <trkpt lat="41.86508960" lon="2.896233030">
        <ele>152.00000</ele>
        <time>2010-01-01T02:41:15Z</time>
      </trkpt>
      <trkpt lat="41.86562100" lon="2.895466250">
        <ele>151.00000</ele>
        <time>2010-01-01T02:41:37Z</time>
      </trkpt>
      <trkpt lat="41.86585620" lon="2.894778430">
        <ele>149.00000</ele>
        <time>2010-01-01T02:41:54Z</time>
      </trkpt>
      <trkpt lat="41.86588430" lon="2.894225310">
        <ele>150.00000</ele>
        <time>2010-01-01T02:42:48Z</time>
      </trkpt>
      <trkpt lat="41.86648010" lon="2.892593860">
        <ele>146.00000</ele>
        <time>2010-01-01T02:44:02Z</time>
      </trkpt>
      <trkpt lat="41.86761380" lon="2.890606260">
        <ele>142.00000</ele>
        <time>2010-01-01T02:44:37Z</time>
      </trkpt>
      <trkpt lat="41.86789270" lon="2.889495740">
        <ele>141.00000</ele>
        <time>2010-01-01T02:44:39Z</time>
      </trkpt>
      <trkpt lat="41.86791870" lon="2.889443940">
        <ele>141.00000</ele>
        <time>2010-01-01T02:44:43Z</time>
      </trkpt>
      <trkpt lat="41.86800780" lon="2.889470090">
        <ele>141.00000</ele>
        <time>2010-01-01T02:45:07Z</time>
      </trkpt>
      <trkpt lat="41.86842750" lon="2.890034360">
        <ele>144.00000</ele>
        <time>2010-01-01T02:45:28Z</time>
      </trkpt>
      <trkpt lat="41.86873880" lon="2.890597200">
        <ele>145.00000</ele>
        <time>2010-01-01T02:45:57Z</time>
      </trkpt>
      <trkpt lat="41.86939280" lon="2.891039690">
        <ele>143.00000</ele>
        <time>2010-01-01T02:46:06Z</time>
      </trkpt>
      <trkpt lat="41.86956070" lon="2.891235230">
        <ele>143.00000</ele>
        <time>2010-01-01T02:47:04Z</time>
      </trkpt>
      <trkpt lat="41.86982380" lon="2.893145050">
        <ele>140.00000</ele>
        <time>2010-01-01T02:47:12Z</time>
      </trkpt>
      <trkpt lat="41.86976320" lon="2.893428530">
        <ele>139.00000</ele>
        <time>2010-01-01T02:47:42Z</time>
      </trkpt>
      <trkpt lat="41.86942010" lon="2.894288850">
        <ele>138.00000</ele>
        <time>2010-01-01T02:47:56Z</time>
      </trkpt>
      <trkpt lat="41.86937450" lon="2.894786230">
        <ele>141.00000</ele>
        <time>2010-01-01T02:48:49Z</time>
      </trkpt>
      <trkpt lat="41.86895280" lon="2.896460760">
        <ele>141.00000</ele>
        <time>2010-01-01T02:49:12Z</time>
      </trkpt>
      <trkpt lat="41.86866020" lon="2.897115140">
        <ele>143.00000</ele>
        <time>2010-01-01T02:49:37Z</time>
      </trkpt>
      <trkpt lat="41.86883690" lon="2.897911840">
        <ele>138.00000</ele>
        <time>2010-01-01T02:49:47Z</time>
      </trkpt>
      <trkpt lat="41.86883760" lon="2.898263540">
        <ele>137.00000</ele>
        <time>2010-01-01T02:50:36Z</time>
      </trkpt>
      <trkpt lat="41.86841410" lon="2.899785360">
        <ele>141.00000</ele>
        <time>2010-01-01T02:50:51Z</time>
      </trkpt>
      <trkpt lat="41.86856420" lon="2.900258190">
        <ele>140.00000</ele>
        <time>2010-01-01T02:51:26Z</time>
      </trkpt>
      <trkpt lat="41.86822970" lon="2.901344820">
        <ele>138.00000</ele>
        <time>2010-01-01T02:51:34Z</time>
      </trkpt>
      <trkpt lat="41.86826560" lon="2.901595850">
        <ele>138.00000</ele>
        <time>2010-01-01T02:52:03Z</time>
      </trkpt>
      <trkpt lat="41.86858380" lon="2.902490540">
        <ele>142.00000</ele>
        <time>2010-01-01T02:53:23Z</time>
      </trkpt>
      <trkpt lat="41.86978780" lon="2.904637650">
        <ele>156.00000</ele>
        <time>2010-01-01T02:54:09Z</time>
      </trkpt>
      <trkpt lat="41.87067510" lon="2.905597040">
        <ele>159.00000</ele>
        <time>2010-01-01T02:54:34Z</time>
      </trkpt>
      <trkpt lat="41.87124620" lon="2.905282970">
        <ele>157.00000</ele>
        <time>2010-01-01T02:55:07Z</time>
      </trkpt>
      <trkpt lat="41.87187510" lon="2.904532620">
        <ele>150.00000</ele>
        <time>2010-01-01T02:55:39Z</time>
      </trkpt>
      <trkpt lat="41.87234850" lon="2.903673220">
        <ele>146.00000</ele>
        <time>2010-01-01T02:56:01Z</time>
      </trkpt>
      <trkpt lat="41.87282900" lon="2.903318250">
        <ele>145.00000</ele>
        <time>2010-01-01T02:56:13Z</time>
      </trkpt>
      <trkpt lat="41.87305790" lon="2.903072330">
        <ele>145.00000</ele>
        <time>2010-01-01T02:56:29Z</time>
      </trkpt>
      <trkpt lat="41.87330300" lon="2.902642590">
        <ele>143.00000</ele>
        <time>2010-01-01T02:57:01Z</time>
      </trkpt>
      <trkpt lat="41.87402050" lon="2.902143360">
        <ele>140.00000</ele>
        <time>2010-01-01T02:57:18Z</time>
      </trkpt>
      <trkpt lat="41.87434070" lon="2.901789220">
        <ele>139.00000</ele>
        <time>2010-01-01T02:57:21Z</time>
      </trkpt>
      <trkpt lat="41.87440310" lon="2.901718980">
        <ele>138.00000</ele>
        <time>2010-01-01T02:57:23Z</time>
      </trkpt>
      <trkpt lat="41.87444170" lon="2.901753100">
        <ele>138.00000</ele>
        <time>2010-01-01T02:57:51Z</time>
      </trkpt>
      <trkpt lat="41.87487950" lon="2.902477380">
        <ele>137.00000</ele>
        <time>2010-01-01T02:58:15Z</time>
      </trkpt>
      <trkpt lat="41.87513920" lon="2.903215910">
        <ele>138.00000</ele>
        <time>2010-01-01T02:58:35Z</time>
      </trkpt>
      <trkpt lat="41.87528370" lon="2.903845640">
        <ele>140.00000</ele>
        <time>2010-01-01T02:59:34Z</time>
      </trkpt>
      <trkpt lat="41.87514550" lon="2.905810360">
        <ele>141.00000</ele>
        <time>2010-01-01T03:00:01Z</time>
      </trkpt>
      <trkpt lat="41.87521620" lon="2.906727760">
        <ele>150.00000</ele>
        <time>2010-01-01T03:01:13Z</time>
      </trkpt>
      <trkpt lat="41.87556830" lon="2.909104360">
        <ele>156.00000</ele>
        <time>2010-01-01T03:01:37Z</time>
      </trkpt>
      <trkpt lat="41.87543920" lon="2.909863090">
        <ele>162.00000</ele>
        <time>2010-01-01T03:02:10Z</time>
      </trkpt>
      <trkpt lat="41.87511130" lon="2.910905890">
        <ele>162.00000</ele>
        <time>2010-01-01T03:02:20Z</time>
      </trkpt>
      <trkpt lat="41.87511860" lon="2.911226910">
        <ele>162.00000</ele>
        <time>2010-01-01T03:03:02Z</time>
      </trkpt>
      <trkpt lat="41.87566990" lon="2.912418150">
        <ele>167.00000</ele>
        <time>2010-01-01T03:03:44Z</time>
      </trkpt>
      <trkpt lat="41.87589380" lon="2.913804430">
        <ele>171.00000</ele>
        <time>2010-01-01T03:04:43Z</time>
      </trkpt>
      <trkpt lat="41.87669730" lon="2.915462620">
        <ele>173.00000</ele>
        <time>2010-01-01T03:06:15Z</time>
      </trkpt>
      <trkpt lat="41.87806310" lon="2.917948440">
        <ele>175.00000</ele>
        <time>2010-01-01T03:06:27Z</time>
      </trkpt>
      <trkpt lat="41.87830540" lon="2.918201910">
        <ele>175.00000</ele>
        <time>2010-01-01T03:06:54Z</time>
      </trkpt>
      <trkpt lat="41.87892460" lon="2.918562420">
        <ele>176.00000</ele>
        <time>2010-01-01T03:07:04Z</time>
      </trkpt>
      <trkpt lat="41.87908430" lon="2.918798960">
        <ele>177.00000</ele>
        <time>2010-01-01T03:07:14Z</time>
      </trkpt>
      <trkpt lat="41.87916660" lon="2.919123750">
        <ele>177.00000</ele>
        <time>2010-01-01T03:07:40Z</time>
      </trkpt>
      <trkpt lat="41.87923530" lon="2.919989610">
        <ele>181.00000</ele>
        <time>2010-01-01T03:08:22Z</time>
      </trkpt>
      <trkpt lat="41.87971980" lon="2.921225770">
        <ele>188.00000</ele>
        <time>2010-01-01T03:08:32Z</time>
      </trkpt>
      <trkpt lat="41.87970820" lon="2.921586940">
        <ele>188.00000</ele>
        <time>2010-01-01T03:08:57Z</time>
      </trkpt>
      <trkpt lat="41.87945500" lon="2.922355400">
        <ele>188.00000</ele>
        <time>2010-01-01T03:10:02Z</time>
      </trkpt>
      <trkpt lat="41.87858730" lon="2.924179630">
        <ele>183.00000</ele>
        <time>2010-01-01T03:10:12Z</time>
      </trkpt>
      <trkpt lat="41.87860650" lon="2.924498650">
        <ele>183.00000</ele>
        <time>2010-01-01T03:10:30Z</time>
      </trkpt>
      <trkpt lat="41.87877190" lon="2.925094350">
        <ele>182.00000</ele>
        <time>2010-01-01T03:10:45Z</time>
      </trkpt>
      <trkpt lat="41.87879380" lon="2.925572290">
        <ele>180.00000</ele>
        <time>2010-01-01T03:10:58Z</time>
      </trkpt>
      <trkpt lat="41.87903720" lon="2.925883340">
        <ele>180.00000</ele>
        <time>2010-01-01T03:12:06Z</time>
      </trkpt>
      <trkpt lat="41.88051950" lon="2.927008020">
        <ele>191.00000</ele>
        <time>2010-01-01T03:12:18Z</time>
      </trkpt>
      <trkpt lat="41.88080490" lon="2.927115820">
        <ele>191.00000</ele>
        <time>2010-01-01T03:12:37Z</time>
      </trkpt>
      <trkpt lat="41.88128460" lon="2.927129230">
        <ele>195.00000</ele>
        <time>2010-01-01T03:12:47Z</time>
      </trkpt>
      <trkpt lat="41.88151820" lon="2.927232320">
        <ele>195.00000</ele>
        <time>2010-01-01T03:13:08Z</time>
      </trkpt>
      <trkpt lat="41.88184810" lon="2.927758540">
        <ele>192.00000</ele>
        <time>2010-01-01T03:13:32Z</time>
      </trkpt>
      <trkpt lat="41.88237470" lon="2.928188870">
        <ele>197.00000</ele>
        <time>2010-01-01T03:13:45Z</time>
      </trkpt>
      <trkpt lat="41.88260460" lon="2.928471090">
        <ele>197.00000</ele>
        <time>2010-01-01T03:14:12Z</time>
      </trkpt>
      <trkpt lat="41.88290180" lon="2.929284970">
        <ele>200.00000</ele>
        <time>2010-01-01T03:15:02Z</time>
      </trkpt>
      <trkpt lat="41.88322860" lon="2.930901250">
        <ele>203.00000</ele>
        <time>2010-01-01T03:16:13Z</time>
      </trkpt>
      <trkpt lat="41.88418140" lon="2.932920450">
        <ele>221.00000</ele>
        <time>2010-01-01T03:17:48Z</time>
      </trkpt>
      <trkpt lat="41.88519830" lon="2.935790750">
        <ele>248.00000</ele>
        <time>2010-01-01T03:18:00Z</time>
      </trkpt>
      <trkpt lat="41.88541170" lon="2.936058380">
        <ele>254.00000</ele>
        <time>2010-01-01T03:18:23Z</time>
      </trkpt>
      <trkpt lat="41.88590110" lon="2.936494660">
        <ele>264.00000</ele>
        <time>2010-01-01T03:19:06Z</time>
      </trkpt>
      <trkpt lat="41.88697450" lon="2.936514860">
        <ele>277.00000</ele>
        <time>2010-01-01T03:19:20Z</time>
      </trkpt>
      <trkpt lat="41.88732660" lon="2.936447560">
        <ele>279.00000</ele>
        <time>2010-01-01T03:19:27Z</time>
      </trkpt>
      <trkpt lat="41.88746820" lon="2.936539420">
        <ele>281.00000</ele>
        <time>2010-01-01T03:19:56Z</time>
      </trkpt>
      <trkpt lat="41.88770310" lon="2.937483890">
        <ele>290.00000</ele>
        <time>2010-01-01T03:20:18Z</time>
      </trkpt>
      <trkpt lat="41.88750090" lon="2.938147660">
        <ele>298.00000</ele>
        <time>2010-01-01T03:20:34Z</time>
      </trkpt>
      <trkpt lat="41.88743550" lon="2.938686110">
        <ele>303.00000</ele>
        <time>2010-01-01T03:20:44Z</time>
      </trkpt>
      <trkpt lat="41.88750050" lon="2.939002860">
        <ele>305.00000</ele>
        <time>2010-01-01T03:20:53Z</time>
      </trkpt>
      <trkpt lat="41.88765140" lon="2.939248200">
        <ele>306.00000</ele>
        <time>2010-01-01T03:21:03Z</time>
      </trkpt>
      <trkpt lat="41.88787820" lon="2.939373930">
        <ele>306.00000</ele>
        <time>2010-01-01T03:21:22Z</time>
      </trkpt>
      <trkpt lat="41.88835070" lon="2.939483310">
        <ele>306.00000</ele>
        <time>2010-01-01T03:22:03Z</time>
      </trkpt>
      <trkpt lat="41.88933940" lon="2.939849520">
        <ele>303.00000</ele>
        <time>2010-01-01T03:22:25Z</time>
      </trkpt>
      <trkpt lat="41.88988690" lon="2.939751370">
        <ele>303.00000</ele>
        <time>2010-01-01T03:22:59Z</time>
      </trkpt>
      <trkpt lat="41.88945440" lon="2.940739090">
        <ele>311.00000</ele>
        <time>2010-01-01T03:24:03Z</time>
      </trkpt>
      <trkpt lat="41.88840040" lon="2.942329300">
        <ele>326.00000</ele>
        <time>2010-01-01T03:24:12Z</time>
      </trkpt>
      <trkpt lat="41.88831250" lon="2.942616800">
        <ele>327.00000</ele>
        <time>2010-01-01T03:24:42Z</time>
      </trkpt>
      <trkpt lat="41.88847640" lon="2.943600500">
        <ele>330.00000</ele>
        <time>2010-01-01T03:25:09Z</time>
      </trkpt>
      <trkpt lat="41.88837830" lon="2.944493180">
        <ele>331.00000</ele>
        <time>2010-01-01T03:26:12Z</time>
      </trkpt>
      <trkpt lat="41.88860720" lon="2.946586980">
        <ele>332.00000</ele>
        <time>2010-01-01T03:26:23Z</time>
      </trkpt>
      <trkpt lat="41.88850520" lon="2.946940190">
        <ele>334.00000</ele>
        <time>2010-01-01T03:26:41Z</time>
      </trkpt>
      <trkpt lat="41.88826320" lon="2.947419630">
        <ele>339.00000</ele>
        <time>2010-01-01T03:27:00Z</time>
      </trkpt>
      <trkpt lat="41.88815110" lon="2.948037800">
        <ele>341.00000</ele>
        <time>2010-01-01T03:27:51Z</time>
      </trkpt>
      <trkpt lat="41.88798300" lon="2.949744770">
        <ele>346.00000</ele>
        <time>2010-01-01T03:28:17Z</time>
      </trkpt>
      <trkpt lat="41.88798970" lon="2.950622610">
        <ele>351.00000</ele>
        <time>2010-01-01T03:28:37Z</time>
      </trkpt>
      <trkpt lat="41.88791160" lon="2.951282180">
        <ele>352.00000</ele>
        <time>2010-01-01T03:28:42Z</time>
      </trkpt>
      <trkpt lat="41.88787300" lon="2.951451330">
        <ele>353.00000</ele>
        <time>2010-01-01T03:29:11Z</time>
      </trkpt>
      <trkpt lat="41.88746320" lon="2.952234450">
        <ele>362.00000</ele>
        <time>2010-01-01T03:29:44Z</time>
      </trkpt>
      <trkpt lat="41.88730860" lon="2.953341950">
        <ele>374.00000</ele>
        <time>2010-01-01T03:30:04Z</time>
      </trkpt>
      <trkpt lat="41.88739350" lon="2.953998420">
        <ele>382.00000</ele>
        <time>2010-01-01T03:30:11Z</time>
      </trkpt>
      <trkpt lat="41.88736910" lon="2.954208560">
        <ele>383.00000</ele>
        <time>2010-01-01T03:30:20Z</time>
      </trkpt>
      <trkpt lat="41.88720130" lon="2.954421790">
        <ele>383.00000</ele>
        <time>2010-01-01T03:30:32Z</time>
      </trkpt>
      <trkpt lat="41.88694040" lon="2.954605690">
        <ele>386.00000</ele>
        <time>2010-01-01T03:31:00Z</time>
      </trkpt>
      <trkpt lat="41.88625320" lon="2.954868130">
        <ele>393.00000</ele>
        <time>2010-01-01T03:31:52Z</time>
      </trkpt>
      <trkpt lat="41.88509500" lon="2.955648400">
        <ele>411.00000</ele>
        <time>2010-01-01T03:32:13Z</time>
      </trkpt>
      <trkpt lat="41.88459880" lon="2.955832800">
        <ele>414.00000</ele>
        <time>2010-01-01T03:32:23Z</time>
      </trkpt>
      <trkpt lat="41.88437310" lon="2.956002280">
        <ele>415.00000</ele>
        <time>2010-01-01T03:32:33Z</time>
      </trkpt>
      <trkpt lat="41.88420920" lon="2.956242090">
        <ele>413.00000</ele>
        <time>2010-01-01T03:32:55Z</time>
      </trkpt>
      <trkpt lat="41.88403520" lon="2.956959830">
        <ele>416.00000</ele>
        <time>2010-01-01T03:33:13Z</time>
      </trkpt>
      <trkpt lat="41.88430090" lon="2.957444310">
        <ele>424.00000</ele>
        <time>2010-01-01T03:33:22Z</time>
      </trkpt>
      <trkpt lat="41.88447500" lon="2.957615380">
        <ele>428.00000</ele>
        <time>2010-01-01T03:33:34Z</time>
      </trkpt>
      <trkpt lat="41.88458130" lon="2.957980330">
        <ele>427.00000</ele>
        <time>2010-01-01T03:33:50Z</time>
      </trkpt>
      <trkpt lat="41.88492520" lon="2.958284680">
        <ele>433.00000</ele>
        <time>2010-01-01T03:34:18Z</time>
      </trkpt>
      <trkpt lat="41.88557110" lon="2.958605120">
        <ele>438.00000</ele>
        <time>2010-01-01T03:34:32Z</time>
      </trkpt>
      <trkpt lat="41.88588080" lon="2.958876100">
        <ele>432.00000</ele>
        <time>2010-01-01T03:35:15Z</time>
      </trkpt>
      <trkpt lat="41.88613720" lon="2.960264400">
        <ele>442.00000</ele>
        <time>2010-01-01T03:35:43Z</time>
      </trkpt>
      <trkpt lat="41.88600800" lon="2.961178110">
        <ele>440.00000</ele>
        <time>2010-01-01T03:35:58Z</time>
      </trkpt>
      <trkpt lat="41.88599600" lon="2.961683450">
        <ele>437.00000</ele>
        <time>2010-01-01T03:36:16Z</time>
      </trkpt>
      <trkpt lat="41.88608240" lon="2.962284520">
        <ele>432.00000</ele>
        <time>2010-01-01T03:36:32Z</time>
      </trkpt>
      <trkpt lat="41.88605400" lon="2.962833870">
        <ele>425.00000</ele>
        <time>2010-01-01T03:37:31Z</time>
      </trkpt>
      <trkpt lat="41.88556780" lon="2.964693060">
        <ele>412.00000</ele>
        <time>2010-01-01T03:37:48Z</time>
      </trkpt>
      <trkpt lat="41.88532360" lon="2.965149040">
        <ele>413.00000</ele>
        <time>2010-01-01T03:38:29Z</time>
      </trkpt>
      <trkpt lat="41.88442630" lon="2.965814140">
        <ele>425.00000</ele>
        <time>2010-01-01T03:38:49Z</time>
      </trkpt>
      <trkpt lat="41.88406990" lon="2.966298360">
        <ele>421.00000</ele>
        <time>2010-01-01T03:39:03Z</time>
      </trkpt>
      <trkpt lat="41.88397750" lon="2.966738500">
        <ele>416.00000</ele>
        <time>2010-01-01T03:39:18Z</time>
      </trkpt>
      <trkpt lat="41.88399830" lon="2.967235120">
        <ele>413.00000</ele>
        <time>2010-01-01T03:39:32Z</time>
      </trkpt>
      <trkpt lat="41.88392690" lon="2.967715990">
        <ele>409.00000</ele>
        <time>2010-01-01T03:39:49Z</time>
      </trkpt>
      <trkpt lat="41.88377250" lon="2.968234250">
        <ele>407.00000</ele>
        <time>2010-01-01T03:40:37Z</time>
      </trkpt>
      <trkpt lat="41.88346860" lon="2.969790350">
        <ele>434.00000</ele>
        <time>2010-01-01T03:40:46Z</time>
      </trkpt>
      <trkpt lat="41.88351220" lon="2.970074750">
        <ele>435.00000</ele>
        <time>2010-01-01T03:41:05Z</time>
      </trkpt>
      <trkpt lat="41.88377950" lon="2.970635490">
        <ele>435.00000</ele>
        <time>2010-01-01T03:41:14Z</time>
      </trkpt>
      <trkpt lat="41.88383490" lon="2.970911760">
        <ele>435.00000</ele>
        <time>2010-01-01T03:41:51Z</time>
      </trkpt>
      <trkpt lat="41.88369660" lon="2.972153790">
        <ele>418.00000</ele>
        <time>2010-01-01T03:41:57Z</time>
      </trkpt>
      <trkpt lat="41.88378400" lon="2.972308940">
        <ele>416.00000</ele>
        <time>2010-01-01T03:42:14Z</time>
      </trkpt>
      <trkpt lat="41.88413390" lon="2.972622090">
        <ele>409.00000</ele>
        <time>2010-01-01T03:42:26Z</time>
      </trkpt>
      <trkpt lat="41.88432140" lon="2.972924760">
        <ele>405.00000</ele>
        <time>2010-01-01T03:42:53Z</time>
      </trkpt>
      <trkpt lat="41.88444020" lon="2.973838720">
        <ele>400.00000</ele>
        <time>2010-01-01T03:43:12Z</time>
      </trkpt>
      <trkpt lat="41.88468120" lon="2.974393270">
        <ele>394.00000</ele>
        <time>2010-01-01T03:43:23Z</time>
      </trkpt>
      <trkpt lat="41.88449330" lon="2.974650510">
        <ele>390.00000</ele>
        <time>2010-01-01T03:43:30Z</time>
      </trkpt>
      <trkpt lat="41.88458640" lon="2.974475080">
        <ele>393.00000</ele>
        <time>2010-01-01T03:43:38Z</time>
      </trkpt>
      <trkpt lat="41.88480040" lon="2.974444400">
        <ele>395.00000</ele>
        <time>2010-01-01T03:43:45Z</time>
      </trkpt>
      <trkpt lat="41.88495990" lon="2.974520760">
        <ele>396.00000</ele>
        <time>2010-01-01T03:43:53Z</time>
      </trkpt>
      <trkpt lat="41.88511200" lon="2.974719330">
        <ele>398.00000</ele>
        <time>2010-01-01T03:44:03Z</time>
      </trkpt>
      <trkpt lat="41.88522020" lon="2.974997940">
        <ele>402.00000</ele>
        <time>2010-01-01T03:44:32Z</time>
      </trkpt>
      <trkpt lat="41.88529400" lon="2.975973430">
        <ele>411.00000</ele>
        <time>2010-01-01T03:44:42Z</time>
      </trkpt>
      <trkpt lat="41.88540260" lon="2.976283390">
        <ele>414.00000</ele>
        <time>2010-01-01T03:45:21Z</time>
      </trkpt>
      <trkpt lat="41.88605760" lon="2.977222660">
        <ele>423.00000</ele>
        <time>2010-01-01T03:45:25Z</time>
      </trkpt>
      <trkpt lat="41.88614620" lon="2.977157790">
        <ele>421.00000</ele>
        <time>2010-01-01T03:45:33Z</time>
      </trkpt>
      <trkpt lat="41.88624580" lon="2.976899960">
        <ele>417.00000</ele>
        <time>2010-01-01T03:45:37Z</time>
      </trkpt>
      <trkpt lat="41.88634670" lon="2.976910270">
        <ele>417.00000</ele>
        <time>2010-01-01T03:46:03Z</time>
      </trkpt>
      <trkpt lat="41.88671510" lon="2.977624070">
        <ele>432.00000</ele>
        <time>2010-01-01T03:46:26Z</time>
      </trkpt>
      <trkpt lat="41.88712360" lon="2.978139980">
        <ele>433.00000</ele>
        <time>2010-01-01T03:46:38Z</time>
      </trkpt>
      <trkpt lat="41.88727660" lon="2.978500990">
        <ele>438.00000</ele>
        <time>2010-01-01T03:47:01Z</time>
      </trkpt>
      <trkpt lat="41.88726310" lon="2.979260050">
        <ele>447.00000</ele>
        <time>2010-01-01T03:47:06Z</time>
      </trkpt>
      <trkpt lat="41.88739290" lon="2.979313610">
        <ele>447.00000</ele>
        <time>2010-01-01T03:47:14Z</time>
      </trkpt>
      <trkpt lat="41.88757120" lon="2.979236250">
        <ele>445.00000</ele>
        <time>2010-01-01T03:47:45Z</time>
      </trkpt>
      <trkpt lat="41.88812590" lon="2.978510710">
        <ele>440.00000</ele>
        <time>2010-01-01T03:47:49Z</time>
      </trkpt>
      <trkpt lat="41.88822830" lon="2.978519600">
        <ele>439.00000</ele>
        <time>2010-01-01T03:47:52Z</time>
      </trkpt>
      <trkpt lat="41.88827290" lon="2.978616490">
        <ele>440.00000</ele>
        <time>2010-01-01T03:47:56Z</time>
      </trkpt>
      <trkpt lat="41.88825380" lon="2.978731910">
        <ele>442.00000</ele>
        <time>2010-01-01T03:48:06Z</time>
      </trkpt>
      <trkpt lat="41.88802620" lon="2.978901730">
        <ele>444.00000</ele>
        <time>2010-01-01T03:48:44Z</time>
      </trkpt>
      <trkpt lat="41.88753540" lon="2.980008140">
        <ele>459.00000</ele>
        <time>2010-01-01T03:48:50Z</time>
      </trkpt>
      <trkpt lat="41.88759020" lon="2.980159520">
        <ele>460.00000</ele>
        <time>2010-01-01T03:49:13Z</time>
      </trkpt>
      <trkpt lat="41.88805280" lon="2.980627140">
        <ele>461.00000</ele>
        <time>2010-01-01T03:49:31Z</time>
      </trkpt>
      <trkpt lat="41.88799260" lon="2.981249580">
        <ele>457.00000</ele>
        <time>2010-01-01T03:49:39Z</time>
      </trkpt>
      <trkpt lat="41.88804460" lon="2.981503300">
        <ele>459.00000</ele>
        <time>2010-01-01T03:49:52Z</time>
      </trkpt>
      <trkpt lat="41.88822690" lon="2.981853000">
        <ele>463.00000</ele>
        <time>2010-01-01T03:50:08Z</time>
      </trkpt>
      <trkpt lat="41.88853800" lon="2.982171170">
        <ele>464.00000</ele>
        <time>2010-01-01T03:50:12Z</time>
      </trkpt>
      <trkpt lat="41.88860320" lon="2.982307210">
        <ele>465.00000</ele>
        <time>2010-01-01T03:50:16Z</time>
      </trkpt>
      <trkpt lat="41.88859010" lon="2.982433610">
        <ele>467.00000</ele>
        <time>2010-01-01T03:50:33Z</time>
      </trkpt>
      <trkpt lat="41.88825360" lon="2.982760250">
        <ele>477.00000</ele>
        <time>2010-01-01T03:50:46Z</time>
      </trkpt>
      <trkpt lat="41.88816310" lon="2.983181110">
        <ele>484.00000</ele>
        <time>2010-01-01T03:51:31Z</time>
      </trkpt>
      <trkpt lat="41.88874860" lon="2.984456580">
        <ele>491.00000</ele>
        <time>2010-01-01T03:51:42Z</time>
      </trkpt>
      <trkpt lat="41.88879890" lon="2.984837290">
        <ele>496.00000</ele>
        <time>2010-01-01T03:52:09Z</time>
      </trkpt>
      <trkpt lat="41.88870290" lon="2.985727200">
        <ele>502.00000</ele>
        <time>2010-01-01T03:52:29Z</time>
      </trkpt>
      <trkpt lat="41.88844430" lon="2.986308060">
        <ele>506.00000</ele>
        <time>2010-01-01T03:52:50Z</time>
      </trkpt>
      <trkpt lat="41.88831650" lon="2.987005270">
        <ele>511.00000</ele>
        <time>2010-01-01T03:53:11Z</time>
      </trkpt>
      <trkpt lat="41.88812210" lon="2.987630640">
        <ele>511.00000</ele>
        <time>2010-01-01T03:53:25Z</time>
      </trkpt>
      <trkpt lat="41.88807570" lon="2.988120650">
        <ele>517.00000</ele>
        <time>2010-01-01T03:53:49Z</time>
      </trkpt>
      <trkpt lat="41.88769080" lon="2.988707460">
        <ele>515.00000</ele>
        <time>2010-01-01T03:54:26Z</time>
      </trkpt>
      <trkpt lat="41.88781980" lon="2.989964000">
        <ele>518.00000</ele>
        <time>2010-01-01T03:55:02Z</time>
      </trkpt>
      <trkpt lat="41.88814390" lon="2.991081470">
        <ele>515.00000</ele>
        <time>2010-01-01T03:55:37Z</time>
      </trkpt>
      <trkpt lat="41.88821320" lon="2.992245380">
        <ele>509.00000</ele>
        <time>2010-01-01T03:55:56Z</time>
      </trkpt>
      <trkpt lat="41.88805060" lon="2.992827840">
        <ele>509.00000</ele>
        <time>2010-01-01T03:56:05Z</time>
      </trkpt>
      <trkpt lat="41.88789530" lon="2.993062030">
        <ele>508.00000</ele>
        <time>2010-01-01T03:56:17Z</time>
      </trkpt>
      <trkpt lat="41.88763360" lon="2.993276100">
        <ele>504.00000</ele>
        <time>2010-01-01T03:56:27Z</time>
      </trkpt>
      <trkpt lat="41.88753080" lon="2.993587740">
        <ele>503.00000</ele>
        <time>2010-01-01T03:57:35Z</time>
      </trkpt>
      <trkpt lat="41.88800640" lon="2.995756980">
        <ele>493.00000</ele>
        <time>2010-01-01T03:58:46Z</time>
      </trkpt>
      <trkpt lat="41.88788350" lon="2.998136350">
        <ele>482.00000</ele>
        <time>2010-01-01T03:58:52Z</time>
      </trkpt>
      <trkpt lat="41.88782590" lon="2.998348410">
        <ele>479.00000</ele>
        <time>2010-01-01T03:59:12Z</time>
      </trkpt>
      <trkpt lat="41.88751040" lon="2.998838420">
        <ele>472.00000</ele>
        <time>2010-01-01T03:59:22Z</time>
      </trkpt>
      <trkpt lat="41.88762630" lon="2.999133460">
        <ele>473.00000</ele>
        <time>2010-01-01T03:59:30Z</time>
      </trkpt>
      <trkpt lat="41.88771610" lon="2.999368910">
        <ele>471.00000</ele>
        <time>2010-01-01T04:01:01Z</time>
      </trkpt>
      <trkpt lat="41.88996590" lon="2.999795300">
        <ele>498.00000</ele>
        <time>2010-01-01T04:01:13Z</time>
      </trkpt>
      <trkpt lat="41.89028200" lon="2.999828570">
        <ele>498.00000</ele>
        <time>2010-01-01T04:01:16Z</time>
      </trkpt>
      <trkpt lat="41.89034580" lon="2.999772670">
        <ele>498.00000</ele>
        <time>2010-01-01T04:02:02Z</time>
      </trkpt>
      <trkpt lat="41.89027150" lon="2.998229060">
        <ele>489.00000</ele>
        <time>2010-01-01T04:02:25Z</time>
      </trkpt>
      <trkpt lat="41.88998910" lon="2.997577780">
        <ele>491.00000</ele>
        <time>2010-01-01T04:02:44Z</time>
      </trkpt>
      <trkpt lat="41.88998300" lon="2.996950230">
        <ele>480.00000</ele>
        <time>2010-01-01T04:03:17Z</time>
      </trkpt>
      <trkpt lat="41.88966490" lon="2.995918580">
        <ele>478.00000</ele>
        <time>2010-01-01T04:04:19Z</time>
      </trkpt>
      <trkpt lat="41.89038410" lon="2.994079510">
        <ele>479.00000</ele>
        <time>2010-01-01T04:04:52Z</time>
      </trkpt>
      <trkpt lat="41.89007630" lon="2.993029170">
        <ele>482.00000</ele>
        <time>2010-01-01T04:04:58Z</time>
      </trkpt>
      <trkpt lat="41.89016920" lon="2.992896820">
        <ele>479.00000</ele>
        <time>2010-01-01T04:05:19Z</time>
      </trkpt>
      <trkpt lat="41.89068120" lon="2.992673530">
        <ele>469.00000</ele>
        <time>2010-01-01T04:05:40Z</time>
      </trkpt>
      <trkpt lat="41.89104590" lon="2.992170530">
        <ele>459.00000</ele>
        <time>2010-01-01T04:05:48Z</time>
      </trkpt>
      <trkpt lat="41.89095490" lon="2.991946060">
        <ele>460.00000</ele>
        <time>2010-01-01T04:06:05Z</time>
      </trkpt>
      <trkpt lat="41.89061540" lon="2.991612050">
        <ele>460.00000</ele>
        <time>2010-01-01T04:06:23Z</time>
      </trkpt>
      <trkpt lat="41.89017790" lon="2.991428730">
        <ele>465.00000</ele>
        <time>2010-01-01T04:06:28Z</time>
      </trkpt>
      <trkpt lat="41.89011520" lon="2.991289010">
        <ele>466.00000</ele>
        <time>2010-01-01T04:06:46Z</time>
      </trkpt>
      <trkpt lat="41.89036970" lon="2.990780900">
        <ele>459.00000</ele>
        <time>2010-01-01T04:07:16Z</time>
      </trkpt>
      <trkpt lat="41.89096150" lon="2.990171030">
        <ele>441.00000</ele>
        <time>2010-01-01T04:07:26Z</time>
      </trkpt>
      <trkpt lat="41.89099760" lon="2.989853190">
        <ele>441.00000</ele>
        <time>2010-01-01T04:07:41Z</time>
      </trkpt>
      <trkpt lat="41.89086460" lon="2.989356220">
        <ele>450.00000</ele>
        <time>2010-01-01T04:07:47Z</time>
      </trkpt>
      <trkpt lat="41.89098620" lon="2.989285650">
        <ele>447.00000</ele>
        <time>2010-01-01T04:08:23Z</time>
      </trkpt>
      <trkpt lat="41.89188730" lon="2.989213730">
        <ele>430.00000</ele>
        <time>2010-01-01T04:08:30Z</time>
      </trkpt>
      <trkpt lat="41.89204750" lon="2.989120940">
        <ele>428.00000</ele>
        <time>2010-01-01T04:08:41Z</time>
      </trkpt>
      <trkpt lat="41.89221270" lon="2.988825650">
        <ele>430.00000</ele>
        <time>2010-01-01T04:08:47Z</time>
      </trkpt>
      <trkpt lat="41.89234150" lon="2.988739990">
        <ele>430.00000</ele>
        <time>2010-01-01T04:08:55Z</time>
      </trkpt>
      <trkpt lat="41.89253900" lon="2.988869990">
        <ele>426.00000</ele>
        <time>2010-01-01T04:09:17Z</time>
      </trkpt>
      <trkpt lat="41.89285880" lon="2.989453370">
        <ele>418.00000</ele>
        <time>2010-01-01T04:09:30Z</time>
      </trkpt>
      <trkpt lat="41.89310810" lon="2.989730980">
        <ele>409.00000</ele>
        <time>2010-01-01T04:09:44Z</time>
      </trkpt>
      <trkpt lat="41.89344950" lon="2.989816810">
        <ele>410.00000</ele>
        <time>2010-01-01T04:10:07Z</time>
      </trkpt>
      <trkpt lat="41.89403540" lon="2.989800970">
        <ele>404.00000</ele>
        <time>2010-01-01T04:10:19Z</time>
      </trkpt>
      <trkpt lat="41.89431780" lon="2.989890240">
        <ele>399.00000</ele>
        <time>2010-01-01T04:10:34Z</time>
      </trkpt>
      <trkpt lat="41.89461110" lon="2.990188210">
        <ele>391.00000</ele>
        <time>2010-01-01T04:11:01Z</time>
      </trkpt>
      <trkpt lat="41.89503840" lon="2.990891120">
        <ele>381.00000</ele>
        <time>2010-01-01T04:11:20Z</time>
      </trkpt>
      <trkpt lat="41.89550800" lon="2.991029080">
        <ele>379.00000</ele>
        <time>2010-01-01T04:11:35Z</time>
      </trkpt>
      <trkpt lat="41.89582000" lon="2.991296630">
        <ele>370.00000</ele>
        <time>2010-01-01T04:11:41Z</time>
      </trkpt>
      <trkpt lat="41.89597390" lon="2.991373750">
        <ele>368.00000</ele>
        <time>2010-01-01T04:11:46Z</time>
      </trkpt>
      <trkpt lat="41.89605580" lon="2.991254140">
        <ele>367.00000</ele>
        <time>2010-01-01T04:12:31Z</time>
      </trkpt>
      <trkpt lat="41.89548400" lon="2.989952600">
        <ele>370.00000</ele>
        <time>2010-01-01T04:12:53Z</time>
      </trkpt>
      <trkpt lat="41.89556970" lon="2.989237870">
        <ele>359.00000</ele>
        <time>2010-01-01T04:13:02Z</time>
      </trkpt>
      <trkpt lat="41.89552310" lon="2.988936370">
        <ele>358.00000</ele>
        <time>2010-01-01T04:13:19Z</time>
      </trkpt>
      <trkpt lat="41.89533190" lon="2.988414520">
        <ele>358.00000</ele>
        <time>2010-01-01T04:13:23Z</time>
      </trkpt>
      <trkpt lat="41.89539880" lon="2.988305220">
        <ele>353.00000</ele>
        <time>2010-01-01T04:13:53Z</time>
      </trkpt>
      <trkpt lat="41.89583940" lon="2.989082220">
        <ele>347.00000</ele>
        <time>2010-01-01T04:14:09Z</time>
      </trkpt>
      <trkpt lat="41.89599120" lon="2.989604080">
        <ele>344.00000</ele>
        <time>2010-01-01T04:14:33Z</time>
      </trkpt>
      <trkpt lat="41.89637730" lon="2.990196590">
        <ele>337.00000</ele>
        <time>2010-01-01T04:14:56Z</time>
      </trkpt>
      <trkpt lat="41.89686710" lon="2.990643100">
        <ele>329.00000</ele>
        <time>2010-01-01T04:15:17Z</time>
      </trkpt>
      <trkpt lat="41.89734500" lon="2.990895980">
        <ele>321.00000</ele>
        <time>2010-01-01T04:15:26Z</time>
      </trkpt>
      <trkpt lat="41.89752510" lon="2.991077950">
        <ele>320.00000</ele>
        <time>2010-01-01T04:15:45Z</time>
      </trkpt>
      <trkpt lat="41.89761690" lon="2.991704750">
        <ele>326.00000</ele>
        <time>2010-01-01T04:15:51Z</time>
      </trkpt>
      <trkpt lat="41.89774540" lon="2.991796030">
        <ele>322.00000</ele>
        <time>2010-01-01T04:16:17Z</time>
      </trkpt>
      <trkpt lat="41.89839040" lon="2.991872720">
        <ele>304.00000</ele>
        <time>2010-01-01T04:16:23Z</time>
      </trkpt>
      <trkpt lat="41.89853330" lon="2.991991490">
        <ele>302.00000</ele>
        <time>2010-01-01T04:16:33Z</time>
      </trkpt>
      <trkpt lat="41.89867690" lon="2.992252090">
        <ele>300.00000</ele>
        <time>2010-01-01T04:16:50Z</time>
      </trkpt>
      <trkpt lat="41.89903740" lon="2.992514610">
        <ele>293.00000</ele>
        <time>2010-01-01T04:16:58Z</time>
      </trkpt>
      <trkpt lat="41.89923780" lon="2.992490220">
        <ele>292.00000</ele>
        <time>2010-01-01T04:17:04Z</time>
      </trkpt>
      <trkpt lat="41.89936510" lon="2.992389130">
        <ele>290.00000</ele>
        <time>2010-01-01T04:17:06Z</time>
      </trkpt>
      <trkpt lat="41.89938230" lon="2.992300950">
        <ele>289.00000</ele>
        <time>2010-01-01T04:17:16Z</time>
      </trkpt>
      <trkpt lat="41.89960220" lon="2.992182020">
        <ele>287.00000</ele>
        <time>2010-01-01T04:17:30Z</time>
      </trkpt>
      <trkpt lat="41.89995840" lon="2.992117140">
        <ele>286.00000</ele>
        <time>2010-01-01T04:17:46Z</time>
      </trkpt>
      <trkpt lat="41.90034060" lon="2.991942460">
        <ele>286.00000</ele>
        <time>2010-01-01T04:18:01Z</time>
      </trkpt>
      <trkpt lat="41.90070350" lon="2.991923520">
        <ele>286.00000</ele>
        <time>2010-01-01T04:18:26Z</time>
      </trkpt>
      <trkpt lat="41.90126890" lon="2.992276810">
        <ele>284.00000</ele>
        <time>2010-01-01T04:18:46Z</time>
      </trkpt>
      <trkpt lat="41.90176060" lon="2.992418220">
        <ele>286.00000</ele>
        <time>2010-01-01T04:19:06Z</time>
      </trkpt>
      <trkpt lat="41.90216240" lon="2.992809990">
        <ele>282.00000</ele>
        <time>2010-01-01T04:19:26Z</time>
      </trkpt>
      <trkpt lat="41.90262010" lon="2.993052730">
        <ele>286.00000</ele>
        <time>2010-01-01T04:19:41Z</time>
      </trkpt>
      <trkpt lat="41.90290220" lon="2.993401410">
        <ele>276.00000</ele>
        <time>2010-01-01T04:19:58Z</time>
      </trkpt>
      <trkpt lat="41.90332750" lon="2.993402170">
        <ele>274.00000</ele>
        <time>2010-01-01T04:20:12Z</time>
      </trkpt>
      <trkpt lat="41.90366920" lon="2.993490260">
        <ele>267.00000</ele>
        <time>2010-01-01T04:20:52Z</time>
      </trkpt>
      <trkpt lat="41.90466520" lon="2.993444250">
        <ele>254.00000</ele>
        <time>2010-01-01T04:21:07Z</time>
      </trkpt>
      <trkpt lat="41.90505650" lon="2.993508540">
        <ele>249.00000</ele>
        <time>2010-01-01T04:21:18Z</time>
      </trkpt>
      <trkpt lat="41.90531820" lon="2.993605680">
        <ele>245.00000</ele>
        <time>2010-01-01T04:21:52Z</time>
      </trkpt>
      <trkpt lat="41.90609140" lon="2.994073640">
        <ele>237.00000</ele>
        <time>2010-01-01T04:22:07Z</time>
      </trkpt>
      <trkpt lat="41.90644060" lon="2.994188060">
        <ele>236.00000</ele>
        <time>2010-01-01T04:22:23Z</time>
      </trkpt>
      <trkpt lat="41.90683750" lon="2.994187300">
        <ele>234.00000</ele>
        <time>2010-01-01T04:22:43Z</time>
      </trkpt>
      <trkpt lat="41.90731190" lon="2.993977920">
        <ele>228.00000</ele>
        <time>2010-01-01T04:23:05Z</time>
      </trkpt>
      <trkpt lat="41.90786710" lon="2.993913630">
        <ele>225.00000</ele>
        <time>2010-01-01T04:23:13Z</time>
      </trkpt>
      <trkpt lat="41.90804380" lon="2.993750770">
        <ele>224.00000</ele>
        <time>2010-01-01T04:23:32Z</time>
      </trkpt>
      <trkpt lat="41.90832370" lon="2.993255820">
        <ele>219.00000</ele>
        <time>2010-01-01T04:23:44Z</time>
      </trkpt>
      <trkpt lat="41.90861480" lon="2.993133440">
        <ele>219.00000</ele>
        <time>2010-01-01T04:23:59Z</time>
      </trkpt>
      <trkpt lat="41.90898140" lon="2.993190110">
        <ele>220.00000</ele>
        <time>2010-01-01T04:24:23Z</time>
      </trkpt>
      <trkpt lat="41.90954990" lon="2.993489840">
        <ele>214.00000</ele>
        <time>2010-01-01T04:24:49Z</time>
      </trkpt>
      <trkpt lat="41.91019990" lon="2.993491350">
        <ele>207.00000</ele>
        <time>2010-01-01T04:25:03Z</time>
      </trkpt>
      <trkpt lat="41.91044240" lon="2.993795450">
        <ele>202.00000</ele>
        <time>2010-01-01T04:25:28Z</time>
      </trkpt>
      <trkpt lat="41.91108030" lon="2.993917320">
        <ele>185.00000</ele>
        <time>2010-01-01T04:25:54Z</time>
      </trkpt>
      <trkpt lat="41.91146750" lon="2.993247020">
        <ele>176.00000</ele>
        <time>2010-01-01T04:26:15Z</time>
      </trkpt>
      <trkpt lat="41.91155010" lon="2.992526430">
        <ele>167.00000</ele>
        <time>2010-01-01T04:26:21Z</time>
      </trkpt>
      <trkpt lat="41.91165780" lon="2.992401120">
        <ele>164.00000</ele>
        <time>2010-01-01T04:26:28Z</time>
      </trkpt>
      <trkpt lat="41.91182560" lon="2.992396340">
        <ele>162.00000</ele>
        <time>2010-01-01T04:26:56Z</time>
      </trkpt>
      <trkpt lat="41.91246150" lon="2.992808060">
        <ele>156.00000</ele>
        <time>2010-01-01T04:27:02Z</time>
      </trkpt>
      <trkpt lat="41.91255020" lon="2.992984000">
        <ele>153.00000</ele>
        <time>2010-01-01T04:27:31Z</time>
      </trkpt>
      <trkpt lat="41.91232100" lon="2.993901560">
        <ele>147.00000</ele>
        <time>2010-01-01T04:27:51Z</time>
      </trkpt>
      <trkpt lat="41.91238740" lon="2.994560040">
        <ele>139.00000</ele>
        <time>2010-01-01T04:28:08Z</time>
      </trkpt>
      <trkpt lat="41.91257680" lon="2.995050890">
        <ele>132.00000</ele>
        <time>2010-01-01T04:28:21Z</time>
      </trkpt>
      <trkpt lat="41.91282290" lon="2.995358000">
        <ele>130.00000</ele>
        <time>2010-01-01T04:28:42Z</time>
      </trkpt>
      <trkpt lat="41.91332810" lon="2.995580960">
        <ele>128.00000</ele>
        <time>2010-01-01T04:28:47Z</time>
      </trkpt>
      <trkpt lat="41.91341890" lon="2.995673330">
        <ele>128.00000</ele>
        <time>2010-01-01T04:28:52Z</time>
      </trkpt>
      <trkpt lat="41.91349190" lon="2.995527900">
        <ele>127.00000</ele>
        <time>2010-01-01T04:29:00Z</time>
      </trkpt>
      <trkpt lat="41.91348590" lon="2.995246020">
        <ele>129.00000</ele>
        <time>2010-01-01T04:29:16Z</time>
      </trkpt>
      <trkpt lat="41.91315170" lon="2.995007720">
        <ele>130.00000</ele>
        <time>2010-01-01T04:29:23Z</time>
      </trkpt>
      <trkpt lat="41.91304690" lon="2.994799600">
        <ele>132.00000</ele>
        <time>2010-01-01T04:29:37Z</time>
      </trkpt>
      <trkpt lat="41.91310240" lon="2.994348320">
        <ele>135.00000</ele>
        <time>2010-01-01T04:29:52Z</time>
      </trkpt>
      <trkpt lat="41.91329240" lon="2.993901810">
        <ele>136.00000</ele>
        <time>2010-01-01T04:30:16Z</time>
      </trkpt>
      <trkpt lat="41.91375260" lon="2.993386490">
        <ele>143.00000</ele>
        <time>2010-01-01T04:30:47Z</time>
      </trkpt>
      <trkpt lat="41.91428110" lon="2.992643690">
        <ele>155.00000</ele>
        <time>2010-01-01T04:30:57Z</time>
      </trkpt>
      <trkpt lat="41.91451900" lon="2.992495830">
        <ele>158.00000</ele>
        <time>2010-01-01T04:31:17Z</time>
      </trkpt>
      <trkpt lat="41.91498890" lon="2.992334570">
        <ele>167.00000</ele>
        <time>2010-01-01T04:31:39Z</time>
      </trkpt>
      <trkpt lat="41.91542450" lon="2.991884460">
        <ele>175.00000</ele>
        <time>2010-01-01T04:31:51Z</time>
      </trkpt>
      <trkpt lat="41.91574260" lon="2.991828050">
        <ele>183.00000</ele>
        <time>2010-01-01T04:32:05Z</time>
      </trkpt>
      <trkpt lat="41.91599120" lon="2.991528480">
        <ele>189.00000</ele>
        <time>2010-01-01T04:32:14Z</time>
      </trkpt>
      <trkpt lat="41.91611960" lon="2.991256740">
        <ele>190.00000</ele>
        <time>2010-01-01T04:32:37Z</time>
      </trkpt>
      <trkpt lat="41.91623110" lon="2.990522730">
        <ele>195.00000</ele>
        <time>2010-01-01T04:32:42Z</time>
      </trkpt>
      <trkpt lat="41.91619130" lon="2.990345120">
        <ele>197.00000</ele>
        <time>2010-01-01T04:32:45Z</time>
      </trkpt>
      <trkpt lat="41.91612280" lon="2.990288460">
        <ele>196.00000</ele>
        <time>2010-01-01T04:32:50Z</time>
      </trkpt>
      <trkpt lat="41.91599700" lon="2.990305560">
        <ele>197.00000</ele>
        <time>2010-01-01T04:33:05Z</time>
      </trkpt>
      <trkpt lat="41.91579960" lon="2.990712750">
        <ele>196.00000</ele>
        <time>2010-01-01T04:33:13Z</time>
      </trkpt>
      <trkpt lat="41.91561810" lon="2.990846190">
        <ele>199.00000</ele>
        <time>2010-01-01T04:33:40Z</time>
      </trkpt>
      <trkpt lat="41.91495910" lon="2.990947110">
        <ele>201.00000</ele>
        <time>2010-01-01T04:33:46Z</time>
      </trkpt>
      <trkpt lat="41.91480900" lon="2.990907630">
        <ele>201.00000</ele>
        <time>2010-01-01T04:33:49Z</time>
      </trkpt>
      <trkpt lat="41.91482210" lon="2.990819370">
        <ele>205.00000</ele>
        <time>2010-01-01T04:34:12Z</time>
      </trkpt>
      <trkpt lat="41.91534220" lon="2.990464650">
        <ele>212.00000</ele>
        <time>2010-01-01T04:34:39Z</time>
      </trkpt>
      <trkpt lat="41.91554800" lon="2.989600720">
        <ele>221.00000</ele>
        <time>2010-01-01T04:34:46Z</time>
      </trkpt>
      <trkpt lat="41.91569030" lon="2.989485810">
        <ele>221.00000</ele>
        <time>2010-01-01T04:35:03Z</time>
      </trkpt>
      <trkpt lat="41.91611770" lon="2.989483460">
        <ele>218.00000</ele>
        <time>2010-01-01T04:35:14Z</time>
      </trkpt>
      <trkpt lat="41.91640390" lon="2.989411800">
        <ele>221.00000</ele>
        <time>2010-01-01T04:35:55Z</time>
      </trkpt>
      <trkpt lat="41.91736030" lon="2.988911650">
        <ele>221.00000</ele>
        <time>2010-01-01T04:36:15Z</time>
      </trkpt>
      <trkpt lat="41.91784570" lon="2.988848450">
        <ele>220.00000</ele>
        <time>2010-01-01T04:36:25Z</time>
      </trkpt>
      <trkpt lat="41.91807510" lon="2.988747360">
        <ele>219.00000</ele>
        <time>2010-01-01T04:36:55Z</time>
      </trkpt>
      <trkpt lat="41.91870060" lon="2.988197510">
        <ele>220.00000</ele>
        <time>2010-01-01T04:37:14Z</time>
      </trkpt>
      <trkpt lat="41.91917360" lon="2.988067170">
        <ele>223.00000</ele>
        <time>2010-01-01T04:37:31Z</time>
      </trkpt>
      <trkpt lat="41.91939800" lon="2.987580850">
        <ele>221.00000</ele>
        <time>2010-01-01T04:37:46Z</time>
      </trkpt>
      <trkpt lat="41.91974370" lon="2.987414050">
        <ele>224.00000</ele>
        <time>2010-01-01T04:38:17Z</time>
      </trkpt>
      <trkpt lat="41.92043170" lon="2.986939810">
        <ele>231.00000</ele>
        <time>2010-01-01T04:38:21Z</time>
      </trkpt>
      <trkpt lat="41.92053680" lon="2.987000990">
        <ele>232.00000</ele>
        <time>2010-01-01T04:38:38Z</time>
      </trkpt>
      <trkpt lat="41.92079610" lon="2.987441550">
        <ele>228.00000</ele>
        <time>2010-01-01T04:38:45Z</time>
      </trkpt>
      <trkpt lat="41.92096110" lon="2.987541290">
        <ele>225.00000</ele>
        <time>2010-01-01T04:39:09Z</time>
      </trkpt>
      <trkpt lat="41.92155050" lon="2.987450600">
        <ele>221.00000</ele>
        <time>2010-01-01T04:40:08Z</time>
      </trkpt>
      <trkpt lat="41.92302340" lon="2.987525620">
        <ele>220.00000</ele>
        <time>2010-01-01T04:40:25Z</time>
      </trkpt>
      <trkpt lat="41.92345320" lon="2.987461830">
        <ele>216.00000</ele>
        <time>2010-01-01T04:40:42Z</time>
      </trkpt>
      <trkpt lat="41.92385480" lon="2.987315400">
        <ele>217.00000</ele>
        <time>2010-01-01T04:40:57Z</time>
      </trkpt>
      <trkpt lat="41.92418040" lon="2.987551680">
        <ele>218.00000</ele>
        <time>2010-01-01T04:41:28Z</time>
      </trkpt>
      <trkpt lat="41.92493770" lon="2.987867010">
        <ele>206.00000</ele>
        <time>2010-01-01T04:42:03Z</time>
      </trkpt>
      <trkpt lat="41.92580080" lon="2.988029870">
        <ele>206.00000</ele>
        <time>2010-01-01T04:42:26Z</time>
      </trkpt>
      <trkpt lat="41.92636750" lon="2.988071110">
        <ele>209.00000</ele>
        <time>2010-01-01T04:42:53Z</time>
      </trkpt>
      <trkpt lat="41.92700190" lon="2.988352240">
        <ele>207.00000</ele>
        <time>2010-01-01T04:43:27Z</time>
      </trkpt>
      <trkpt lat="41.92785340" lon="2.988445610">
        <ele>202.00000</ele>
        <time>2010-01-01T04:43:37Z</time>
      </trkpt>
      <trkpt lat="41.92808580" lon="2.988602610">
        <ele>201.00000</ele>
        <time>2010-01-01T04:44:00Z</time>
      </trkpt>
      <trkpt lat="41.92850290" lon="2.989101920">
        <ele>196.00000</ele>
        <time>2010-01-01T04:44:23Z</time>
      </trkpt>
      <trkpt lat="41.92883330" lon="2.989761490">
        <ele>189.00000</ele>
        <time>2010-01-01T04:44:46Z</time>
      </trkpt>
      <trkpt lat="41.92933830" lon="2.990114950">
        <ele>182.00000</ele>
        <time>2010-01-01T04:45:02Z</time>
      </trkpt>
      <trkpt lat="41.92972400" lon="2.990200200">
        <ele>178.00000</ele>
        <time>2010-01-01T04:45:12Z</time>
      </trkpt>
      <trkpt lat="41.92992150" lon="2.990407400">
        <ele>173.00000</ele>
        <time>2010-01-01T04:45:18Z</time>
      </trkpt>
      <trkpt lat="41.92992000" lon="2.990628510">
        <ele>173.00000</ele>
        <time>2010-01-01T04:45:43Z</time>
      </trkpt>
      <trkpt lat="41.92931290" lon="2.990777790">
        <ele>175.00000</ele>
        <time>2010-01-01T04:45:53Z</time>
      </trkpt>
      <trkpt lat="41.92918660" lon="2.991057670">
        <ele>171.00000</ele>
        <time>2010-01-01T04:46:05Z</time>
      </trkpt>
      <trkpt lat="41.92922250" lon="2.991477010">
        <ele>169.00000</ele>
        <time>2010-01-01T04:46:51Z</time>
      </trkpt>
      <trkpt lat="41.92970650" lon="2.992864800">
        <ele>167.00000</ele>
        <time>2010-01-01T04:47:00Z</time>
      </trkpt>
      <trkpt lat="41.92969000" lon="2.993152050">
        <ele>166.00000</ele>
        <time>2010-01-01T04:47:13Z</time>
      </trkpt>
      <trkpt lat="41.92957310" lon="2.993569890">
        <ele>161.00000</ele>
        <time>2010-01-01T04:47:21Z</time>
      </trkpt>
      <trkpt lat="41.92958540" lon="2.993829390">
        <ele>158.00000</ele>
        <time>2010-01-01T04:47:31Z</time>
      </trkpt>
      <trkpt lat="41.92975930" lon="2.994083370">
        <ele>158.00000</ele>
        <time>2010-01-01T04:47:56Z</time>
      </trkpt>
      <trkpt lat="41.93037700" lon="2.994274390">
        <ele>154.00000</ele>
        <time>2010-01-01T04:48:11Z</time>
      </trkpt>
      <trkpt lat="41.93072340" lon="2.994472620">
        <ele>150.00000</ele>
        <time>2010-01-01T04:48:19Z</time>
      </trkpt>
      <trkpt lat="41.93086690" lon="2.994622070">
        <ele>150.00000</ele>
        <time>2010-01-01T04:48:23Z</time>
      </trkpt>
      <trkpt lat="41.93089780" lon="2.994750650">
        <ele>148.00000</ele>
        <time>2010-01-01T04:48:57Z</time>
      </trkpt>
      <trkpt lat="41.93075960" lon="2.995888410">
        <ele>147.00000</ele>
        <time>2010-01-01T04:49:11Z</time>
      </trkpt>
      <trkpt lat="41.93077900" lon="2.996368440">
        <ele>146.00000</ele>
        <time>2010-01-01T04:49:30Z</time>
      </trkpt>
      <trkpt lat="41.93093800" lon="2.996972020">
        <ele>144.00000</ele>
        <time>2010-01-01T04:49:45Z</time>
      </trkpt>
      <trkpt lat="41.93098970" lon="2.997439230">
        <ele>140.00000</ele>
        <time>2010-01-01T04:50:00Z</time>
      </trkpt>
      <trkpt lat="41.93113940" lon="2.997922360">
        <ele>135.00000</ele>
        <time>2010-01-01T04:50:23Z</time>
      </trkpt>
      <trkpt lat="41.93141710" lon="2.998575480">
        <ele>129.00000</ele>
        <time>2010-01-01T04:50:41Z</time>
      </trkpt>
      <trkpt lat="41.93177290" lon="2.998971190">
        <ele>124.00000</ele>
        <time>2010-01-01T04:50:50Z</time>
      </trkpt>
      <trkpt lat="41.93189850" lon="2.999211000">
        <ele>122.00000</ele>
        <time>2010-01-01T04:51:16Z</time>
      </trkpt>
      <trkpt lat="41.93187400" lon="3.000083720">
        <ele>116.00000</ele>
        <time>2010-01-01T04:51:49Z</time>
      </trkpt>
      <trkpt lat="41.93223500" lon="3.001077650">
        <ele>109.00000</ele>
        <time>2010-01-01T04:52:07Z</time>
      </trkpt>
      <trkpt lat="41.93247750" lon="3.001615600">
        <ele>109.00000</ele>
        <time>2010-01-01T04:52:51Z</time>
      </trkpt>
      <trkpt lat="41.93314460" lon="3.002777660">
        <ele>104.00000</ele>
        <time>2010-01-01T04:53:14Z</time>
      </trkpt>
      <trkpt lat="41.93337740" lon="3.003480320">
        <ele>94.000000</ele>
        <time>2010-01-01T04:53:29Z</time>
      </trkpt>
      <trkpt lat="41.93364400" lon="3.003851550">
        <ele>92.000000</ele>
        <time>2010-01-01T04:53:48Z</time>
      </trkpt>
      <trkpt lat="41.93401670" lon="3.004213230">
        <ele>91.000000</ele>
        <time>2010-01-01T04:54:22Z</time>
      </trkpt>
      <trkpt lat="41.93433100" lon="3.005277570">
        <ele>82.000000</ele>
        <time>2010-01-01T04:54:31Z</time>
      </trkpt>
      <trkpt lat="41.93445690" lon="3.005536310">
        <ele>82.000000</ele>
        <time>2010-01-01T04:55:13Z</time>
      </trkpt>
      <trkpt lat="41.93532860" lon="3.006305270">
        <ele>79.000000</ele>
        <time>2010-01-01T04:55:44Z</time>
      </trkpt>
      <trkpt lat="41.93607760" lon="3.006618750">
        <ele>77.000000</ele>
        <time>2010-01-01T04:56:05Z</time>
      </trkpt>
      <trkpt lat="41.93653100" lon="3.006970880">
        <ele>74.000000</ele>
        <time>2010-01-01T04:56:48Z</time>
      </trkpt>
      <trkpt lat="41.93738150" lon="3.007844610">
        <ele>73.000000</ele>
        <time>2010-01-01T04:57:48Z</time>
      </trkpt>
      <trkpt lat="41.93869010" lon="3.008833080">
        <ele>70.000000</ele>
        <time>2010-01-01T04:58:07Z</time>
      </trkpt>
      <trkpt lat="41.93915080" lon="3.008946320">
        <ele>67.000000</ele>
        <time>2010-01-01T04:58:28Z</time>
      </trkpt>
      <trkpt lat="41.93967260" lon="3.008976670">
        <ele>62.000000</ele>
        <time>2010-01-01T05:00:17Z</time>
      </trkpt>
      <trkpt lat="41.94237550" lon="3.009422420">
        <ele>51.000000</ele>
        <time>2010-01-01T05:00:33Z</time>
      </trkpt>
      <trkpt lat="41.94278030" lon="3.009371870">
        <ele>50.000000</ele>
        <time>2010-01-01T05:00:38Z</time>
      </trkpt>
      <trkpt lat="41.94282790" lon="3.009540520">
        <ele>50.000000</ele>
        <time>2010-01-01T05:00:51Z</time>
      </trkpt>
      <trkpt lat="41.94265000" lon="3.009868840">
        <ele>52.000000</ele>
        <time>2010-01-01T05:01:16Z</time>
      </trkpt>
      <trkpt lat="41.94302410" lon="3.010559090">
        <ele>50.000000</ele>
        <time>2010-01-01T05:01:36Z</time>
      </trkpt>
      <trkpt lat="41.94345170" lon="3.010879190">
        <ele>50.000000</ele>
        <time>2010-01-01T05:02:03Z</time>
      </trkpt>
      <trkpt lat="41.94379330" lon="3.011664990">
        <ele>50.000000</ele>
        <time>2010-01-01T05:02:24Z</time>
      </trkpt>
      <trkpt lat="41.94418760" lon="3.012148630">
        <ele>51.000000</ele>
        <time>2010-01-01T05:02:58Z</time>
      </trkpt>
      <trkpt lat="41.94496020" lon="3.012646010">
        <ele>52.000000</ele>
        <time>2010-01-01T05:03:11Z</time>
      </trkpt>
      <trkpt lat="41.94515340" lon="3.012975000">
        <ele>50.000000</ele>
        <time>2010-01-01T05:03:26Z</time>
      </trkpt>
      <trkpt lat="41.94550120" lon="3.013156140">
        <ele>47.000000</ele>
        <time>2010-01-01T05:03:54Z</time>
      </trkpt>
      <trkpt lat="41.94591380" lon="3.013937750">
        <ele>46.000000</ele>
        <time>2010-01-01T05:04:19Z</time>
      </trkpt>
      <trkpt lat="41.94639080" lon="3.014471090">
        <ele>45.000000</ele>
        <time>2010-01-01T05:04:33Z</time>
      </trkpt>
      <trkpt lat="41.94660320" lon="3.014847600">
        <ele>44.000000</ele>
        <time>2010-01-01T05:04:49Z</time>
      </trkpt>
      <trkpt lat="41.94689520" lon="3.015203250">
        <ele>44.000000</ele>
        <time>2010-01-01T05:05:09Z</time>
      </trkpt>
      <trkpt lat="41.94718270" lon="3.015770950">
        <ele>46.000000</ele>
        <time>2010-01-01T05:05:53Z</time>
      </trkpt>
      <trkpt lat="41.94811900" lon="3.016531530">
        <ele>42.000000</ele>
        <time>2010-01-01T05:06:28Z</time>
      </trkpt>
      <trkpt lat="41.94893500" lon="3.016909380">
        <ele>40.000000</ele>
        <time>2010-01-01T05:06:56Z</time>
      </trkpt>
      <trkpt lat="41.94936690" lon="3.017679930">
        <ele>46.000000</ele>
        <time>2010-01-01T05:07:15Z</time>
      </trkpt>
      <trkpt lat="41.94954850" lon="3.018257610">
        <ele>44.000000</ele>
        <time>2010-01-01T05:08:20Z</time>
      </trkpt>
      <trkpt lat="41.94811220" lon="3.019255390">
        <ele>45.000000</ele>
        <time>2010-01-01T05:09:12Z</time>
      </trkpt>
      <trkpt lat="41.94704290" lon="3.020263910">
        <ele>48.000000</ele>
        <time>2010-01-01T05:09:55Z</time>
      </trkpt>
      <trkpt lat="41.94599760" lon="3.020639410">
        <ele>50.000000</ele>
        <time>2010-01-01T05:10:38Z</time>
      </trkpt>
      <trkpt lat="41.94495220" lon="3.020800350">
        <ele>50.000000</ele>
        <time>2010-01-01T05:10:57Z</time>
      </trkpt>
      <trkpt lat="41.94448940" lon="3.021004190">
        <ele>49.000000</ele>
        <time>2010-01-01T05:11:37Z</time>
      </trkpt>
      <trkpt lat="41.94473670" lon="3.022302380">
        <ele>47.000000</ele>
        <time>2010-01-01T05:11:57Z</time>
      </trkpt>
      <trkpt lat="41.94500010" lon="3.022871010">
        <ele>46.000000</ele>
        <time>2010-01-01T05:12:35Z</time>
      </trkpt>
      <trkpt lat="41.94497610" lon="3.024158470">
        <ele>42.000000</ele>
        <time>2010-01-01T05:13:09Z</time>
      </trkpt>
      <trkpt lat="41.94416220" lon="3.024491070">
        <ele>40.000000</ele>
        <time>2010-01-01T05:13:49Z</time>
      </trkpt>
      <trkpt lat="41.94330830" lon="3.025166980">
        <ele>44.000000</ele>
        <time>2010-01-01T05:14:21Z</time>
      </trkpt>
      <trkpt lat="41.94252620" lon="3.024877300">
        <ele>45.000000</ele>
        <time>2010-01-01T05:14:34Z</time>
      </trkpt>
      <trkpt lat="41.94243050" lon="3.025295730">
        <ele>45.000000</ele>
        <time>2010-01-01T05:14:57Z</time>
      </trkpt>
      <trkpt lat="41.94193570" lon="3.025681970">
        <ele>46.000000</ele>
        <time>2010-01-01T05:15:33Z</time>
      </trkpt>
      <trkpt lat="41.94273370" lon="3.026218410">
        <ele>45.000000</ele>
        <time>2010-01-01T05:16:12Z</time>
      </trkpt>
      <trkpt lat="41.94263800" lon="3.027505870">
        <ele>46.000000</ele>
        <time>2010-01-01T05:17:19Z</time>
      </trkpt>
      <trkpt lat="41.94420210" lon="3.028374910">
        <ele>46.000000</ele>
        <time>2010-01-01T05:17:52Z</time>
      </trkpt>
      <trkpt lat="41.94399460" lon="3.029437060">
        <ele>48.000000</ele>
        <time>2010-01-01T05:18:42Z</time>
      </trkpt>
      <trkpt lat="41.94410630" lon="3.031121490">
        <ele>52.000000</ele>
        <time>2010-01-01T05:19:01Z</time>
      </trkpt>
      <trkpt lat="41.94426590" lon="3.031711570">
        <ele>52.000000</ele>
        <time>2010-01-01T05:20:01Z</time>
      </trkpt>
      <trkpt lat="41.94572620" lon="3.032162180">
        <ele>51.000000</ele>
        <time>2010-01-01T05:20:45Z</time>
      </trkpt>
      <trkpt lat="41.94681150" lon="3.032280200">
        <ele>50.000000</ele>
        <time>2010-01-01T05:21:08Z</time>
      </trkpt>
      <trkpt lat="41.94733020" lon="3.032612800">
        <ele>51.000000</ele>
        <time>2010-01-01T05:22:18Z</time>
      </trkpt>
      <trkpt lat="41.94886230" lon="3.033771510">
        <ele>52.000000</ele>
        <time>2010-01-01T05:22:37Z</time>
      </trkpt>
      <trkpt lat="41.94908570" lon="3.034329410">
        <ele>55.000000</ele>
        <time>2010-01-01T05:22:55Z</time>
      </trkpt>
      <trkpt lat="41.94879840" lon="3.034780020">
        <ele>59.000000</ele>
        <time>2010-01-01T05:23:21Z</time>
      </trkpt>
      <trkpt lat="41.94831170" lon="3.035391560">
        <ele>57.000000</ele>
        <time>2010-01-01T05:23:56Z</time>
      </trkpt>
      <trkpt lat="41.94745790" lon="3.035531040">
        <ele>54.000000</ele>
        <time>2010-01-01T05:24:46Z</time>
      </trkpt>
      <trkpt lat="41.94785680" lon="3.037140360">
        <ele>56.000000</ele>
        <time>2010-01-01T05:25:38Z</time>
      </trkpt>
      <trkpt lat="41.94815210" lon="3.038835520">
        <ele>55.000000</ele>
        <time>2010-01-01T05:26:19Z</time>
      </trkpt>
      <trkpt lat="41.94861490" lon="3.040080070">
        <ele>54.000000</ele>
        <time>2010-01-01T05:27:39Z</time>
      </trkpt>
      <trkpt lat="41.94863090" lon="3.042751550">
        <ele>53.000000</ele>
        <time>2010-01-01T05:29:11Z</time>
      </trkpt>
      <trkpt lat="41.94886230" lon="3.045830720">
        <ele>57.000000</ele>
        <time>2010-01-01T05:30:08Z</time>
      </trkpt>
      <trkpt lat="41.94983580" lon="3.047214740">
        <ele>61.000000</ele>
        <time>2010-01-01T05:30:29Z</time>
      </trkpt>
      <trkpt lat="41.94983580" lon="3.047933570">
        <ele>63.000000</ele>
        <time>2010-01-01T05:30:52Z</time>
      </trkpt>
      <trkpt lat="41.95001130" lon="3.048663130">
        <ele>65.000000</ele>
        <time>2010-01-01T05:31:35Z</time>
      </trkpt>
      <trkpt lat="41.95108850" lon="3.048620220">
        <ele>63.000000</ele>
        <time>2010-01-01T05:32:04Z</time>
      </trkpt>
      <trkpt lat="41.95081720" lon="3.049499980">
        <ele>67.000000</ele>
        <time>2010-01-01T05:32:50Z</time>
      </trkpt>
      <trkpt lat="41.95062570" lon="3.051023480">
        <ele>65.000000</ele>
        <time>2010-01-01T05:34:10Z</time>
      </trkpt>
      <trkpt lat="41.95069750" lon="3.053737870">
        <ele>65.000000</ele>
        <time>2010-01-01T05:34:52Z</time>
      </trkpt>
      <trkpt lat="41.95027460" lon="3.055014610">
        <ele>65.000000</ele>
        <time>2010-01-01T05:35:13Z</time>
      </trkpt>
      <trkpt lat="41.95018680" lon="3.055722710">
        <ele>66.000000</ele>
        <time>2010-01-01T05:35:40Z</time>
      </trkpt>
      <trkpt lat="41.95027860" lon="3.056607840">
        <ele>65.000000</ele>
        <time>2010-01-01T05:35:57Z</time>
      </trkpt>
      <trkpt lat="41.95039430" lon="3.057149640">
        <ele>68.000000</ele>
        <time>2010-01-01T05:36:08Z</time>
      </trkpt>
      <trkpt lat="41.95015490" lon="3.057364220">
        <ele>71.000000</ele>
        <time>2010-01-01T05:36:30Z</time>
      </trkpt>
      <trkpt lat="41.94980380" lon="3.057922120">
        <ele>76.000000</ele>
        <time>2010-01-01T05:36:51Z</time>
      </trkpt>
      <trkpt lat="41.94962030" lon="3.058576580">
        <ele>77.000000</ele>
        <time>2010-01-01T05:37:15Z</time>
      </trkpt>
      <trkpt lat="41.94903780" lon="3.058834070">
        <ele>75.000000</ele>
        <time>2010-01-01T05:38:01Z</time>
      </trkpt>
      <trkpt lat="41.94878250" lon="3.060314650">
        <ele>72.000000</ele>
        <time>2010-01-01T05:38:52Z</time>
      </trkpt>
      <trkpt lat="41.94826380" lon="3.061881060">
        <ele>74.000000</ele>
        <time>2010-01-01T05:39:28Z</time>
      </trkpt>
      <trkpt lat="41.94902980" lon="3.062535520">
        <ele>66.000000</ele>
        <time>2010-01-01T05:40:28Z</time>
      </trkpt>
      <trkpt lat="41.95053790" lon="3.062524790">
        <ele>64.000000</ele>
        <time>2010-01-01T05:41:10Z</time>
      </trkpt>
      <trkpt lat="41.95158320" lon="3.062428230">
        <ele>62.000000</ele>
        <time>2010-01-01T05:41:34Z</time>
      </trkpt>
      <trkpt lat="41.95214170" lon="3.062224380">
        <ele>60.000000</ele>
        <time>2010-01-01T05:42:35Z</time>
      </trkpt>
      <trkpt lat="41.95230930" lon="3.064262860">
        <ele>60.000000</ele>
        <time>2010-01-01T05:43:38Z</time>
      </trkpt>
      <trkpt lat="41.95208590" lon="3.066387170">
        <ele>60.000000</ele>
        <time>2010-01-01T05:45:21Z</time>
      </trkpt>
      <trkpt lat="41.95462320" lon="3.065936560">
        <ele>58.000000</ele>
        <time>2010-01-01T05:46:54Z</time>
      </trkpt>
      <trkpt lat="41.95494230" lon="3.069026470">
        <ele>58.000000</ele>
        <time>2010-01-01T05:47:37Z</time>
      </trkpt>
      <trkpt lat="41.95599550" lon="3.069369790">
        <ele>55.000000</ele>
        <time>2010-01-01T05:49:37Z</time>
      </trkpt>
      <trkpt lat="41.95700080" lon="3.065571780">
        <ele>54.000000</ele>
        <time>2010-01-01T05:51:42Z</time>
      </trkpt>
      <trkpt lat="41.95794230" lon="3.061559200">
        <ele>52.000000</ele>
        <time>2010-01-01T05:53:27Z</time>
      </trkpt>
      <trkpt lat="41.95803800" lon="3.058061590">
        <ele>51.000000</ele>
        <time>2010-01-01T05:53:56Z</time>
      </trkpt>
      <trkpt lat="41.95795820" lon="3.057096000">
        <ele>51.000000</ele>
        <time>2010-01-01T05:54:16Z</time>
      </trkpt>
      <trkpt lat="41.95746360" lon="3.056988710">
        <ele>50.000000</ele>
        <time>2010-01-01T05:54:38Z</time>
      </trkpt>
      <trkpt lat="41.95717630" lon="3.056344980">
        <ele>51.000000</ele>
        <time>2010-01-01T05:55:10Z</time>
      </trkpt>
      <trkpt lat="41.95741570" lon="3.055315010">
        <ele>52.000000</ele>
        <time>2010-01-01T05:55:38Z</time>
      </trkpt>
      <trkpt lat="41.95714440" lon="3.056173320">
        <ele>52.000000</ele>
        <time>2010-01-01T05:56:06Z</time>
      </trkpt>
      <trkpt lat="41.95744760" lon="3.057031630">
        <ele>50.000000</ele>
        <time>2010-01-01T05:56:51Z</time>
      </trkpt>
      <trkpt lat="41.95856460" lon="3.057289120">
        <ele>52.000000</ele>
        <time>2010-01-01T06:03:19Z</time>
      </trkpt>
      <trkpt lat="41.96698910" lon="3.063683500">
        <ele>45.000000</ele>
        <time>2010-01-01T06:05:25Z</time>
      </trkpt>
      <trkpt lat="41.96542550" lon="3.059992790">
        <ele>47.000000</ele>
        <time>2010-01-01T06:06:54Z</time>
      </trkpt>
      <trkpt lat="41.96746770" lon="3.058791160">
        <ele>44.000000</ele>
        <time>2010-01-01T06:10:21Z</time>
      </trkpt>
      <trkpt lat="41.97260480" lon="3.057997220">
        <ele>38.000000</ele>
        <time>2010-01-01T06:11:52Z</time>
      </trkpt>
      <trkpt lat="41.97231760" lon="3.054971690">
        <ele>34.000000</ele>
        <time>2010-01-01T06:12:58Z</time>
      </trkpt>
      <trkpt lat="41.97346620" lon="3.053383820">
        <ele>33.000000</ele>
        <time>2010-01-01T06:14:09Z</time>
      </trkpt>
      <trkpt lat="41.97522100" lon="3.053812980">
        <ele>34.000000</ele>
        <time>2010-01-01T06:15:23Z</time>
      </trkpt>
      <trkpt lat="41.97576340" lon="3.056173320">
        <ele>36.000000</ele>
        <time>2010-01-01T06:16:04Z</time>
      </trkpt>
      <trkpt lat="41.97651320" lon="3.057117460">
        <ele>34.000000</ele>
        <time>2010-01-01T06:16:42Z</time>
      </trkpt>
      <trkpt lat="41.97739050" lon="3.057632440">
        <ele>38.000000</ele>
        <time>2010-01-01T06:18:16Z</time>
      </trkpt>
      <trkpt lat="41.97865070" lon="3.054971690">
        <ele>32.000000</ele>
        <time>2010-01-01T06:19:19Z</time>
      </trkpt>
      <trkpt lat="41.97983110" lon="3.053598400">
        <ele>31.000000</ele>
        <time>2010-01-01T06:20:04Z</time>
      </trkpt>
      <trkpt lat="41.98046910" lon="3.052353850">
        <ele>34.000000</ele>
        <time>2010-01-01T06:20:24Z</time>
      </trkpt>
      <trkpt lat="41.98042130" lon="3.051688670">
        <ele>33.000000</ele>
        <time>2010-01-01T06:22:06Z</time>
      </trkpt>
      <trkpt lat="41.98176120" lon="3.048770420">
        <ele>31.000000</ele>
        <time>2010-01-01T06:23:02Z</time>
      </trkpt>
      <trkpt lat="41.98067650" lon="3.047568790">
        <ele>32.000000</ele>
        <time>2010-01-01T06:24:29Z</time>
      </trkpt>
      <trkpt lat="41.97967160" lon="3.044972410">
        <ele>37.000000</ele>
        <time>2010-01-01T06:24:51Z</time>
      </trkpt>
      <trkpt lat="41.97994270" lon="3.044328680">
        <ele>32.000000</ele>
        <time>2010-01-01T06:25:06Z</time>
      </trkpt>
      <trkpt lat="41.97986300" lon="3.043856620">
        <ele>30.000000</ele>
        <time>2010-01-01T06:25:40Z</time>
      </trkpt>
      <trkpt lat="41.98022990" lon="3.042805190">
        <ele>28.000000</ele>
        <time>2010-01-01T06:26:06Z</time>
      </trkpt>
      <trkpt lat="41.98038940" lon="3.041946880">
        <ele>28.000000</ele>
        <time>2010-01-01T06:26:26Z</time>
      </trkpt>
      <trkpt lat="41.98019800" lon="3.041324610">
        <ele>27.000000</ele>
        <time>2010-01-01T06:27:25Z</time>
      </trkpt>
      <trkpt lat="41.98166550" lon="3.041367530">
        <ele>25.000000</ele>
        <time>2010-01-01T06:30:07Z</time>
      </trkpt>
      <trkpt lat="41.98568490" lon="3.041925430">
        <ele>26.000000</ele>
        <time>2010-01-01T06:30:51Z</time>
      </trkpt>
      <trkpt lat="41.98675350" lon="3.042204380">
        <ele>26.000000</ele>
        <time>2010-01-01T06:32:10Z</time>
      </trkpt>
      <trkpt lat="41.98868340" lon="3.041582100">
        <ele>24.000000</ele>
        <time>2010-01-01T06:32:58Z</time>
      </trkpt>
      <trkpt lat="41.98831660" lon="3.040058610">
        <ele>25.000000</ele>
        <time>2010-01-01T06:33:29Z</time>
      </trkpt>
      <trkpt lat="41.98779020" lon="3.039286130">
        <ele>30.000000</ele>
        <time>2010-01-01T06:34:20Z</time>
      </trkpt>
      <trkpt lat="41.98763080" lon="3.037590980">
        <ele>29.000000</ele>
        <time>2010-01-01T06:35:10Z</time>
      </trkpt>
      <trkpt lat="41.98716820" lon="3.036003110">
        <ele>30.000000</ele>
        <time>2010-01-01T06:35:34Z</time>
      </trkpt>
      <trkpt lat="41.98670570" lon="3.035531040">
        <ele>26.000000</ele>
        <time>2010-01-01T06:36:25Z</time>
      </trkpt>
      <trkpt lat="41.98542970" lon="3.035531040">
        <ele>29.000000</ele>
        <time>2010-01-01T06:36:52Z</time>
      </trkpt>
      <trkpt lat="41.98485550" lon="3.035037510">
        <ele>28.000000</ele>
        <time>2010-01-01T06:37:25Z</time>
      </trkpt>
      <trkpt lat="41.98490340" lon="3.033943170">
        <ele>27.000000</ele>
        <time>2010-01-01T06:38:05Z</time>
      </trkpt>
      <trkpt lat="41.98557330" lon="3.032934660">
        <ele>28.000000</ele>
        <time>2010-01-01T06:38:39Z</time>
      </trkpt>
      <trkpt lat="41.98598800" lon="3.031926150">
        <ele>28.000000</ele>
        <time>2010-01-01T06:39:25Z</time>
      </trkpt>
      <trkpt lat="41.98605180" lon="3.030381200">
        <ele>30.000000</ele>
        <time>2010-01-01T06:39:46Z</time>
      </trkpt>
      <trkpt lat="41.98565300" lon="3.029952040">
        <ele>30.000000</ele>
        <time>2010-01-01T06:40:28Z</time>
      </trkpt>
      <trkpt lat="41.98460030" lon="3.029716010">
        <ele>30.000000</ele>
        <time>2010-01-01T06:40:48Z</time>
      </trkpt>
      <trkpt lat="41.98416170" lon="3.029415600">
        <ele>32.000000</ele>
        <time>2010-01-01T06:41:21Z</time>
      </trkpt>
      <trkpt lat="41.98372310" lon="3.028492920">
        <ele>30.000000</ele>
        <time>2010-01-01T06:41:58Z</time>
      </trkpt>
      <trkpt lat="41.98342000" lon="3.027291290">
        <ele>32.000000</ele>
        <time>2010-01-01T06:42:10Z</time>
      </trkpt>
      <trkpt lat="41.98333230" lon="3.026905050">
        <ele>33.000000</ele>
        <time>2010-01-01T06:43:40Z</time>
      </trkpt>
      <trkpt lat="41.98201640" lon="3.024458880">
        <ele>33.000000</ele>
        <time>2010-01-01T06:44:46Z</time>
      </trkpt>
      <trkpt lat="41.98105130" lon="3.022667160">
        <ele>35.000000</ele>
        <time>2010-01-01T06:47:19Z</time>
      </trkpt>
      <trkpt lat="41.98000660" lon="3.017721170">
        <ele>35.000000</ele>
        <time>2010-01-01T06:48:06Z</time>
      </trkpt>
      <trkpt lat="41.97960780" lon="3.016240590">
        <ele>35.000000</ele>
        <time>2010-01-01T06:48:51Z</time>
      </trkpt>
      <trkpt lat="41.97890590" lon="3.015038960">
        <ele>41.000000</ele>
        <time>2010-01-01T06:49:31Z</time>
      </trkpt>
      <trkpt lat="41.97903350" lon="3.013708590">
        <ele>38.000000</ele>
        <time>2010-01-01T06:50:38Z</time>
      </trkpt>
      <trkpt lat="41.98007040" lon="3.011970520">
        <ele>41.000000</ele>
        <time>2010-01-01T06:51:36Z</time>
      </trkpt>
      <trkpt lat="41.97955990" lon="3.010146610">
        <ele>41.000000</ele>
        <time>2010-01-01T06:51:57Z</time>
      </trkpt>
      <trkpt lat="41.97984700" lon="3.009545800">
        <ele>42.000000</ele>
        <time>2010-01-01T06:53:08Z</time>
      </trkpt>
      <trkpt lat="41.98144210" lon="3.008515830">
        <ele>45.000000</ele>
        <time>2010-01-01T06:54:58Z</time>
      </trkpt>
      <trkpt lat="41.98038940" lon="3.005104060">
        <ele>47.000000</ele>
        <time>2010-01-01T06:55:55Z</time>
      </trkpt>
      <trkpt lat="41.98112310" lon="3.006777760">
        <ele>51.000000</ele>
        <time>2010-01-01T06:56:35Z</time>
      </trkpt>
      <trkpt lat="41.98206420" lon="3.006412980">
        <ele>56.000000</ele>
        <time>2010-01-01T06:57:25Z</time>
      </trkpt>
      <trkpt lat="41.98286170" lon="3.005104060">
        <ele>73.000000</ele>
        <time>2010-01-01T07:00:39Z</time>
      </trkpt>
      <trkpt lat="41.98696090" lon="3.001627920">
        <ele>103.00000</ele>
        <time>2010-01-01T07:01:52Z</time>
      </trkpt>
      <trkpt lat="41.98673760" lon="2.999203200">
        <ele>105.00000</ele>
        <time>2010-01-01T07:02:27Z</time>
      </trkpt>
      <trkpt lat="41.98753510" lon="2.998688220">
        <ele>99.000000</ele>
        <time>2010-01-01T07:03:52Z</time>
      </trkpt>
      <trkpt lat="41.98887480" lon="2.996499530">
        <ele>105.00000</ele>
        <time>2010-01-01T07:05:04Z</time>
      </trkpt>
      <trkpt lat="41.99053350" lon="2.995512480">
        <ele>104.00000</ele>
        <time>2010-01-01T07:05:32Z</time>
      </trkpt>
      <trkpt lat="41.99021450" lon="2.994675630">
        <ele>104.00000</ele>
        <time>2010-01-01T07:06:06Z</time>
      </trkpt>
      <trkpt lat="41.99015070" lon="2.993538370">
        <ele>108.00000</ele>
        <time>2010-01-01T07:06:27Z</time>
      </trkpt>
      <trkpt lat="41.99061320" lon="2.993237970">
        <ele>110.00000</ele>
        <time>2010-01-01T07:09:05Z</time>
      </trkpt>
      <trkpt lat="41.99456830" lon="2.992808810">
        <ele>92.000000</ele>
        <time>2010-01-01T07:09:44Z</time>
      </trkpt>
      <trkpt lat="41.99550920" lon="2.992551320">
        <ele>93.000000</ele>
        <time>2010-01-01T07:10:12Z</time>
      </trkpt>
      <trkpt lat="41.99562080" lon="2.993474000">
        <ele>92.000000</ele>
        <time>2010-01-01T07:10:41Z</time>
      </trkpt>
      <trkpt lat="41.99632250" lon="2.993237970">
        <ele>92.000000</ele>
        <time>2010-01-01T07:11:09Z</time>
      </trkpt>
      <trkpt lat="41.99704010" lon="2.993302340">
        <ele>93.000000</ele>
        <time>2010-01-01T07:11:31Z</time>
      </trkpt>
      <trkpt lat="41.99751850" lon="2.992959020">
        <ele>95.000000</ele>
        <time>2010-01-01T07:12:01Z</time>
      </trkpt>
      <trkpt lat="41.99820420" lon="2.992594240">
        <ele>94.000000</ele>
        <time>2010-01-01T07:13:07Z</time>
      </trkpt>
      <trkpt lat="41.99984670" lon="2.992422580">
        <ele>96.000000</ele>
        <time>2010-01-01T07:13:27Z</time>
      </trkpt>
      <trkpt lat="42.00027730" lon="2.992808810">
        <ele>99.000000</ele>
        <time>2010-01-01T07:15:02Z</time>
      </trkpt>
      <trkpt lat="42.00258940" lon="2.993538370">
        <ele>117.00000</ele>
        <time>2010-01-01T07:16:38Z</time>
      </trkpt>
      <trkpt lat="42.00496520" lon="2.993409630">
        <ele>128.00000</ele>
        <time>2010-01-01T07:17:38Z</time>
      </trkpt>
      <trkpt lat="42.00646400" lon="2.993559830">
        <ele>130.00000</ele>
        <time>2010-01-01T07:18:33Z</time>
      </trkpt>
      <trkpt lat="42.00783530" lon="2.993731490">
        <ele>132.00000</ele>
        <time>2010-01-01T07:18:53Z</time>
      </trkpt>
      <trkpt lat="42.00826570" lon="2.994096270">
        <ele>135.00000</ele>
        <time>2010-01-01T07:19:18Z</time>
      </trkpt>
      <trkpt lat="42.00888760" lon="2.994139190">
        <ele>135.00000</ele>
        <time>2010-01-01T07:19:56Z</time>
      </trkpt>
      <trkpt lat="42.00957320" lon="2.995040410">
        <ele>131.00000</ele>
        <time>2010-01-01T07:20:18Z</time>
      </trkpt>
      <trkpt lat="42.01006740" lon="2.994761460">
        <ele>131.00000</ele>
        <time>2010-01-01T07:21:14Z</time>
      </trkpt>
      <trkpt lat="42.01096020" lon="2.993302340">
        <ele>130.00000</ele>
        <time>2010-01-01T07:22:44Z</time>
      </trkpt>
      <trkpt lat="42.01285750" lon="2.991693010">
        <ele>116.00000</ele>
        <time>2010-01-01T07:24:28Z</time>
      </trkpt>
      <trkpt lat="42.01421260" lon="2.988710400">
        <ele>127.00000</ele>
        <time>2010-01-01T07:24:49Z</time>
      </trkpt>
      <trkpt lat="42.01432420" lon="2.988002300">
        <ele>124.00000</ele>
        <time>2010-01-01T07:25:40Z</time>
      </trkpt>
      <trkpt lat="42.01360680" lon="2.986586090">
        <ele>117.00000</ele>
        <time>2010-01-01T07:27:04Z</time>
      </trkpt>
      <trkpt lat="42.01383000" lon="2.983775130">
        <ele>102.00000</ele>
        <time>2010-01-01T07:27:40Z</time>
      </trkpt>
      <trkpt lat="42.01364670" lon="2.982605690">
        <ele>95.000000</ele>
        <time>2010-01-01T07:28:22Z</time>
      </trkpt>
      <trkpt lat="42.01467890" lon="2.982380390">
        <ele>94.000000</ele>
        <time>2010-01-01T07:28:51Z</time>
      </trkpt>
      <trkpt lat="42.01535650" lon="2.982031700">
        <ele>87.000000</ele>
        <time>2010-01-01T07:29:27Z</time>
      </trkpt>
      <trkpt lat="42.01609780" lon="2.981371870">
        <ele>83.000000</ele>
        <time>2010-01-01T07:30:48Z</time>
      </trkpt>
      <trkpt lat="42.01697060" lon="2.978904240">
        <ele>85.000000</ele>
        <time>2010-01-01T07:31:44Z</time>
      </trkpt>
      <trkpt lat="42.01780760" lon="2.977402210">
        <ele>85.000000</ele>
        <time>2010-01-01T07:33:25Z</time>
      </trkpt>
      <trkpt lat="42.01921040" lon="2.974559060">
        <ele>86.000000</ele>
        <time>2010-01-01T07:34:24Z</time>
      </trkpt>
      <trkpt lat="42.02004730" lon="2.972939010">
        <ele>87.000000</ele>
        <time>2010-01-01T07:34:43Z</time>
      </trkpt>
      <trkpt lat="42.02050960" lon="2.972713700">
        <ele>85.000000</ele>
        <time>2010-01-01T07:35:01Z</time>
      </trkpt>
      <trkpt lat="42.02094000" lon="2.972713700">
        <ele>82.000000</ele>
        <time>2010-01-01T07:35:26Z</time>
      </trkpt>
      <trkpt lat="42.02152190" lon="2.973014110">
        <ele>77.000000</ele>
        <time>2010-01-01T07:35:52Z</time>
      </trkpt>
      <trkpt lat="42.02175300" lon="2.973829500">
        <ele>76.000000</ele>
        <time>2010-01-01T07:36:04Z</time>
      </trkpt>
      <trkpt lat="42.02204790" lon="2.973893880">
        <ele>73.000000</ele>
        <time>2010-01-01T07:36:33Z</time>
      </trkpt>
      <trkpt lat="42.02271740" lon="2.973518370">
        <ele>70.000000</ele>
        <time>2010-01-01T07:36:53Z</time>
      </trkpt>
      <trkpt lat="42.02317970" lon="2.973765130">
        <ele>72.000000</ele>
        <time>2010-01-01T07:37:10Z</time>
      </trkpt>
      <trkpt lat="42.02339490" lon="2.973260870">
        <ele>71.000000</ele>
        <time>2010-01-01T07:37:51Z</time>
      </trkpt>
      <trkpt lat="42.02425570" lon="2.972499130">
        <ele>70.000000</ele>
        <time>2010-01-01T07:38:41Z</time>
      </trkpt>
      <trkpt lat="42.02518810" lon="2.971361870">
        <ele>68.000000</ele>
        <time>2010-01-01T07:39:39Z</time>
      </trkpt>
      <trkpt lat="42.02647930" lon="2.970492830">
        <ele>68.000000</ele>
        <time>2010-01-01T07:40:18Z</time>
      </trkpt>
      <trkpt lat="42.02742770" lon="2.970181700">
        <ele>65.000000</ele>
        <time>2010-01-01T07:40:45Z</time>
      </trkpt>
      <trkpt lat="42.02801740" lon="2.969795460">
        <ele>66.000000</ele>
        <time>2010-01-01T07:41:54Z</time>
      </trkpt>
      <trkpt lat="42.02975470" lon="2.969613070">
        <ele>71.000000</ele>
        <time>2010-01-01T07:44:01Z</time>
      </trkpt>
      <trkpt lat="42.03255190" lon="2.967596050">
        <ele>61.000000</ele>
        <time>2010-01-01T07:45:07Z</time>
      </trkpt>
      <trkpt lat="42.03400230" lon="2.966544620">
        <ele>57.000000</ele>
        <time>2010-01-01T07:46:04Z</time>
      </trkpt>
      <trkpt lat="42.03514980" lon="2.965450280">
        <ele>55.000000</ele>
        <time>2010-01-01T07:47:45Z</time>
      </trkpt>
      <trkpt lat="42.03732520" lon="2.963701480">
        <ele>54.000000</ele>
        <time>2010-01-01T07:48:42Z</time>
      </trkpt>
      <trkpt lat="42.03869570" lon="2.963207960">
        <ele>50.000000</ele>
        <time>2010-01-01T07:49:51Z</time>
      </trkpt>
      <trkpt lat="42.04037700" lon="2.962617870">
        <ele>51.000000</ele>
        <time>2010-01-01T07:59:25Z</time>
      </trkpt>
      <trkpt lat="42.05470980" lon="2.962102890">
        <ele>32.000000</ele>
        <time>2010-01-01T08:01:02Z</time>
      </trkpt>
      <trkpt lat="42.05579320" lon="2.959184640">
        <ele>31.000000</ele>
        <time>2010-01-01T08:03:50Z</time>
      </trkpt>
      <trkpt lat="42.05996730" lon="2.959828370">
        <ele>25.000000</ele>
        <time>2010-01-01T08:09:32Z</time>
      </trkpt>
      <trkpt lat="42.06136930" lon="2.948498720">
        <ele>31.000000</ele>
        <time>2010-01-01T08:15:51Z</time>
      </trkpt>
      <trkpt lat="42.07079960" lon="2.947340010">
        <ele>38.000000</ele>
        <time>2010-01-01T08:34:02Z</time>
      </trkpt>
      <trkpt lat="42.06620410" lon="2.911162370">
        <ele>42.000000</ele>
        <time>2010-01-01T08:36:08Z</time>
      </trkpt>
      <trkpt lat="42.06575010" lon="2.906967400">
        <ele>41.000000</ele>
        <time>2010-01-01T08:37:05Z</time>
      </trkpt>
      <trkpt lat="42.06712000" lon="2.906398770">
        <ele>49.000000</ele>
        <time>2010-01-01T08:38:32Z</time>
      </trkpt>
      <trkpt lat="42.06821910" lon="2.903866760">
        <ele>48.000000</ele>
        <time>2010-01-01T08:40:59Z</time>
      </trkpt>
      <trkpt lat="42.06833060" lon="2.898910040">
        <ele>85.000000</ele>
        <time>2010-01-01T08:42:17Z</time>
      </trkpt>
      <trkpt lat="42.06667400" lon="2.897536750">
        <ele>103.00000</ele>
        <time>2010-01-01T08:43:34Z</time>
      </trkpt>
      <trkpt lat="42.06643500" lon="2.894983290">
        <ele>118.00000</ele>
        <time>2010-01-01T08:51:52Z</time>
      </trkpt>
      <trkpt lat="42.07889070" lon="2.894768710">
        <ele>120.00000</ele>
        <time>2010-01-01T08:54:25Z</time>
      </trkpt>
      <trkpt lat="42.08236250" lon="2.896871560">
        <ele>137.00000</ele>
        <time>2010-01-01T08:57:48Z</time>
      </trkpt>
      <trkpt lat="42.08742670" lon="2.896485320">
        <ele>154.00000</ele>
        <time>2010-01-01T08:59:04Z</time>
      </trkpt>
      <trkpt lat="42.08758590" lon="2.893931860">
        <ele>149.00000</ele>
        <time>2010-01-01T09:00:53Z</time>
      </trkpt>
      <trkpt lat="42.09024520" lon="2.893202300">
        <ele>137.00000</ele>
        <time>2010-01-01T09:01:44Z</time>
      </trkpt>
      <trkpt lat="42.08897130" lon="2.892880430">
        <ele>134.00000</ele>
        <time>2010-01-01T09:02:35Z</time>
      </trkpt>
      <trkpt lat="42.08925790" lon="2.891228190">
        <ele>133.00000</ele>
        <time>2010-01-01T09:04:54Z</time>
      </trkpt>
      <trkpt lat="42.09257000" lon="2.892622940">
        <ele>145.00000</ele>
        <time>2010-01-01T09:06:02Z</time>
      </trkpt>
      <trkpt lat="42.09425780" lon="2.892794600">
        <ele>151.00000</ele>
        <time>2010-01-01T09:06:37Z</time>
      </trkpt>
      <trkpt lat="42.09433740" lon="2.893974780">
        <ele>140.00000</ele>
        <time>2010-01-01T09:08:54Z</time>
      </trkpt>
      <trkpt lat="42.09742630" lon="2.895970340">
        <ele>139.00000</ele>
        <time>2010-01-01T09:10:26Z</time>
      </trkpt>
      <trkpt lat="42.09772880" lon="2.892880430">
        <ele>131.00000</ele>
        <time>2010-01-01T09:11:11Z</time>
      </trkpt>
      <trkpt lat="42.09787210" lon="2.891378400">
        <ele>137.00000</ele>
        <time>2010-01-01T09:12:07Z</time>
      </trkpt>
      <trkpt lat="42.09761730" lon="2.889554500">
        <ele>150.00000</ele>
        <time>2010-01-01T09:13:08Z</time>
      </trkpt>
      <trkpt lat="42.09809500" lon="2.887601850">
        <ele>158.00000</ele>
        <time>2010-01-01T09:15:35Z</time>
      </trkpt>
      <trkpt lat="42.09494240" lon="2.885026930">
        <ele>140.00000</ele>
        <time>2010-01-01T09:16:53Z</time>
      </trkpt>
      <trkpt lat="42.09303170" lon="2.885541910">
        <ele>151.00000</ele>
        <time>2010-01-01T09:18:39Z</time>
      </trkpt>
      <trkpt lat="42.09038850" lon="2.885241500">
        <ele>139.00000</ele>
        <time>2010-01-01T09:23:14Z</time>
      </trkpt>
      <trkpt lat="42.08392320" lon="2.882108680">
        <ele>114.00000</ele>
        <time>2010-01-01T09:25:42Z</time>
      </trkpt>
      <trkpt lat="42.08567500" lon="2.877731320">
        <ele>105.00000</ele>
        <time>2010-01-01T09:28:45Z</time>
      </trkpt>
      <trkpt lat="42.08112030" lon="2.877259250">
        <ele>106.00000</ele>
        <time>2010-01-01T09:31:05Z</time>
      </trkpt>
      <trkpt lat="42.07825360" lon="2.874555580">
        <ele>108.00000</ele>
        <time>2010-01-01T09:35:59Z</time>
      </trkpt>
      <trkpt lat="42.08150260" lon="2.865672110">
        <ele>66.000000</ele>
        <time>2010-01-01T09:38:07Z</time>
      </trkpt>
      <trkpt lat="42.07831730" lon="2.865500450">
        <ele>83.000000</ele>
        <time>2010-01-01T09:39:19Z</time>
      </trkpt>
      <trkpt lat="42.07946400" lon="2.863612170">
        <ele>100.00000</ele>
        <time>2010-01-01T09:42:00Z</time>
      </trkpt>
      <trkpt lat="42.07545050" lon="2.863440510">
        <ele>132.00000</ele>
        <time>2010-01-01T09:48:24Z</time>
      </trkpt>
      <trkpt lat="42.06608460" lon="2.866187090">
        <ele>118.00000</ele>
        <time>2010-01-01T09:50:20Z</time>
      </trkpt>
      <trkpt lat="42.06755010" lon="2.862796780">
        <ele>95.000000</ele>
        <time>2010-01-01T09:51:48Z</time>
      </trkpt>
      <trkpt lat="42.06643500" lon="2.860264770">
        <ele>107.00000</ele>
        <time>2010-01-01T09:53:00Z</time>
      </trkpt>
      <trkpt lat="42.06496950" lon="2.858848570">
        <ele>121.00000</ele>
        <time>2010-01-01T09:55:13Z</time>
      </trkpt>
      <trkpt lat="42.06165600" lon="2.859020230">
        <ele>114.00000</ele>
        <time>2010-01-01T09:57:33Z</time>
      </trkpt>
      <trkpt lat="42.05815120" lon="2.859020230">
        <ele>109.00000</ele>
        <time>2010-01-01T09:58:35Z</time>
      </trkpt>
      <trkpt lat="42.05674920" lon="2.859878540">
        <ele>113.00000</ele>
        <time>2010-01-01T10:01:59Z</time>
      </trkpt>
      <trkpt lat="42.05228810" lon="2.863225930">
        <ele>101.00000</ele>
        <time>2010-01-01T10:07:18Z</time>
      </trkpt>
      <trkpt lat="42.05318030" lon="2.852582930">
        <ele>72.000000</ele>
        <time>2010-01-01T10:10:46Z</time>
      </trkpt>
      <trkpt lat="42.05286170" lon="2.845587730">
        <ele>64.000000</ele>
        <time>2010-01-01T10:13:35Z</time>
      </trkpt>
      <trkpt lat="42.05700410" lon="2.844514840">
        <ele>68.000000</ele>
        <time>2010-01-01T10:14:14Z</time>
      </trkpt>
      <trkpt lat="42.05716340" lon="2.843227380">
        <ele>66.000000</ele>
        <time>2010-01-01T10:15:52Z</time>
      </trkpt>
      <trkpt lat="42.05474170" lon="2.842626570">
        <ele>85.000000</ele>
        <time>2010-01-01T10:16:52Z</time>
      </trkpt>
      <trkpt lat="42.05480540" lon="2.840609550">
        <ele>93.000000</ele>
        <time>2010-01-01T10:19:27Z</time>
      </trkpt>
      <trkpt lat="42.05729090" lon="2.836618420">
        <ele>120.00000</ele>
        <time>2010-01-01T10:20:16Z</time>
      </trkpt>
      <trkpt lat="42.05694040" lon="2.835030550">
        <ele>126.00000</ele>
        <time>2010-01-01T10:20:58Z</time>
      </trkpt>
      <trkpt lat="42.05719530" lon="2.833657260">
        <ele>129.00000</ele>
        <time>2010-01-01T10:27:30Z</time>
      </trkpt>
      <trkpt lat="42.05946550" lon="2.820825570">
        <ele>141.00000</ele>
        <time>2010-01-01T10:28:42Z</time>
      </trkpt>
      <trkpt lat="42.05931420" lon="2.818422310">
        <ele>140.00000</ele>
        <time>2010-01-01T10:29:41Z</time>
      </trkpt>
      <trkpt lat="42.05862110" lon="2.816684240">
        <ele>145.00000</ele>
        <time>2010-01-01T10:30:23Z</time>
      </trkpt>
      <trkpt lat="42.05885210" lon="2.815289490">
        <ele>142.00000</ele>
        <time>2010-01-01T10:30:49Z</time>
      </trkpt>
      <trkpt lat="42.05822290" lon="2.815064190">
        <ele>139.00000</ele>
        <time>2010-01-01T10:31:27Z</time>
      </trkpt>
      <trkpt lat="42.05776880" lon="2.813959120">
        <ele>138.00000</ele>
        <time>2010-01-01T10:31:55Z</time>
      </trkpt>
      <trkpt lat="42.05776880" lon="2.813014980">
        <ele>137.00000</ele>
        <time>2010-01-01T10:32:51Z</time>
      </trkpt>
      <trkpt lat="42.05909910" lon="2.812392710">
        <ele>142.00000</ele>
        <time>2010-01-01T10:33:35Z</time>
      </trkpt>
      <trkpt lat="42.06014260" lon="2.811909910">
        <ele>150.00000</ele>
        <time>2010-01-01T10:34:02Z</time>
      </trkpt>
      <trkpt lat="42.06070020" lon="2.811427110">
        <ele>162.00000</ele>
        <time>2010-01-01T10:35:51Z</time>
      </trkpt>
      <trkpt lat="42.06114620" lon="2.807790040">
        <ele>168.00000</ele>
        <time>2010-01-01T10:37:04Z</time>
      </trkpt>
      <trkpt lat="42.06210210" lon="2.805719370">
        <ele>173.00000</ele>
        <time>2010-01-01T10:38:09Z</time>
      </trkpt>
      <trkpt lat="42.06191090" lon="2.803530690">
        <ele>167.00000</ele>
        <time>2010-01-01T10:40:21Z</time>
      </trkpt>
      <trkpt lat="42.06407740" lon="2.800183290">
        <ele>164.00000</ele>
        <time>2010-01-01T10:41:00Z</time>
      </trkpt>
      <trkpt lat="42.06496950" lon="2.799668310">
        <ele>156.00000</ele>
        <time>2010-01-01T10:42:16Z</time>
      </trkpt>
      <trkpt lat="42.06624390" lon="2.797780030">
        <ele>149.00000</ele>
        <time>2010-01-01T10:43:52Z</time>
      </trkpt>
      <trkpt lat="42.06755010" lon="2.795076370">
        <ele>142.00000</ele>
        <time>2010-01-01T10:46:51Z</time>
      </trkpt>
      <trkpt lat="42.06605270" lon="2.789411540">
        <ele>165.00000</ele>
        <time>2010-01-01T10:48:15Z</time>
      </trkpt>
      <trkpt lat="42.06395000" lon="2.789540290">
        <ele>190.00000</ele>
        <time>2010-01-01T10:49:43Z</time>
      </trkpt>
      <trkpt lat="42.06283490" lon="2.786965370">
        <ele>235.00000</ele>
        <time>2010-01-01T10:52:38Z</time>
      </trkpt>
      <trkpt lat="42.06197460" lon="2.781214710">
        <ele>276.00000</ele>
        <time>2010-01-01T10:54:34Z</time>
      </trkpt>
      <trkpt lat="42.05907520" lon="2.781000130">
        <ele>281.00000</ele>
        <time>2010-01-01T10:55:55Z</time>
      </trkpt>
      <trkpt lat="42.05738640" lon="2.779498100">
        <ele>286.00000</ele>
        <time>2010-01-01T10:57:02Z</time>
      </trkpt>
      <trkpt lat="42.05630310" lon="2.781214710">
        <ele>288.00000</ele>
        <time>2010-01-01T10:57:38Z</time>
      </trkpt>
      <trkpt lat="42.05541090" lon="2.781128880">
        <ele>295.00000</ele>
        <time>2010-01-01T10:59:30Z</time>
      </trkpt>
      <trkpt lat="42.05703590" lon="2.778038970">
        <ele>314.00000</ele>
        <time>2010-01-01T11:00:42Z</time>
      </trkpt>
      <trkpt lat="42.05709970" lon="2.775635710">
        <ele>327.00000</ele>
        <time>2010-01-01T11:04:53Z</time>
      </trkpt>
      <trkpt lat="42.05595260" lon="2.767310140">
        <ele>317.00000</ele>
        <time>2010-01-01T11:06:48Z</time>
      </trkpt>
      <trkpt lat="42.05509220" lon="2.763619420">
        <ele>294.00000</ele>
        <time>2010-01-01T11:11:38Z</time>
      </trkpt>
      <trkpt lat="42.05687660" lon="2.754178040">
        <ele>300.00000</ele>
        <time>2010-01-01T11:12:30Z</time>
      </trkpt>
      <trkpt lat="42.05560210" lon="2.753920550">
        <ele>300.00000</ele>
        <time>2010-01-01T11:13:37Z</time>
      </trkpt>
      <trkpt lat="42.05560210" lon="2.756195060">
        <ele>298.00000</ele>
        <time>2010-01-01T11:16:25Z</time>
      </trkpt>
      <trkpt lat="42.05308470" lon="2.760701170">
        <ele>279.00000</ele>
        <time>2010-01-01T11:18:31Z</time>
      </trkpt>
      <trkpt lat="42.05005740" lon="2.759542460">
        <ele>294.00000</ele>
        <time>2010-01-01T11:23:51Z</time>
      </trkpt>
      <trkpt lat="42.04209010" lon="2.760658260">
        <ele>233.00000</ele>
        <time>2010-01-01T11:28:04Z</time>
      </trkpt>
      <trkpt lat="42.03581120" lon="2.759885780">
        <ele>189.00000</ele>
        <time>2010-01-01T11:29:24Z</time>
      </trkpt>
      <trkpt lat="42.03657610" lon="2.757396690">
        <ele>176.00000</ele>
        <time>2010-01-01T11:31:20Z</time>
      </trkpt>
      <trkpt lat="42.03762800" lon="2.753748890">
        <ele>194.00000</ele>
        <time>2010-01-01T11:34:35Z</time>
      </trkpt>
      <trkpt lat="42.04205820" lon="2.751045220">
        <ele>227.00000</ele>
        <time>2010-01-01T11:35:31Z</time>
      </trkpt>
      <trkpt lat="42.04342870" lon="2.751474380">
        <ele>233.00000</ele>
        <time>2010-01-01T11:38:34Z</time>
      </trkpt>
      <trkpt lat="42.04667940" lon="2.747182840">
        <ele>262.00000</ele>
        <time>2010-01-01T11:40:52Z</time>
      </trkpt>
      <trkpt lat="42.04932450" lon="2.744200220">
        <ele>282.00000</ele>
        <time>2010-01-01T11:41:45Z</time>
      </trkpt>
      <trkpt lat="42.05047170" lon="2.743256090">
        <ele>291.00000</ele>
      </trkpt>
      <trkpt lat="42.05039200" lon="2.744457720">
        <ele>283.00000</ele>
        <time>2010-01-01T00:00:00Z</time>
      </trkpt>
      <trkpt lat="42.05016890" lon="2.744436260">
        <ele>283.00000</ele>
        <time>2010-01-01T00:00:08Z</time>
      </trkpt>
      <trkpt lat="42.05011320" lon="2.743942730">
        <ele>284.00000</ele>
        <time>2010-01-01T00:00:23Z</time>
      </trkpt>
      <trkpt lat="42.04987420" lon="2.743760340">
        <ele>286.00000</ele>
        <time>2010-01-01T00:00:34Z</time>
      </trkpt>
      <trkpt lat="42.05047960" lon="2.743191710">
        <ele>292.00000</ele>
        <time>2010-01-01T00:01:04Z</time>
      </trkpt>
      <trkpt lat="42.05069470" lon="2.741957900">
        <ele>303.00000</ele>
        <time>2010-01-01T00:01:42Z</time>
      </trkpt>
      <trkpt lat="42.05122850" lon="2.740037440">
        <ele>307.00000</ele>
        <time>2010-01-01T00:02:42Z</time>
      </trkpt>
      <trkpt lat="42.05157900" lon="2.739586830">
        <ele>305.00000</ele>
        <time>2010-01-01T00:03:02Z</time>
      </trkpt>
      <trkpt lat="42.05171450" lon="2.739243500">
        <ele>305.00000</ele>
        <time>2010-01-01T00:03:13Z</time>
      </trkpt>
      <trkpt lat="42.05152330" lon="2.738696330">
        <ele>309.00000</ele>
        <time>2010-01-01T00:03:31Z</time>
      </trkpt>
      <trkpt lat="42.05179410" lon="2.738428110">
        <ele>308.00000</ele>
        <time>2010-01-01T00:03:45Z</time>
      </trkpt>
      <trkpt lat="42.05200130" lon="2.738192080">
        <ele>308.00000</ele>
        <time>2010-01-01T00:03:56Z</time>
      </trkpt>
      <trkpt lat="42.05195350" lon="2.737129920">
        <ele>317.00000</ele>
        <time>2010-01-01T00:04:27Z</time>
      </trkpt>
      <trkpt lat="42.05173040" lon="2.736132140">
        <ele>318.00000</ele>
        <time>2010-01-01T00:04:58Z</time>
      </trkpt>
      <trkpt lat="42.05192960" lon="2.734823220">
        <ele>325.00000</ele>
        <time>2010-01-01T00:05:38Z</time>
      </trkpt>
      <trkpt lat="42.05187380" lon="2.734351150">
        <ele>327.00000</ele>
        <time>2010-01-01T00:05:52Z</time>
      </trkpt>
      <trkpt lat="42.05137990" lon="2.731990810">
        <ele>324.00000</ele>
        <time>2010-01-01T00:07:05Z</time>
      </trkpt>
      <trkpt lat="42.05177820" lon="2.730832090">
        <ele>318.00000</ele>
        <time>2010-01-01T00:07:43Z</time>
      </trkpt>
      <trkpt lat="42.05150730" lon="2.729233500">
        <ele>315.00000</ele>
        <time>2010-01-01T00:08:32Z</time>
      </trkpt>
      <trkpt lat="42.05114090" lon="2.728343000">
        <ele>313.00000</ele>
        <time>2010-01-01T00:09:02Z</time>
      </trkpt>
      <trkpt lat="42.05251110" lon="2.728149890">
        <ele>314.00000</ele>
        <time>2010-01-01T00:09:57Z</time>
      </trkpt>
      <trkpt lat="42.05346710" lon="2.727119920">
        <ele>315.00000</ele>
        <time>2010-01-01T00:10:46Z</time>
      </trkpt>
      <trkpt lat="42.05367420" lon="2.726368900">
        <ele>315.00000</ele>
        <time>2010-01-01T00:11:10Z</time>
      </trkpt>
      <trkpt lat="42.05478150" lon="2.725424760">
        <ele>317.00000</ele>
        <time>2010-01-01T00:12:03Z</time>
      </trkpt>
      <trkpt lat="42.05527540" lon="2.724941960">
        <ele>317.00000</ele>
        <time>2010-01-01T00:12:27Z</time>
      </trkpt>
      <trkpt lat="42.05551440" lon="2.724523540">
        <ele>320.00000</ele>
        <time>2010-01-01T00:12:43Z</time>
      </trkpt>
      <trkpt lat="42.05592070" lon="2.723965640">
        <ele>323.00000</ele>
        <time>2010-01-01T00:13:06Z</time>
      </trkpt>
      <trkpt lat="42.05668540" lon="2.722592350">
        <ele>329.00000</ele>
        <time>2010-01-01T00:13:57Z</time>
      </trkpt>
      <trkpt lat="42.05750590" lon="2.722431420">
        <ele>319.00000</ele>
        <time>2010-01-01T00:14:30Z</time>
      </trkpt>
      <trkpt lat="42.05792810" lon="2.722034450">
        <ele>318.00000</ele>
        <time>2010-01-01T00:14:51Z</time>
      </trkpt>
      <trkpt lat="42.05817510" lon="2.721347800">
        <ele>329.00000</ele>
        <time>2010-01-01T00:15:13Z</time>
      </trkpt>
      <trkpt lat="42.05819100" lon="2.720586060">
        <ele>335.00000</ele>
        <time>2010-01-01T00:15:36Z</time>
      </trkpt>
      <trkpt lat="42.05840610" lon="2.720146170">
        <ele>337.00000</ele>
        <time>2010-01-01T00:15:52Z</time>
      </trkpt>
      <trkpt lat="42.05845390" lon="2.719781390">
        <ele>343.00000</ele>
        <time>2010-01-01T00:16:03Z</time>
      </trkpt>
      <trkpt lat="42.05860520" lon="2.718333000">
        <ele>365.00000</ele>
        <time>2010-01-01T00:16:46Z</time>
      </trkpt>
      <trkpt lat="42.05878840" lon="2.717099180">
        <ele>367.00000</ele>
        <time>2010-01-01T00:17:24Z</time>
      </trkpt>
      <trkpt lat="42.06012660" lon="2.715961930">
        <ele>381.00000</ele>
        <time>2010-01-01T00:18:27Z</time>
      </trkpt>
      <trkpt lat="42.06024610" lon="2.715629330">
        <ele>383.00000</ele>
        <time>2010-01-01T00:18:38Z</time>
      </trkpt>
      <trkpt lat="42.06066830" lon="2.715082160">
        <ele>384.00000</ele>
        <time>2010-01-01T00:19:01Z</time>
      </trkpt>
      <trkpt lat="42.06076390" lon="2.712228290">
        <ele>391.00000</ele>
        <time>2010-01-01T00:20:26Z</time>
      </trkpt>
      <trkpt lat="42.06081170" lon="2.711949340">
        <ele>393.00000</ele>
        <time>2010-01-01T00:20:35Z</time>
      </trkpt>
      <trkpt lat="42.06094710" lon="2.711648940">
        <ele>396.00000</ele>
        <time>2010-01-01T00:20:45Z</time>
      </trkpt>
      <trkpt lat="42.06092320" lon="2.711455820">
        <ele>397.00000</ele>
        <time>2010-01-01T00:20:51Z</time>
      </trkpt>
      <trkpt lat="42.06108250" lon="2.710994480">
        <ele>400.00000</ele>
        <time>2010-01-01T00:21:06Z</time>
      </trkpt>
      <trkpt lat="42.06097900" lon="2.710661880">
        <ele>403.00000</ele>
        <time>2010-01-01T00:21:17Z</time>
      </trkpt>
      <trkpt lat="42.06057270" lon="2.709138390">
        <ele>417.00000</ele>
        <time>2010-01-01T00:22:05Z</time>
      </trkpt>
      <trkpt lat="42.06155000" lon="2.708210000">
        <ele>423.00000</ele>
        <time>2010-01-01T00:22:53Z</time>
      </trkpt>
      <trkpt lat="42.06147000" lon="2.708239000">
        <ele>422.00000</ele>
        <time>2010-01-01T00:22:56Z</time>
      </trkpt>
      <trkpt lat="42.06146800" lon="2.708303000">
        <ele>421.00000</ele>
        <time>2010-01-01T00:22:58Z</time>
      </trkpt>
      <trkpt lat="42.06143700" lon="2.708255000">
        <ele>422.00000</ele>
        <time>2010-01-01T00:23:00Z</time>
      </trkpt>
      <trkpt lat="42.06149200" lon="2.708268000">
        <ele>422.00000</ele>
        <time>2010-01-01T00:23:02Z</time>
      </trkpt>
      <trkpt lat="42.06183100" lon="2.708034000">
        <ele>424.00000</ele>
        <time>2010-01-01T00:23:17Z</time>
      </trkpt>
      <trkpt lat="42.06213000" lon="2.707446000">
        <ele>440.00000</ele>
        <time>2010-01-01T00:23:39Z</time>
      </trkpt>
      <trkpt lat="42.06236100" lon="2.707150000">
        <ele>442.00000</ele>
        <time>2010-01-01T00:23:51Z</time>
      </trkpt>
      <trkpt lat="42.06269200" lon="2.706375000">
        <ele>443.00000</ele>
        <time>2010-01-01T00:24:18Z</time>
      </trkpt>
      <trkpt lat="42.06285800" lon="2.705802000">
        <ele>446.00000</ele>
        <time>2010-01-01T00:24:36Z</time>
      </trkpt>
      <trkpt lat="42.06323000" lon="2.703624000">
        <ele>454.00000</ele>
        <time>2010-01-01T00:25:43Z</time>
      </trkpt>
      <trkpt lat="42.06320200" lon="2.702967000">
        <ele>457.00000</ele>
        <time>2010-01-01T00:26:02Z</time>
      </trkpt>
      <trkpt lat="42.06342900" lon="2.702460000">
        <ele>462.00000</ele>
        <time>2010-01-01T00:26:20Z</time>
      </trkpt>
      <trkpt lat="42.06360200" lon="2.701798000">
        <ele>469.00000</ele>
        <time>2010-01-01T00:26:41Z</time>
      </trkpt>
      <trkpt lat="42.06371400" lon="2.701727000">
        <ele>472.00000</ele>
        <time>2010-01-01T00:26:46Z</time>
      </trkpt>
      <trkpt lat="42.06384600" lon="2.701841000">
        <ele>473.00000</ele>
        <time>2010-01-01T00:26:52Z</time>
      </trkpt>
      <trkpt lat="42.06381500" lon="2.702096000">
        <ele>468.00000</ele>
        <time>2010-01-01T00:27:00Z</time>
      </trkpt>
      <trkpt lat="42.06392600" lon="2.702565000">
        <ele>465.00000</ele>
        <time>2010-01-01T00:27:14Z</time>
      </trkpt>
      <trkpt lat="42.06386100" lon="2.702765000">
        <ele>461.00000</ele>
        <time>2010-01-01T00:27:21Z</time>
      </trkpt>
      <trkpt lat="42.06392400" lon="2.703742000">
        <ele>458.00000</ele>
        <time>2010-01-01T00:27:50Z</time>
      </trkpt>
      <trkpt lat="42.06403300" lon="2.704436000">
        <ele>454.00000</ele>
        <time>2010-01-01T00:28:11Z</time>
      </trkpt>
      <trkpt lat="42.06419400" lon="2.704866000">
        <ele>456.00000</ele>
        <time>2010-01-01T00:28:25Z</time>
      </trkpt>
      <trkpt lat="42.06472400" lon="2.705456000">
        <ele>465.00000</ele>
        <time>2010-01-01T00:28:53Z</time>
      </trkpt>
      <trkpt lat="42.06501700" lon="2.706088000">
        <ele>467.00000</ele>
        <time>2010-01-01T00:29:15Z</time>
      </trkpt>
      <trkpt lat="42.06518400" lon="2.706289000">
        <ele>471.00000</ele>
        <time>2010-01-01T00:29:24Z</time>
      </trkpt>
      <trkpt lat="42.06564500" lon="2.706421000">
        <ele>485.00000</ele>
        <time>2010-01-01T00:29:43Z</time>
      </trkpt>
      <trkpt lat="42.06583600" lon="2.706641000">
        <ele>486.00000</ele>
        <time>2010-01-01T00:29:53Z</time>
      </trkpt>
      <trkpt lat="42.06607660" lon="2.706917520">
        <ele>489.00000</ele>
        <time>2010-01-01T00:30:05Z</time>
      </trkpt>
      <trkpt lat="42.06635540" lon="2.707625620">
        <ele>493.00000</ele>
        <time>2010-01-01T00:30:29Z</time>
      </trkpt>
      <trkpt lat="42.06638800" lon="2.708225000">
        <ele>487.00000</ele>
        <time>2010-01-01T00:30:47Z</time>
      </trkpt>
      <trkpt lat="42.06672180" lon="2.708698510">
        <ele>494.00000</ele>
        <time>2010-01-01T00:31:06Z</time>
      </trkpt>
      <trkpt lat="42.06680140" lon="2.708880900">
        <ele>497.00000</ele>
        <time>2010-01-01T00:31:13Z</time>
      </trkpt>
      <trkpt lat="42.06667400" lon="2.709127660">
        <ele>491.00000</ele>
        <time>2010-01-01T00:31:22Z</time>
      </trkpt>
      <trkpt lat="42.06631400" lon="2.709453000">
        <ele>483.00000</ele>
        <time>2010-01-01T00:31:39Z</time>
      </trkpt>
      <trkpt lat="42.06619100" lon="2.709768000">
        <ele>486.00000</ele>
        <time>2010-01-01T00:31:50Z</time>
      </trkpt>
      <trkpt lat="42.06601500" lon="2.709978000">
        <ele>481.00000</ele>
        <time>2010-01-01T00:31:59Z</time>
      </trkpt>
      <trkpt lat="42.06591400" lon="2.710313000">
        <ele>483.00000</ele>
        <time>2010-01-01T00:32:10Z</time>
      </trkpt>
      <trkpt lat="42.06598300" lon="2.711018000">
        <ele>482.00000</ele>
        <time>2010-01-01T00:32:31Z</time>
      </trkpt>
      <trkpt lat="42.06622800" lon="2.711505000">
        <ele>479.00000</ele>
        <time>2010-01-01T00:32:48Z</time>
      </trkpt>
      <trkpt lat="42.06646400" lon="2.711836000">
        <ele>477.00000</ele>
        <time>2010-01-01T00:33:02Z</time>
      </trkpt>
      <trkpt lat="42.06674200" lon="2.712007000">
        <ele>475.00000</ele>
        <time>2010-01-01T00:33:14Z</time>
      </trkpt>
      <trkpt lat="42.06702200" lon="2.712074000">
        <ele>476.00000</ele>
        <time>2010-01-01T00:33:26Z</time>
      </trkpt>
      <trkpt lat="42.06782400" lon="2.711935000">
        <ele>475.00000</ele>
        <time>2010-01-01T00:33:58Z</time>
      </trkpt>
      <trkpt lat="42.06824000" lon="2.711968000">
        <ele>476.00000</ele>
        <time>2010-01-01T00:34:15Z</time>
      </trkpt>
      <trkpt lat="42.06869200" lon="2.711588000">
        <ele>482.00000</ele>
        <time>2010-01-01T00:34:36Z</time>
      </trkpt>
      <trkpt lat="42.06909600" lon="2.711043000">
        <ele>487.00000</ele>
        <time>2010-01-01T00:34:59Z</time>
      </trkpt>
      <trkpt lat="42.06954900" lon="2.710619000">
        <ele>488.00000</ele>
        <time>2010-01-01T00:35:21Z</time>
      </trkpt>
      <trkpt lat="42.06946800" lon="2.710447000">
        <ele>492.00000</ele>
        <time>2010-01-01T00:35:27Z</time>
      </trkpt>
      <trkpt lat="42.06925800" lon="2.710310000">
        <ele>500.00000</ele>
        <time>2010-01-01T00:35:36Z</time>
      </trkpt>
      <trkpt lat="42.06902800" lon="2.710388000">
        <ele>505.00000</ele>
        <time>2010-01-01T00:35:46Z</time>
      </trkpt>
      <trkpt lat="42.06860600" lon="2.710416000">
        <ele>510.00000</ele>
        <time>2010-01-01T00:36:03Z</time>
      </trkpt>
      <trkpt lat="42.06841300" lon="2.710609000">
        <ele>508.00000</ele>
        <time>2010-01-01T00:36:12Z</time>
      </trkpt>
      <trkpt lat="42.06817800" lon="2.710738000">
        <ele>511.00000</ele>
        <time>2010-01-01T00:36:23Z</time>
      </trkpt>
      <trkpt lat="42.06787200" lon="2.710765000">
        <ele>516.00000</ele>
        <time>2010-01-01T00:36:35Z</time>
      </trkpt>
      <trkpt lat="42.06712900" lon="2.710611000">
        <ele>524.00000</ele>
        <time>2010-01-01T00:37:05Z</time>
      </trkpt>
      <trkpt lat="42.06691500" lon="2.710435000">
        <ele>522.00000</ele>
        <time>2010-01-01T00:37:15Z</time>
      </trkpt>
      <trkpt lat="42.06697400" lon="2.710237000">
        <ele>523.00000</ele>
        <time>2010-01-01T00:37:21Z</time>
      </trkpt>
      <trkpt lat="42.06723000" lon="2.709943000">
        <ele>528.00000</ele>
        <time>2010-01-01T00:37:35Z</time>
      </trkpt>
      <trkpt lat="42.06751900" lon="2.709724000">
        <ele>531.00000</ele>
        <time>2010-01-01T00:37:48Z</time>
      </trkpt>
      <trkpt lat="42.06787500" lon="2.708917000">
        <ele>535.00000</ele>
        <time>2010-01-01T00:38:16Z</time>
      </trkpt>
      <trkpt lat="42.06794200" lon="2.708539000">
        <ele>539.00000</ele>
        <time>2010-01-01T00:38:28Z</time>
      </trkpt>
      <trkpt lat="42.06775720" lon="2.707915300">
        <ele>550.00000</ele>
        <time>2010-01-01T00:38:47Z</time>
      </trkpt>
      <trkpt lat="42.06769350" lon="2.707293030">
        <ele>561.00000</ele>
        <time>2010-01-01T00:39:06Z</time>
      </trkpt>
      <trkpt lat="42.06751030" lon="2.706681480">
        <ele>561.00000</ele>
        <time>2010-01-01T00:39:26Z</time>
      </trkpt>
      <trkpt lat="42.06716780" lon="2.705640790">
        <ele>567.00000</ele>
        <time>2010-01-01T00:40:00Z</time>
      </trkpt>
      <trkpt lat="42.06686510" lon="2.705222360">
        <ele>572.00000</ele>
        <time>2010-01-01T00:40:17Z</time>
      </trkpt>
      <trkpt lat="42.06661030" lon="2.704943410">
        <ele>569.00000</ele>
        <time>2010-01-01T00:40:30Z</time>
      </trkpt>
      <trkpt lat="42.06645100" lon="2.704460620">
        <ele>572.00000</ele>
        <time>2010-01-01T00:40:46Z</time>
      </trkpt>
      <trkpt lat="42.06642600" lon="2.704125000">
        <ele>575.00000</ele>
        <time>2010-01-01T00:40:56Z</time>
      </trkpt>
      <trkpt lat="42.06641600" lon="2.703853000">
        <ele>576.00000</ele>
        <time>2010-01-01T00:41:04Z</time>
      </trkpt>
      <trkpt lat="42.06668900" lon="2.703590000">
        <ele>585.00000</ele>
        <time>2010-01-01T00:41:17Z</time>
      </trkpt>
      <trkpt lat="42.06675000" lon="2.703258000">
        <ele>584.00000</ele>
        <time>2010-01-01T00:41:27Z</time>
      </trkpt>
      <trkpt lat="42.06699000" lon="2.702720000">
        <ele>589.00000</ele>
        <time>2010-01-01T00:41:46Z</time>
      </trkpt>
      <trkpt lat="42.06697800" lon="2.702345000">
        <ele>592.00000</ele>
        <time>2010-01-01T00:41:57Z</time>
      </trkpt>
      <trkpt lat="42.06699260" lon="2.702025170">
        <ele>595.00000</ele>
        <time>2010-01-01T00:42:07Z</time>
      </trkpt>
      <trkpt lat="42.06753600" lon="2.701610000">
        <ele>602.00000</ele>
        <time>2010-01-01T00:42:32Z</time>
      </trkpt>
      <trkpt lat="42.06764200" lon="2.701394000">
        <ele>602.00000</ele>
        <time>2010-01-01T00:42:40Z</time>
      </trkpt>
      <trkpt lat="42.06760600" lon="2.701040000">
        <ele>604.00000</ele>
        <time>2010-01-01T00:42:50Z</time>
      </trkpt>
      <trkpt lat="42.06742900" lon="2.700639000">
        <ele>609.00000</ele>
        <time>2010-01-01T00:43:04Z</time>
      </trkpt>
      <trkpt lat="42.06730320" lon="2.700383660">
        <ele>612.00000</ele>
        <time>2010-01-01T00:43:13Z</time>
      </trkpt>
      <trkpt lat="42.06730200" lon="2.700131000">
        <ele>615.00000</ele>
        <time>2010-01-01T00:43:21Z</time>
      </trkpt>
      <trkpt lat="42.06724740" lon="2.699761390">
        <ele>619.00000</ele>
        <time>2010-01-01T00:43:32Z</time>
      </trkpt>
      <trkpt lat="42.06735890" lon="2.699385880">
        <ele>621.00000</ele>
        <time>2010-01-01T00:43:44Z</time>
      </trkpt>
      <trkpt lat="42.06712900" lon="2.698607000">
        <ele>627.00000</ele>
        <time>2010-01-01T00:44:09Z</time>
      </trkpt>
      <trkpt lat="42.06699260" lon="2.698280810">
        <ele>630.00000</ele>
        <time>2010-01-01T00:44:20Z</time>
      </trkpt>
      <trkpt lat="42.06701600" lon="2.697636000">
        <ele>635.00000</ele>
        <time>2010-01-01T00:44:39Z</time>
      </trkpt>
      <trkpt lat="42.06649100" lon="2.696388000">
        <ele>649.00000</ele>
        <time>2010-01-01T00:45:22Z</time>
      </trkpt>
      <trkpt lat="42.06637930" lon="2.696145770">
        <ele>654.00000</ele>
        <time>2010-01-01T00:45:30Z</time>
      </trkpt>
      <trkpt lat="42.06614030" lon="2.696017020">
        <ele>659.00000</ele>
        <time>2010-01-01T00:45:40Z</time>
      </trkpt>
      <trkpt lat="42.06587750" lon="2.695823900">
        <ele>660.00000</ele>
        <time>2010-01-01T00:45:52Z</time>
      </trkpt>
      <trkpt lat="42.06592530" lon="2.695491310">
        <ele>664.00000</ele>
        <time>2010-01-01T00:46:03Z</time>
      </trkpt>
      <trkpt lat="42.06616800" lon="2.695044000">
        <ele>671.00000</ele>
        <time>2010-01-01T00:46:19Z</time>
      </trkpt>
      <trkpt lat="42.06605270" lon="2.694804660">
        <ele>670.00000</ele>
        <time>2010-01-01T00:46:27Z</time>
      </trkpt>
      <trkpt lat="42.06613240" lon="2.694472070">
        <ele>673.00000</ele>
        <time>2010-01-01T00:46:38Z</time>
      </trkpt>
      <trkpt lat="42.06615900" lon="2.694005000">
        <ele>673.00000</ele>
        <time>2010-01-01T00:46:52Z</time>
      </trkpt>
      <trkpt lat="42.06602900" lon="2.693626000">
        <ele>674.00000</ele>
        <time>2010-01-01T00:47:04Z</time>
      </trkpt>
      <trkpt lat="42.06601300" lon="2.692486000">
        <ele>689.00000</ele>
        <time>2010-01-01T00:47:38Z</time>
      </trkpt>
      <trkpt lat="42.06614030" lon="2.692251200">
        <ele>690.00000</ele>
        <time>2010-01-01T00:47:47Z</time>
      </trkpt>
      <trkpt lat="42.06625980" lon="2.692004440">
        <ele>696.00000</ele>
        <time>2010-01-01T00:47:55Z</time>
      </trkpt>
      <trkpt lat="42.06644200" lon="2.691873000">
        <ele>699.00000</ele>
        <time>2010-01-01T00:48:04Z</time>
      </trkpt>
      <trkpt lat="42.06671380" lon="2.691907880">
        <ele>694.00000</ele>
        <time>2010-01-01T00:48:15Z</time>
      </trkpt>
      <trkpt lat="42.06689700" lon="2.691864960">
        <ele>691.00000</ele>
        <time>2010-01-01T00:48:22Z</time>
      </trkpt>
      <trkpt lat="42.06721200" lon="2.691292000">
        <ele>705.00000</ele>
        <time>2010-01-01T00:48:43Z</time>
      </trkpt>
      <trkpt lat="42.06779500" lon="2.691286000">
        <ele>708.00000</ele>
        <time>2010-01-01T00:49:07Z</time>
      </trkpt>
      <trkpt lat="42.06807580" lon="2.691264150">
        <ele>707.00000</ele>
        <time>2010-01-01T00:49:18Z</time>
      </trkpt>
      <trkpt lat="42.06816000" lon="2.690893000">
        <ele>720.00000</ele>
        <time>2010-01-01T00:49:29Z</time>
      </trkpt>
      <trkpt lat="42.06825600" lon="2.690678000">
        <ele>726.00000</ele>
        <time>2010-01-01T00:49:37Z</time>
      </trkpt>
      <trkpt lat="42.06846300" lon="2.690543000">
        <ele>729.00000</ele>
        <time>2010-01-01T00:49:46Z</time>
      </trkpt>
      <trkpt lat="42.06868200" lon="2.690531000">
        <ele>731.00000</ele>
        <time>2010-01-01T00:49:55Z</time>
      </trkpt>
      <trkpt lat="42.06919400" lon="2.690747000">
        <ele>731.00000</ele>
        <time>2010-01-01T00:50:16Z</time>
      </trkpt>
      <trkpt lat="42.06944500" lon="2.690765000">
        <ele>734.00000</ele>
        <time>2010-01-01T00:50:26Z</time>
      </trkpt>
      <trkpt lat="42.06976420" lon="2.690792080">
        <ele>737.00000</ele>
        <time>2010-01-01T00:50:39Z</time>
      </trkpt>
      <trkpt lat="42.06999200" lon="2.690568000">
        <ele>745.00000</ele>
        <time>2010-01-01T00:50:50Z</time>
      </trkpt>
      <trkpt lat="42.07015000" lon="2.690399000">
        <ele>749.00000</ele>
        <time>2010-01-01T00:50:59Z</time>
      </trkpt>
      <trkpt lat="42.07033770" lon="2.690352200">
        <ele>751.00000</ele>
        <time>2010-01-01T00:51:06Z</time>
      </trkpt>
      <trkpt lat="42.07055900" lon="2.690641000">
        <ele>744.00000</ele>
        <time>2010-01-01T00:51:19Z</time>
      </trkpt>
      <trkpt lat="42.07079800" lon="2.690767000">
        <ele>746.00000</ele>
        <time>2010-01-01T00:51:29Z</time>
      </trkpt>
      <trkpt lat="42.07101300" lon="2.690843000">
        <ele>751.00000</ele>
        <time>2010-01-01T00:51:38Z</time>
      </trkpt>
      <trkpt lat="42.07123600" lon="2.690819000">
        <ele>759.00000</ele>
        <time>2010-01-01T00:51:47Z</time>
      </trkpt>
      <trkpt lat="42.07171400" lon="2.690597000">
        <ele>769.00000</ele>
        <time>2010-01-01T00:52:07Z</time>
      </trkpt>
      <trkpt lat="42.07204990" lon="2.690523860">
        <ele>769.00000</ele>
        <time>2010-01-01T00:52:21Z</time>
      </trkpt>
      <trkpt lat="42.07211370" lon="2.690169810">
        <ele>775.00000</ele>
        <time>2010-01-01T00:52:31Z</time>
      </trkpt>
      <trkpt lat="42.07224500" lon="2.689994000">
        <ele>777.00000</ele>
        <time>2010-01-01T00:52:39Z</time>
      </trkpt>
      <trkpt lat="42.07247500" lon="2.690172000">
        <ele>772.00000</ele>
        <time>2010-01-01T00:52:49Z</time>
      </trkpt>
      <trkpt lat="42.07274800" lon="2.690240000">
        <ele>774.00000</ele>
        <time>2010-01-01T00:53:00Z</time>
      </trkpt>
      <trkpt lat="42.07311710" lon="2.690159080">
        <ele>777.00000</ele>
        <time>2010-01-01T00:53:15Z</time>
      </trkpt>
      <trkpt lat="42.07344360" lon="2.689708470">
        <ele>783.00000</ele>
        <time>2010-01-01T00:53:34Z</time>
      </trkpt>
      <trkpt lat="42.07361900" lon="2.689804000">
        <ele>779.00000</ele>
        <time>2010-01-01T00:53:42Z</time>
      </trkpt>
      <trkpt lat="42.07421200" lon="2.689786000">
        <ele>784.00000</ele>
        <time>2010-01-01T00:54:05Z</time>
      </trkpt>
      <trkpt lat="42.07483800" lon="2.689572000">
        <ele>799.00000</ele>
        <time>2010-01-01T00:54:31Z</time>
      </trkpt>
      <trkpt lat="42.07572000" lon="2.689102000">
        <ele>809.00000</ele>
        <time>2010-01-01T00:55:09Z</time>
      </trkpt>
      <trkpt lat="42.07605000" lon="2.688754000">
        <ele>816.00000</ele>
        <time>2010-01-01T00:55:26Z</time>
      </trkpt>
      <trkpt lat="42.07627000" lon="2.688302000">
        <ele>823.00000</ele>
        <time>2010-01-01T00:55:42Z</time>
      </trkpt>
      <trkpt lat="42.07622300" lon="2.687659000">
        <ele>831.00000</ele>
        <time>2010-01-01T00:56:01Z</time>
      </trkpt>
      <trkpt lat="42.07632900" lon="2.687478000">
        <ele>828.00000</ele>
        <time>2010-01-01T00:56:08Z</time>
      </trkpt>
      <trkpt lat="42.07642210" lon="2.687326660">
        <ele>827.00000</ele>
        <time>2010-01-01T00:56:14Z</time>
      </trkpt>
      <trkpt lat="42.07674700" lon="2.687245000">
        <ele>829.00000</ele>
        <time>2010-01-01T00:56:27Z</time>
      </trkpt>
      <trkpt lat="42.07712300" lon="2.687304000">
        <ele>830.00000</ele>
        <time>2010-01-01T00:56:42Z</time>
      </trkpt>
      <trkpt lat="42.07780500" lon="2.687548000">
        <ele>836.00000</ele>
        <time>2010-01-01T00:57:11Z</time>
      </trkpt>
      <trkpt lat="42.07828200" lon="2.687635000">
        <ele>834.00000</ele>
        <time>2010-01-01T00:57:30Z</time>
      </trkpt>
      <trkpt lat="42.07906590" lon="2.687444680">
        <ele>837.00000</ele>
        <time>2010-01-01T00:58:02Z</time>
      </trkpt>
      <trkpt lat="42.07958000" lon="2.687567000">
        <ele>833.00000</ele>
        <time>2010-01-01T00:58:23Z</time>
      </trkpt>
      <trkpt lat="42.08002200" lon="2.687365000">
        <ele>835.00000</ele>
        <time>2010-01-01T00:58:41Z</time>
      </trkpt>
      <trkpt lat="42.08098700" lon="2.687137000">
        <ele>827.00000</ele>
        <time>2010-01-01T00:59:21Z</time>
      </trkpt>
      <trkpt lat="42.08128760" lon="2.686736580">
        <ele>832.00000</ele>
        <time>2010-01-01T00:59:38Z</time>
      </trkpt>
      <trkpt lat="42.08149460" lon="2.686736580">
        <ele>830.00000</ele>
        <time>2010-01-01T00:59:46Z</time>
      </trkpt>
      <trkpt lat="42.08177000" lon="2.687093000">
        <ele>819.00000</ele>
        <time>2010-01-01T01:00:01Z</time>
      </trkpt>
      <trkpt lat="42.08247300" lon="2.687429000">
        <ele>823.00000</ele>
        <time>2010-01-01T01:00:31Z</time>
      </trkpt>
      <trkpt lat="42.08281900" lon="2.687729000">
        <ele>814.00000</ele>
        <time>2010-01-01T01:00:47Z</time>
      </trkpt>
      <trkpt lat="42.08362400" lon="2.688040000">
        <ele>803.00000</ele>
        <time>2010-01-01T01:01:21Z</time>
      </trkpt>
      <trkpt lat="42.08403470" lon="2.687680720">
        <ele>805.00000</ele>
        <time>2010-01-01T01:01:41Z</time>
      </trkpt>
      <trkpt lat="42.08490600" lon="2.687410000">
        <ele>788.00000</ele>
        <time>2010-01-01T01:02:16Z</time>
      </trkpt>
      <trkpt lat="42.08567700" lon="2.687121000">
        <ele>779.00000</ele>
        <time>2010-01-01T01:02:48Z</time>
      </trkpt>
      <trkpt lat="42.08603300" lon="2.687165000">
        <ele>773.00000</ele>
        <time>2010-01-01T01:03:03Z</time>
      </trkpt>
      <trkpt lat="42.08648400" lon="2.687732000">
        <ele>765.00000</ele>
        <time>2010-01-01T01:03:27Z</time>
      </trkpt>
      <trkpt lat="42.08662400" lon="2.687652000">
        <ele>764.00000</ele>
        <time>2010-01-01T01:03:33Z</time>
      </trkpt>
      <trkpt lat="42.08655600" lon="2.687282000">
        <ele>764.00000</ele>
        <time>2010-01-01T01:03:45Z</time>
      </trkpt>
      <trkpt lat="42.08633600" lon="2.686789000">
        <ele>762.00000</ele>
        <time>2010-01-01T01:04:02Z</time>
      </trkpt>
      <trkpt lat="42.08619700" lon="2.686306000">
        <ele>760.00000</ele>
        <time>2010-01-01T01:04:17Z</time>
      </trkpt>
      <trkpt lat="42.08605800" lon="2.685212000">
        <ele>755.00000</ele>
        <time>2010-01-01T01:04:50Z</time>
      </trkpt>
      <trkpt lat="42.08587000" lon="2.684683000">
        <ele>758.00000</ele>
        <time>2010-01-01T01:05:08Z</time>
      </trkpt>
      <trkpt lat="42.08560300" lon="2.684219000">
        <ele>770.00000</ele>
        <time>2010-01-01T01:05:25Z</time>
      </trkpt>
      <trkpt lat="42.08539700" lon="2.683247000">
        <ele>769.00000</ele>
        <time>2010-01-01T01:05:55Z</time>
      </trkpt>
      <trkpt lat="42.08524900" lon="2.683008000">
        <ele>774.00000</ele>
        <time>2010-01-01T01:06:04Z</time>
      </trkpt>
      <trkpt lat="42.08512000" lon="2.682625000">
        <ele>778.00000</ele>
        <time>2010-01-01T01:06:17Z</time>
      </trkpt>
      <trkpt lat="42.08499600" lon="2.682022000">
        <ele>782.00000</ele>
        <time>2010-01-01T01:06:35Z</time>
      </trkpt>
      <trkpt lat="42.08506600" lon="2.681063000">
        <ele>785.00000</ele>
        <time>2010-01-01T01:07:04Z</time>
      </trkpt>
      <trkpt lat="42.08474600" lon="2.680555000">
        <ele>791.00000</ele>
        <time>2010-01-01T01:07:24Z</time>
      </trkpt>
      <trkpt lat="42.08466700" lon="2.680298000">
        <ele>791.00000</ele>
        <time>2010-01-01T01:07:32Z</time>
      </trkpt>
      <trkpt lat="42.08470100" lon="2.679852000">
        <ele>790.00000</ele>
        <time>2010-01-01T01:07:45Z</time>
      </trkpt>
      <trkpt lat="42.08498100" lon="2.679177000">
        <ele>790.00000</ele>
        <time>2010-01-01T01:08:08Z</time>
      </trkpt>
      <trkpt lat="42.08495200" lon="2.678828000">
        <ele>796.00000</ele>
        <time>2010-01-01T01:08:19Z</time>
      </trkpt>
      <trkpt lat="42.08477700" lon="2.678387000">
        <ele>806.00000</ele>
        <time>2010-01-01T01:08:34Z</time>
      </trkpt>
      <trkpt lat="42.08439900" lon="2.677699000">
        <ele>810.00000</ele>
        <time>2010-01-01T01:08:59Z</time>
      </trkpt>
      <trkpt lat="42.08455800" lon="2.677472000">
        <ele>812.00000</ele>
        <time>2010-01-01T01:09:08Z</time>
      </trkpt>
      <trkpt lat="42.08459300" lon="2.677310000">
        <ele>815.00000</ele>
        <time>2010-01-01T01:09:13Z</time>
      </trkpt>
      <trkpt lat="42.08451000" lon="2.676704000">
        <ele>826.00000</ele>
        <time>2010-01-01T01:09:32Z</time>
      </trkpt>
      <trkpt lat="42.08455800" lon="2.676221000">
        <ele>832.00000</ele>
        <time>2010-01-01T01:09:46Z</time>
      </trkpt>
      <trkpt lat="42.08426900" lon="2.675087000">
        <ele>839.00000</ele>
        <time>2010-01-01T01:10:22Z</time>
      </trkpt>
      <trkpt lat="42.08422000" lon="2.674569000">
        <ele>843.00000</ele>
        <time>2010-01-01T01:10:37Z</time>
      </trkpt>
      <trkpt lat="42.08415300" lon="2.674418000">
        <ele>844.00000</ele>
        <time>2010-01-01T01:10:43Z</time>
      </trkpt>
      <trkpt lat="42.08404100" lon="2.674386000">
        <ele>845.00000</ele>
        <time>2010-01-01T01:10:47Z</time>
      </trkpt>
      <trkpt lat="42.08395100" lon="2.674569000">
        <ele>844.00000</ele>
        <time>2010-01-01T01:10:54Z</time>
      </trkpt>
      <trkpt lat="42.08388700" lon="2.674860000">
        <ele>842.00000</ele>
        <time>2010-01-01T01:11:03Z</time>
      </trkpt>
      <trkpt lat="42.08371200" lon="2.675192000">
        <ele>846.00000</ele>
        <time>2010-01-01T01:11:15Z</time>
      </trkpt>
      <trkpt lat="42.08359500" lon="2.675880000">
        <ele>848.00000</ele>
        <time>2010-01-01T01:11:36Z</time>
      </trkpt>
      <trkpt lat="42.08349300" lon="2.676007000">
        <ele>848.00000</ele>
        <time>2010-01-01T01:11:41Z</time>
      </trkpt>
      <trkpt lat="42.08336900" lon="2.676016000">
        <ele>849.00000</ele>
        <time>2010-01-01T01:11:46Z</time>
      </trkpt>
      <trkpt lat="42.08331000" lon="2.675923000">
        <ele>849.00000</ele>
        <time>2010-01-01T01:11:50Z</time>
      </trkpt>
      <trkpt lat="42.08332700" lon="2.675235000">
        <ele>853.00000</ele>
        <time>2010-01-01T01:12:10Z</time>
      </trkpt>
      <trkpt lat="42.08354100" lon="2.673834000">
        <ele>856.00000</ele>
        <time>2010-01-01T01:12:53Z</time>
      </trkpt>
      <trkpt lat="42.08347000" lon="2.673331000">
        <ele>856.00000</ele>
        <time>2010-01-01T01:13:08Z</time>
      </trkpt>
      <trkpt lat="42.08336000" lon="2.673194000">
        <ele>857.00000</ele>
        <time>2010-01-01T01:13:14Z</time>
      </trkpt>
      <trkpt lat="42.08229500" lon="2.672754000">
        <ele>839.00000</ele>
        <time>2010-01-01T01:13:59Z</time>
      </trkpt>
      <trkpt lat="42.08200400" lon="2.672773000">
        <ele>834.00000</ele>
        <time>2010-01-01T01:14:10Z</time>
      </trkpt>
      <trkpt lat="42.08147200" lon="2.673284000">
        <ele>825.00000</ele>
        <time>2010-01-01T01:14:37Z</time>
      </trkpt>
      <trkpt lat="42.08135900" lon="2.673301000">
        <ele>824.00000</ele>
        <time>2010-01-01T01:14:41Z</time>
      </trkpt>
      <trkpt lat="42.08139800" lon="2.671958000">
        <ele>809.00000</ele>
        <time>2010-01-01T01:15:21Z</time>
      </trkpt>
      <trkpt lat="42.08151500" lon="2.671532000">
        <ele>808.00000</ele>
        <time>2010-01-01T01:15:35Z</time>
      </trkpt>
      <trkpt lat="42.08144400" lon="2.670709000">
        <ele>802.00000</ele>
        <time>2010-01-01T01:15:59Z</time>
      </trkpt>
      <trkpt lat="42.08096700" lon="2.669530000">
        <ele>786.00000</ele>
        <time>2010-01-01T01:16:39Z</time>
      </trkpt>
      <trkpt lat="42.08074600" lon="2.669708000">
        <ele>781.00000</ele>
        <time>2010-01-01T01:16:49Z</time>
      </trkpt>
      <trkpt lat="42.08061800" lon="2.669557000">
        <ele>775.00000</ele>
        <time>2010-01-01T01:16:56Z</time>
      </trkpt>
      <trkpt lat="42.08055800" lon="2.669266000">
        <ele>771.00000</ele>
        <time>2010-01-01T01:17:05Z</time>
      </trkpt>
      <trkpt lat="42.08069100" lon="2.668789000">
        <ele>771.00000</ele>
        <time>2010-01-01T01:17:20Z</time>
      </trkpt>
      <trkpt lat="42.08063100" lon="2.668573000">
        <ele>768.00000</ele>
        <time>2010-01-01T01:17:27Z</time>
      </trkpt>
      <trkpt lat="42.08038700" lon="2.668282000">
        <ele>760.00000</ele>
        <time>2010-01-01T01:17:40Z</time>
      </trkpt>
      <trkpt lat="42.08017300" lon="2.667376000">
        <ele>753.00000</ele>
        <time>2010-01-01T01:18:08Z</time>
      </trkpt>
      <trkpt lat="42.08031200" lon="2.666245000">
        <ele>749.00000</ele>
        <time>2010-01-01T01:18:42Z</time>
      </trkpt>
      <trkpt lat="42.08040600" lon="2.665953000">
        <ele>746.00000</ele>
        <time>2010-01-01T01:18:52Z</time>
      </trkpt>
      <trkpt lat="42.08047500" lon="2.665855000">
        <ele>745.00000</ele>
        <time>2010-01-01T01:18:56Z</time>
      </trkpt>
      <trkpt lat="42.08080700" lon="2.665738000">
        <ele>740.00000</ele>
        <time>2010-01-01T01:19:10Z</time>
      </trkpt>
      <trkpt lat="42.08124400" lon="2.665869000">
        <ele>745.00000</ele>
        <time>2010-01-01T01:19:28Z</time>
      </trkpt>
      <trkpt lat="42.08138100" lon="2.665478000">
        <ele>741.00000</ele>
        <time>2010-01-01T01:19:40Z</time>
      </trkpt>
      <trkpt lat="42.08153800" lon="2.664424000">
        <ele>726.00000</ele>
        <time>2010-01-01T01:20:12Z</time>
      </trkpt>
      <trkpt lat="42.08161700" lon="2.664320000">
        <ele>725.00000</ele>
        <time>2010-01-01T01:20:17Z</time>
      </trkpt>
      <trkpt lat="42.08191500" lon="2.664437000">
        <ele>731.00000</ele>
        <time>2010-01-01T01:20:29Z</time>
      </trkpt>
      <trkpt lat="42.08203400" lon="2.664394000">
        <ele>731.00000</ele>
        <time>2010-01-01T01:20:34Z</time>
      </trkpt>
      <trkpt lat="42.08242900" lon="2.663627000">
        <ele>712.00000</ele>
        <time>2010-01-01T01:21:02Z</time>
      </trkpt>
      <trkpt lat="42.08257800" lon="2.663515000">
        <ele>711.00000</ele>
        <time>2010-01-01T01:21:09Z</time>
      </trkpt>
      <trkpt lat="42.08267000" lon="2.663555000">
        <ele>713.00000</ele>
        <time>2010-01-01T01:21:13Z</time>
      </trkpt>
      <trkpt lat="42.08278500" lon="2.663738000">
        <ele>718.00000</ele>
        <time>2010-01-01T01:21:20Z</time>
      </trkpt>
      <trkpt lat="42.08356600" lon="2.665282000">
        <ele>725.00000</ele>
        <time>2010-01-01T01:22:15Z</time>
      </trkpt>
      <trkpt lat="42.08381700" lon="2.665373000">
        <ele>725.00000</ele>
        <time>2010-01-01T01:22:26Z</time>
      </trkpt>
      <trkpt lat="42.08388300" lon="2.664111000">
        <ele>704.00000</ele>
        <time>2010-01-01T01:23:03Z</time>
      </trkpt>
      <trkpt lat="42.08406800" lon="2.663660000">
        <ele>700.00000</ele>
        <time>2010-01-01T01:23:19Z</time>
      </trkpt>
      <trkpt lat="42.08434000" lon="2.663358000">
        <ele>697.00000</ele>
        <time>2010-01-01T01:23:33Z</time>
      </trkpt>
      <trkpt lat="42.08544100" lon="2.663641000">
        <ele>697.00000</ele>
        <time>2010-01-01T01:24:17Z</time>
      </trkpt>
      <trkpt lat="42.08557100" lon="2.663579000">
        <ele>693.00000</ele>
        <time>2010-01-01T01:24:23Z</time>
      </trkpt>
      <trkpt lat="42.08561600" lon="2.663387000">
        <ele>690.00000</ele>
        <time>2010-01-01T01:24:29Z</time>
      </trkpt>
      <trkpt lat="42.08556400" lon="2.662866000">
        <ele>691.00000</ele>
        <time>2010-01-01T01:24:45Z</time>
      </trkpt>
      <trkpt lat="42.08501100" lon="2.661558000">
        <ele>706.00000</ele>
        <time>2010-01-01T01:25:29Z</time>
      </trkpt>
      <trkpt lat="42.08447400" lon="2.660748000">
        <ele>708.00000</ele>
        <time>2010-01-01T01:26:02Z</time>
      </trkpt>
      <trkpt lat="42.08451300" lon="2.660486000">
        <ele>707.00000</ele>
        <time>2010-01-01T01:26:10Z</time>
      </trkpt>
      <trkpt lat="42.08491800" lon="2.659849000">
        <ele>716.00000</ele>
        <time>2010-01-01T01:26:34Z</time>
      </trkpt>
      <trkpt lat="42.08504200" lon="2.659421000">
        <ele>719.00000</ele>
        <time>2010-01-01T01:26:48Z</time>
      </trkpt>
      <trkpt lat="42.08495600" lon="2.659236000">
        <ele>718.00000</ele>
        <time>2010-01-01T01:26:55Z</time>
      </trkpt>
      <trkpt lat="42.08437100" lon="2.658692000">
        <ele>728.00000</ele>
        <time>2010-01-01T01:27:23Z</time>
      </trkpt>
      <trkpt lat="42.08422400" lon="2.658445000">
        <ele>734.00000</ele>
        <time>2010-01-01T01:27:32Z</time>
      </trkpt>
      <trkpt lat="42.08384900" lon="2.658295000">
        <ele>733.00000</ele>
        <time>2010-01-01T01:27:48Z</time>
      </trkpt>
      <trkpt lat="42.08366900" lon="2.658285000">
        <ele>733.00000</ele>
        <time>2010-01-01T01:27:55Z</time>
      </trkpt>
      <trkpt lat="42.08322250" lon="2.658863060">
        <ele>727.00000</ele>
        <time>2010-01-01T01:28:20Z</time>
      </trkpt>
      <trkpt lat="42.08260140" lon="2.659313670">
        <ele>720.00000</ele>
        <time>2010-01-01T01:28:48Z</time>
      </trkpt>
      <trkpt lat="42.08163000" lon="2.658991810">
        <ele>725.00000</ele>
        <time>2010-01-01T01:29:28Z</time>
      </trkpt>
      <trkpt lat="42.08104070" lon="2.658712860">
        <ele>719.00000</ele>
        <time>2010-01-01T01:29:53Z</time>
      </trkpt>
      <trkpt lat="42.08026030" lon="2.658176420">
        <ele>711.00000</ele>
        <time>2010-01-01T01:30:28Z</time>
      </trkpt>
      <trkpt lat="42.07985000" lon="2.657464000">
        <ele>708.00000</ele>
        <time>2010-01-01T01:30:55Z</time>
      </trkpt>
      <trkpt lat="42.07974600" lon="2.657018000">
        <ele>706.00000</ele>
        <time>2010-01-01T01:31:09Z</time>
      </trkpt>
      <trkpt lat="42.07966300" lon="2.655940000">
        <ele>697.00000</ele>
        <time>2010-01-01T01:31:41Z</time>
      </trkpt>
      <trkpt lat="42.07989000" lon="2.655475000">
        <ele>693.00000</ele>
        <time>2010-01-01T01:31:58Z</time>
      </trkpt>
      <trkpt lat="42.08033100" lon="2.654833000">
        <ele>685.00000</ele>
        <time>2010-01-01T01:32:24Z</time>
      </trkpt>
      <trkpt lat="42.08053800" lon="2.653429000">
        <ele>689.00000</ele>
        <time>2010-01-01T01:33:06Z</time>
      </trkpt>
      <trkpt lat="42.08048200" lon="2.653237000">
        <ele>689.00000</ele>
        <time>2010-01-01T01:33:13Z</time>
      </trkpt>
      <trkpt lat="42.07983700" lon="2.652299000">
        <ele>675.00000</ele>
        <time>2010-01-01T01:33:51Z</time>
      </trkpt>
      <trkpt lat="42.08029300" lon="2.651648000">
        <ele>683.00000</ele>
        <time>2010-01-01T01:34:17Z</time>
      </trkpt>
      <trkpt lat="42.08056100" lon="2.651426000">
        <ele>687.00000</ele>
        <time>2010-01-01T01:34:30Z</time>
      </trkpt>
      <trkpt lat="42.08071300" lon="2.651417000">
        <ele>689.00000</ele>
        <time>2010-01-01T01:34:36Z</time>
      </trkpt>
      <trkpt lat="42.08141600" lon="2.651091000">
        <ele>695.00000</ele>
        <time>2010-01-01T01:35:06Z</time>
      </trkpt>
      <trkpt lat="42.08205100" lon="2.650299000">
        <ele>695.00000</ele>
        <time>2010-01-01T01:35:40Z</time>
      </trkpt>
      <trkpt lat="42.08279100" lon="2.649806000">
        <ele>695.00000</ele>
        <time>2010-01-01T01:36:13Z</time>
      </trkpt>
      <trkpt lat="42.08325900" lon="2.649386000">
        <ele>691.00000</ele>
        <time>2010-01-01T01:36:36Z</time>
      </trkpt>
      <trkpt lat="42.08337800" lon="2.649191000">
        <ele>688.00000</ele>
        <time>2010-01-01T01:36:43Z</time>
      </trkpt>
      <trkpt lat="42.08339500" lon="2.648911000">
        <ele>681.00000</ele>
        <time>2010-01-01T01:36:52Z</time>
      </trkpt>
      <trkpt lat="42.08361100" lon="2.648418000">
        <ele>679.00000</ele>
        <time>2010-01-01T01:37:09Z</time>
      </trkpt>
      <trkpt lat="42.08375200" lon="2.648234000">
        <ele>680.00000</ele>
        <time>2010-01-01T01:37:16Z</time>
      </trkpt>
      <trkpt lat="42.08380100" lon="2.648035000">
        <ele>678.00000</ele>
        <time>2010-01-01T01:37:23Z</time>
      </trkpt>
      <trkpt lat="42.08376400" lon="2.647760000">
        <ele>673.00000</ele>
        <time>2010-01-01T01:37:31Z</time>
      </trkpt>
      <trkpt lat="42.08386100" lon="2.646406000">
        <ele>667.00000</ele>
        <time>2010-01-01T01:38:11Z</time>
      </trkpt>
      <trkpt lat="42.08398100" lon="2.645939000">
        <ele>671.00000</ele>
        <time>2010-01-01T01:38:26Z</time>
      </trkpt>
      <trkpt lat="42.08373400" lon="2.645065000">
        <ele>667.00000</ele>
        <time>2010-01-01T01:38:54Z</time>
      </trkpt>
      <trkpt lat="42.08378600" lon="2.644725000">
        <ele>669.00000</ele>
        <time>2010-01-01T01:39:04Z</time>
      </trkpt>
      <trkpt lat="42.08427500" lon="2.643575000">
        <ele>673.00000</ele>
        <time>2010-01-01T01:39:44Z</time>
      </trkpt>
      <trkpt lat="42.08419700" lon="2.642860000">
        <ele>673.00000</ele>
        <time>2010-01-01T01:40:05Z</time>
      </trkpt>
      <trkpt lat="42.08426200" lon="2.642695000">
        <ele>676.00000</ele>
        <time>2010-01-01T01:40:11Z</time>
      </trkpt>
      <trkpt lat="42.08418900" lon="2.641937000">
        <ele>676.00000</ele>
        <time>2010-01-01T01:40:33Z</time>
      </trkpt>
      <trkpt lat="42.08424700" lon="2.641061000">
        <ele>677.00000</ele>
        <time>2010-01-01T01:40:59Z</time>
      </trkpt>
      <trkpt lat="42.08476700" lon="2.640068000">
        <ele>685.00000</ele>
        <time>2010-01-01T01:41:36Z</time>
      </trkpt>
      <trkpt lat="42.08537000" lon="2.639266000">
        <ele>695.00000</ele>
        <time>2010-01-01T01:42:09Z</time>
      </trkpt>
      <trkpt lat="42.08572800" lon="2.638999000">
        <ele>701.00000</ele>
        <time>2010-01-01T01:42:26Z</time>
      </trkpt>
      <trkpt lat="42.08585400" lon="2.638759000">
        <ele>699.00000</ele>
        <time>2010-01-01T01:42:35Z</time>
      </trkpt>
      <trkpt lat="42.08587800" lon="2.638502000">
        <ele>694.00000</ele>
        <time>2010-01-01T01:42:42Z</time>
      </trkpt>
      <trkpt lat="42.08579800" lon="2.638158000">
        <ele>688.00000</ele>
        <time>2010-01-01T01:42:53Z</time>
      </trkpt>
      <trkpt lat="42.08579400" lon="2.637811000">
        <ele>687.00000</ele>
        <time>2010-01-01T01:43:03Z</time>
      </trkpt>
      <trkpt lat="42.08599600" lon="2.637494000">
        <ele>699.00000</ele>
        <time>2010-01-01T01:43:16Z</time>
      </trkpt>
      <trkpt lat="42.08647400" lon="2.636969000">
        <ele>710.00000</ele>
        <time>2010-01-01T01:43:40Z</time>
      </trkpt>
      <trkpt lat="42.08679500" lon="2.636975000">
        <ele>715.00000</ele>
        <time>2010-01-01T01:43:53Z</time>
      </trkpt>
      <trkpt lat="42.08735300" lon="2.636743000">
        <ele>707.00000</ele>
        <time>2010-01-01T01:44:17Z</time>
      </trkpt>
      <trkpt lat="42.08759600" lon="2.636539000">
        <ele>704.00000</ele>
        <time>2010-01-01T01:44:28Z</time>
      </trkpt>
      <trkpt lat="42.08758590" lon="2.636053560">
        <ele>710.00000</ele>
        <time>2010-01-01T01:44:42Z</time>
      </trkpt>
      <trkpt lat="42.08864800" lon="2.635443000">
        <ele>709.00000</ele>
        <time>2010-01-01T01:45:29Z</time>
      </trkpt>
      <trkpt lat="42.08908100" lon="2.635127000">
        <ele>707.00000</ele>
        <time>2010-01-01T01:45:48Z</time>
      </trkpt>
      <trkpt lat="42.08971900" lon="2.634832000">
        <ele>704.00000</ele>
        <time>2010-01-01T01:46:15Z</time>
      </trkpt>
      <trkpt lat="42.09053180" lon="2.633843420">
        <ele>715.00000</ele>
        <time>2010-01-01T01:46:59Z</time>
      </trkpt>
      <trkpt lat="42.09134300" lon="2.633793000">
        <ele>705.00000</ele>
        <time>2010-01-01T01:47:32Z</time>
      </trkpt>
      <trkpt lat="42.09194600" lon="2.633965000">
        <ele>705.00000</ele>
        <time>2010-01-01T01:47:56Z</time>
      </trkpt>
      <trkpt lat="42.09211100" lon="2.633878000">
        <ele>706.00000</ele>
        <time>2010-01-01T01:48:04Z</time>
      </trkpt>
      <trkpt lat="42.09216600" lon="2.633777000">
        <ele>707.00000</ele>
        <time>2010-01-01T01:48:07Z</time>
      </trkpt>
      <trkpt lat="42.09217700" lon="2.633836000">
        <ele>706.00000</ele>
        <time>2010-01-01T01:48:09Z</time>
      </trkpt>
      <trkpt lat="42.09304700" lon="2.632047000">
        <ele>699.00000</ele>
        <time>2010-01-01T01:49:13Z</time>
      </trkpt>
      <trkpt lat="42.09316800" lon="2.632916000">
        <ele>686.00000</ele>
        <time>2010-01-01T01:49:39Z</time>
      </trkpt>
      <trkpt lat="42.09333700" lon="2.633032000">
        <ele>680.00000</ele>
        <time>2010-01-01T01:49:46Z</time>
      </trkpt>
      <trkpt lat="42.09341900" lon="2.633206000">
        <ele>679.00000</ele>
        <time>2010-01-01T01:49:53Z</time>
      </trkpt>
      <trkpt lat="42.09363300" lon="2.633285000">
        <ele>675.00000</ele>
        <time>2010-01-01T01:50:01Z</time>
      </trkpt>
      <trkpt lat="42.09399200" lon="2.633304000">
        <ele>674.00000</ele>
        <time>2010-01-01T01:50:16Z</time>
      </trkpt>
      <trkpt lat="42.09395500" lon="2.633352000">
        <ele>673.00000</ele>
        <time>2010-01-01T01:50:18Z</time>
      </trkpt>
      <trkpt lat="42.09399100" lon="2.633299000">
        <ele>674.00000</ele>
        <time>2010-01-01T01:50:20Z</time>
      </trkpt>
      <trkpt lat="42.09397200" lon="2.633370000">
        <ele>673.00000</ele>
        <time>2010-01-01T01:50:22Z</time>
      </trkpt>
      <trkpt lat="42.09468400" lon="2.632414000">
        <ele>668.00000</ele>
        <time>2010-01-01T01:51:03Z</time>
      </trkpt>
      <trkpt lat="42.09600500" lon="2.631568000">
        <ele>670.00000</ele>
        <time>2010-01-01T01:52:01Z</time>
      </trkpt>
      <trkpt lat="42.09618300" lon="2.631394000">
        <ele>670.00000</ele>
        <time>2010-01-01T01:52:10Z</time>
      </trkpt>
      <trkpt lat="42.09682800" lon="2.630455000">
        <ele>665.00000</ele>
        <time>2010-01-01T01:52:48Z</time>
      </trkpt>
      <trkpt lat="42.09707400" lon="2.629787000">
        <ele>659.00000</ele>
        <time>2010-01-01T01:53:10Z</time>
      </trkpt>
      <trkpt lat="42.09735800" lon="2.629562000">
        <ele>658.00000</ele>
        <time>2010-01-01T01:53:23Z</time>
      </trkpt>
      <trkpt lat="42.09783230" lon="2.629230020">
        <ele>659.00000</ele>
        <time>2010-01-01T01:53:45Z</time>
      </trkpt>
      <trkpt lat="42.09798350" lon="2.628951070">
        <ele>654.00000</ele>
        <time>2010-01-01T01:53:55Z</time>
      </trkpt>
      <trkpt lat="42.09842800" lon="2.628954000">
        <ele>647.00000</ele>
        <time>2010-01-01T01:54:13Z</time>
      </trkpt>
      <trkpt lat="42.09869700" lon="2.628709000">
        <ele>642.00000</ele>
        <time>2010-01-01T01:54:26Z</time>
      </trkpt>
      <trkpt lat="42.09890900" lon="2.628627000">
        <ele>642.00000</ele>
        <time>2010-01-01T01:54:34Z</time>
      </trkpt>
      <trkpt lat="42.09906700" lon="2.628235000">
        <ele>641.00000</ele>
        <time>2010-01-01T01:54:48Z</time>
      </trkpt>
      <trkpt lat="42.09921600" lon="2.628032000">
        <ele>641.00000</ele>
        <time>2010-01-01T01:54:56Z</time>
      </trkpt>
      <trkpt lat="42.09961550" lon="2.627674340">
        <ele>642.00000</ele>
        <time>2010-01-01T01:55:15Z</time>
      </trkpt>
      <trkpt lat="42.10032500" lon="2.627549000">
        <ele>647.00000</ele>
        <time>2010-01-01T01:55:44Z</time>
      </trkpt>
      <trkpt lat="42.10097500" lon="2.627002000">
        <ele>648.00000</ele>
        <time>2010-01-01T01:56:15Z</time>
      </trkpt>
      <trkpt lat="42.10128200" lon="2.626671000">
        <ele>647.00000</ele>
        <time>2010-01-01T01:56:30Z</time>
      </trkpt>
      <trkpt lat="42.10179000" lon="2.625809000">
        <ele>640.00000</ele>
        <time>2010-01-01T01:57:03Z</time>
      </trkpt>
      <trkpt lat="42.10227800" lon="2.624586000">
        <ele>634.00000</ele>
        <time>2010-01-01T01:57:44Z</time>
      </trkpt>
      <trkpt lat="42.10227000" lon="2.624426000">
        <ele>634.00000</ele>
        <time>2010-01-01T01:57:49Z</time>
      </trkpt>
      <trkpt lat="42.10191600" lon="2.623704670">
        <ele>640.00000</ele>
        <time>2010-01-01T01:58:15Z</time>
      </trkpt>
      <trkpt lat="42.10182050" lon="2.623200410">
        <ele>639.00000</ele>
        <time>2010-01-01T01:58:30Z</time>
      </trkpt>
      <trkpt lat="42.10182850" lon="2.622792720">
        <ele>637.00000</ele>
        <time>2010-01-01T01:58:42Z</time>
      </trkpt>
      <trkpt lat="42.10261400" lon="2.621938000">
        <ele>647.00000</ele>
        <time>2010-01-01T01:59:23Z</time>
      </trkpt>
      <trkpt lat="42.10297480" lon="2.620882980">
        <ele>648.00000</ele>
        <time>2010-01-01T01:59:57Z</time>
      </trkpt>
      <trkpt lat="42.10358770" lon="2.620378730">
        <ele>655.00000</ele>
        <time>2010-01-01T02:00:26Z</time>
      </trkpt>
      <trkpt lat="42.10386630" lon="2.619338030">
        <ele>662.00000</ele>
        <time>2010-01-01T02:00:59Z</time>
      </trkpt>
      <trkpt lat="42.10390610" lon="2.619069810">
        <ele>662.00000</ele>
        <time>2010-01-01T02:01:07Z</time>
      </trkpt>
      <trkpt lat="42.10428820" lon="2.618844500">
        <ele>661.00000</ele>
        <time>2010-01-01T02:01:24Z</time>
      </trkpt>
      <trkpt lat="42.10456680" lon="2.618801590">
        <ele>659.00000</ele>
        <time>2010-01-01T02:01:35Z</time>
      </trkpt>
      <trkpt lat="42.10490110" lon="2.618672840">
        <ele>656.00000</ele>
        <time>2010-01-01T02:01:49Z</time>
      </trkpt>
      <trkpt lat="42.10555380" lon="2.618157860">
        <ele>651.00000</ele>
        <time>2010-01-01T02:02:19Z</time>
      </trkpt>
      <trkpt lat="42.10576080" lon="2.617728710">
        <ele>646.00000</ele>
        <time>2010-01-01T02:02:34Z</time>
      </trkpt>
      <trkpt lat="42.10586420" lon="2.617396110">
        <ele>644.00000</ele>
        <time>2010-01-01T02:02:45Z</time>
      </trkpt>
      <trkpt lat="42.10591300" lon="2.617145000">
        <ele>641.00000</ele>
        <time>2010-01-01T02:02:53Z</time>
      </trkpt>
      <trkpt lat="42.10574300" lon="2.616959000">
        <ele>640.00000</ele>
        <time>2010-01-01T02:03:02Z</time>
      </trkpt>
      <trkpt lat="42.10567400" lon="2.616620000">
        <ele>640.00000</ele>
        <time>2010-01-01T02:03:12Z</time>
      </trkpt>
      <trkpt lat="42.10573690" lon="2.616237400">
        <ele>640.00000</ele>
        <time>2010-01-01T02:03:24Z</time>
      </trkpt>
      <trkpt lat="42.10598900" lon="2.616086000">
        <ele>640.00000</ele>
        <time>2010-01-01T02:03:35Z</time>
      </trkpt>
      <trkpt lat="42.10611900" lon="2.615839000">
        <ele>640.00000</ele>
        <time>2010-01-01T02:03:44Z</time>
      </trkpt>
      <trkpt lat="42.10613490" lon="2.614831920">
        <ele>643.00000</ele>
        <time>2010-01-01T02:04:14Z</time>
      </trkpt>
      <trkpt lat="42.10608710" lon="2.613812680">
        <ele>650.00000</ele>
        <time>2010-01-01T02:04:44Z</time>
      </trkpt>
      <trkpt lat="42.10576870" lon="2.613362070">
        <ele>648.00000</ele>
        <time>2010-01-01T02:05:02Z</time>
      </trkpt>
      <trkpt lat="42.10583240" lon="2.611688370">
        <ele>665.00000</ele>
        <time>2010-01-01T02:05:52Z</time>
      </trkpt>
      <trkpt lat="42.10571300" lon="2.610765690">
        <ele>672.00000</ele>
        <time>2010-01-01T02:06:20Z</time>
      </trkpt>
      <trkpt lat="42.10580850" lon="2.610164880">
        <ele>678.00000</ele>
        <time>2010-01-01T02:06:38Z</time>
      </trkpt>
      <trkpt lat="42.10547420" lon="2.609982490">
        <ele>672.00000</ele>
        <time>2010-01-01T02:06:53Z</time>
      </trkpt>
      <trkpt lat="42.10591200" lon="2.609553330">
        <ele>679.00000</ele>
        <time>2010-01-01T02:07:14Z</time>
      </trkpt>
      <trkpt lat="42.10620650" lon="2.608727210">
        <ele>686.00000</ele>
        <time>2010-01-01T02:07:42Z</time>
      </trkpt>
      <trkpt lat="42.10674780" lon="2.608104940">
        <ele>697.00000</ele>
        <time>2010-01-01T02:08:10Z</time>
      </trkpt>
      <trkpt lat="42.10697860" lon="2.607429020">
        <ele>701.00000</ele>
        <time>2010-01-01T02:08:32Z</time>
      </trkpt>
      <trkpt lat="42.10713780" lon="2.607547040">
        <ele>706.00000</ele>
        <time>2010-01-01T02:08:39Z</time>
      </trkpt>
      <trkpt lat="42.10717760" lon="2.608244410">
        <ele>710.00000</ele>
        <time>2010-01-01T02:09:00Z</time>
      </trkpt>
      <trkpt lat="42.10732090" lon="2.608340970">
        <ele>712.00000</ele>
        <time>2010-01-01T02:09:07Z</time>
      </trkpt>
      <trkpt lat="42.10792500" lon="2.607953000">
        <ele>715.00000</ele>
        <time>2010-01-01T02:09:33Z</time>
      </trkpt>
      <trkpt lat="42.10823400" lon="2.607705000">
        <ele>716.00000</ele>
        <time>2010-01-01T02:09:48Z</time>
      </trkpt>
      <trkpt lat="42.10898900" lon="2.606500000">
        <ele>729.00000</ele>
        <time>2010-01-01T02:10:35Z</time>
      </trkpt>
      <trkpt lat="42.10986200" lon="2.605851000">
        <ele>726.00000</ele>
        <time>2010-01-01T02:11:15Z</time>
      </trkpt>
      <trkpt lat="42.11020700" lon="2.605527000">
        <ele>732.00000</ele>
        <time>2010-01-01T02:11:31Z</time>
      </trkpt>
      <trkpt lat="42.11087070" lon="2.604660980">
        <ele>749.00000</ele>
        <time>2010-01-01T02:12:08Z</time>
      </trkpt>
      <trkpt lat="42.11164280" lon="2.603995800">
        <ele>753.00000</ele>
        <time>2010-01-01T02:12:45Z</time>
      </trkpt>
      <trkpt lat="42.11229540" lon="2.603083840">
        <ele>763.00000</ele>
        <time>2010-01-01T02:13:23Z</time>
      </trkpt>
      <trkpt lat="42.11278890" lon="2.602407930">
        <ele>768.00000</ele>
        <time>2010-01-01T02:13:51Z</time>
      </trkpt>
      <trkpt lat="42.11293210" lon="2.601785650">
        <ele>767.00000</ele>
        <time>2010-01-01T02:14:10Z</time>
      </trkpt>
      <trkpt lat="42.11317890" lon="2.601431600">
        <ele>768.00000</ele>
        <time>2010-01-01T02:14:25Z</time>
      </trkpt>
      <trkpt lat="42.11331420" lon="2.601195570">
        <ele>767.00000</ele>
        <time>2010-01-01T02:14:33Z</time>
      </trkpt>
      <trkpt lat="42.11342560" lon="2.600766420">
        <ele>764.00000</ele>
        <time>2010-01-01T02:14:47Z</time>
      </trkpt>
      <trkpt lat="42.11353300" lon="2.599905000">
        <ele>760.00000</ele>
        <time>2010-01-01T02:15:13Z</time>
      </trkpt>
      <trkpt lat="42.11349700" lon="2.599485000">
        <ele>764.00000</ele>
        <time>2010-01-01T02:15:25Z</time>
      </trkpt>
      <trkpt lat="42.11388500" lon="2.598813000">
        <ele>757.00000</ele>
        <time>2010-01-01T02:15:51Z</time>
      </trkpt>
      <trkpt lat="42.11399500" lon="2.598536000">
        <ele>759.00000</ele>
        <time>2010-01-01T02:16:00Z</time>
      </trkpt>
      <trkpt lat="42.11400600" lon="2.598194000">
        <ele>773.00000</ele>
        <time>2010-01-01T02:16:10Z</time>
      </trkpt>
      <trkpt lat="42.11422400" lon="2.597767000">
        <ele>777.00000</ele>
        <time>2010-01-01T02:16:26Z</time>
      </trkpt>
      <trkpt lat="42.11467700" lon="2.597250000">
        <ele>772.00000</ele>
        <time>2010-01-01T02:16:49Z</time>
      </trkpt>
      <trkpt lat="42.11512300" lon="2.597231000">
        <ele>757.00000</ele>
        <time>2010-01-01T02:17:07Z</time>
      </trkpt>
      <trkpt lat="42.11532300" lon="2.597079000">
        <ele>755.00000</ele>
        <time>2010-01-01T02:17:16Z</time>
      </trkpt>
      <trkpt lat="42.11556800" lon="2.595727000">
        <ele>751.00000</ele>
        <time>2010-01-01T02:17:58Z</time>
      </trkpt>
      <trkpt lat="42.11572000" lon="2.595584000">
        <ele>746.00000</ele>
        <time>2010-01-01T02:18:05Z</time>
      </trkpt>
      <trkpt lat="42.11596200" lon="2.594865000">
        <ele>757.00000</ele>
        <time>2010-01-01T02:18:29Z</time>
      </trkpt>
      <trkpt lat="42.11607000" lon="2.594692000">
        <ele>759.00000</ele>
        <time>2010-01-01T02:18:35Z</time>
      </trkpt>
      <trkpt lat="42.11637800" lon="2.594384000">
        <ele>760.00000</ele>
        <time>2010-01-01T02:18:51Z</time>
      </trkpt>
      <trkpt lat="42.11655800" lon="2.594296000">
        <ele>759.00000</ele>
        <time>2010-01-01T02:18:58Z</time>
      </trkpt>
      <trkpt lat="42.11711200" lon="2.594213000">
        <ele>761.00000</ele>
        <time>2010-01-01T02:19:21Z</time>
      </trkpt>
      <trkpt lat="42.11719000" lon="2.594087000">
        <ele>763.00000</ele>
        <time>2010-01-01T02:19:26Z</time>
      </trkpt>
      <trkpt lat="42.11696600" lon="2.594032000">
        <ele>762.00000</ele>
        <time>2010-01-01T02:19:35Z</time>
      </trkpt>
      <trkpt lat="42.11683700" lon="2.593898000">
        <ele>764.00000</ele>
        <time>2010-01-01T02:19:41Z</time>
      </trkpt>
      <trkpt lat="42.11676000" lon="2.593686000">
        <ele>765.00000</ele>
        <time>2010-01-01T02:19:48Z</time>
      </trkpt>
      <trkpt lat="42.11662300" lon="2.592567000">
        <ele>765.00000</ele>
        <time>2010-01-01T02:20:22Z</time>
      </trkpt>
      <trkpt lat="42.11672600" lon="2.592353000">
        <ele>759.00000</ele>
        <time>2010-01-01T02:20:29Z</time>
      </trkpt>
      <trkpt lat="42.11661700" lon="2.592254000">
        <ele>764.00000</ele>
        <time>2010-01-01T02:20:35Z</time>
      </trkpt>
      <trkpt lat="42.11589200" lon="2.592312000">
        <ele>789.00000</ele>
        <time>2010-01-01T02:21:04Z</time>
      </trkpt>
      <trkpt lat="42.11540000" lon="2.592482000">
        <ele>802.00000</ele>
        <time>2010-01-01T02:21:24Z</time>
      </trkpt>
      <trkpt lat="42.11515600" lon="2.592431000">
        <ele>809.00000</ele>
        <time>2010-01-01T02:21:34Z</time>
      </trkpt>
      <trkpt lat="42.11509400" lon="2.592330000">
        <ele>811.00000</ele>
        <time>2010-01-01T02:21:38Z</time>
      </trkpt>
      <trkpt lat="42.11509900" lon="2.591645000">
        <ele>808.00000</ele>
        <time>2010-01-01T02:21:58Z</time>
      </trkpt>
      <trkpt lat="42.11551900" lon="2.590606000">
        <ele>801.00000</ele>
        <time>2010-01-01T02:22:33Z</time>
      </trkpt>
      <trkpt lat="42.11556100" lon="2.589260000">
        <ele>809.00000</ele>
        <time>2010-01-01T02:23:13Z</time>
      </trkpt>
      <trkpt lat="42.11568500" lon="2.588971000">
        <ele>808.00000</ele>
        <time>2010-01-01T02:23:23Z</time>
      </trkpt>
      <trkpt lat="42.11619700" lon="2.588380000">
        <ele>801.00000</ele>
        <time>2010-01-01T02:23:50Z</time>
      </trkpt>
      <trkpt lat="42.11630200" lon="2.588097000">
        <ele>804.00000</ele>
        <time>2010-01-01T02:24:00Z</time>
      </trkpt>
      <trkpt lat="42.11619800" lon="2.587663000">
        <ele>807.00000</ele>
        <time>2010-01-01T02:24:13Z</time>
      </trkpt>
      <trkpt lat="42.11625000" lon="2.587240000">
        <ele>802.00000</ele>
        <time>2010-01-01T02:24:26Z</time>
      </trkpt>
      <trkpt lat="42.11619700" lon="2.586952000">
        <ele>796.00000</ele>
        <time>2010-01-01T02:24:35Z</time>
      </trkpt>
      <trkpt lat="42.11623000" lon="2.585972000">
        <ele>774.00000</ele>
        <time>2010-01-01T02:25:04Z</time>
      </trkpt>
      <trkpt lat="42.11590000" lon="2.585152000">
        <ele>792.00000</ele>
        <time>2010-01-01T02:25:32Z</time>
      </trkpt>
      <trkpt lat="42.11580300" lon="2.584627000">
        <ele>808.00000</ele>
        <time>2010-01-01T02:25:48Z</time>
      </trkpt>
      <trkpt lat="42.11619400" lon="2.583333000">
        <ele>830.00000</ele>
        <time>2010-01-01T02:26:29Z</time>
      </trkpt>
      <trkpt lat="42.11634700" lon="2.583068000">
        <ele>831.00000</ele>
        <time>2010-01-01T02:26:39Z</time>
      </trkpt>
      <trkpt lat="42.11680200" lon="2.582896000">
        <ele>811.00000</ele>
        <time>2010-01-01T02:26:58Z</time>
      </trkpt>
      <trkpt lat="42.11715600" lon="2.582566000">
        <ele>806.00000</ele>
        <time>2010-01-01T02:27:15Z</time>
      </trkpt>
      <trkpt lat="42.11727900" lon="2.582077000">
        <ele>817.00000</ele>
        <time>2010-01-01T02:27:31Z</time>
      </trkpt>
      <trkpt lat="42.11781900" lon="2.581821000">
        <ele>808.00000</ele>
        <time>2010-01-01T02:27:53Z</time>
      </trkpt>
      <trkpt lat="42.11802900" lon="2.581338000">
        <ele>824.00000</ele>
        <time>2010-01-01T02:28:10Z</time>
      </trkpt>
      <trkpt lat="42.11835200" lon="2.581026000">
        <ele>824.00000</ele>
        <time>2010-01-01T02:28:26Z</time>
      </trkpt>
      <trkpt lat="42.11865300" lon="2.580857000">
        <ele>821.00000</ele>
        <time>2010-01-01T02:28:39Z</time>
      </trkpt>
      <trkpt lat="42.11902600" lon="2.580858000">
        <ele>810.00000</ele>
        <time>2010-01-01T02:28:54Z</time>
      </trkpt>
      <trkpt lat="42.11921100" lon="2.580741000">
        <ele>810.00000</ele>
        <time>2010-01-01T02:29:02Z</time>
      </trkpt>
      <trkpt lat="42.11937300" lon="2.580213000">
        <ele>825.00000</ele>
        <time>2010-01-01T02:29:19Z</time>
      </trkpt>
      <trkpt lat="42.11998600" lon="2.579731000">
        <ele>823.00000</ele>
        <time>2010-01-01T02:29:48Z</time>
      </trkpt>
      <trkpt lat="42.12035000" lon="2.578996000">
        <ele>833.00000</ele>
        <time>2010-01-01T02:30:14Z</time>
      </trkpt>
      <trkpt lat="42.12091300" lon="2.578533000">
        <ele>835.00000</ele>
        <time>2010-01-01T02:30:40Z</time>
      </trkpt>
      <trkpt lat="42.12119600" lon="2.578372000">
        <ele>837.00000</ele>
        <time>2010-01-01T02:30:52Z</time>
      </trkpt>
      <trkpt lat="42.12139200" lon="2.577704000">
        <ele>847.00000</ele>
        <time>2010-01-01T02:31:14Z</time>
      </trkpt>
      <trkpt lat="42.12193600" lon="2.577014000">
        <ele>844.00000</ele>
        <time>2010-01-01T02:31:44Z</time>
      </trkpt>
      <trkpt lat="42.12219600" lon="2.576430000">
        <ele>849.00000</ele>
        <time>2010-01-01T02:32:04Z</time>
      </trkpt>
      <trkpt lat="42.12253700" lon="2.576173000">
        <ele>850.00000</ele>
        <time>2010-01-01T02:32:20Z</time>
      </trkpt>
      <trkpt lat="42.12297900" lon="2.575605000">
        <ele>856.00000</ele>
        <time>2010-01-01T02:32:44Z</time>
      </trkpt>
      <trkpt lat="42.12324500" lon="2.574954000">
        <ele>870.00000</ele>
        <time>2010-01-01T02:33:06Z</time>
      </trkpt>
      <trkpt lat="42.12375800" lon="2.574127000">
        <ele>879.00000</ele>
        <time>2010-01-01T02:33:38Z</time>
      </trkpt>
      <trkpt lat="42.12401700" lon="2.573576000">
        <ele>885.00000</ele>
        <time>2010-01-01T02:33:57Z</time>
      </trkpt>
      <trkpt lat="42.12419800" lon="2.573422000">
        <ele>878.00000</ele>
        <time>2010-01-01T02:34:06Z</time>
      </trkpt>
      <trkpt lat="42.12447500" lon="2.573426000">
        <ele>872.00000</ele>
        <time>2010-01-01T02:34:17Z</time>
      </trkpt>
      <trkpt lat="42.12441500" lon="2.573446000">
        <ele>873.00000</ele>
        <time>2010-01-01T02:34:20Z</time>
      </trkpt>
      <trkpt lat="42.12478600" lon="2.573350000">
        <ele>869.00000</ele>
        <time>2010-01-01T02:34:35Z</time>
      </trkpt>
      <trkpt lat="42.12516800" lon="2.573065000">
        <ele>871.00000</ele>
        <time>2010-01-01T02:34:52Z</time>
      </trkpt>
      <trkpt lat="42.12542100" lon="2.572552000">
        <ele>868.00000</ele>
        <time>2010-01-01T02:35:10Z</time>
      </trkpt>
      <trkpt lat="42.12545600" lon="2.572244000">
        <ele>868.00000</ele>
        <time>2010-01-01T02:35:20Z</time>
      </trkpt>
      <trkpt lat="42.12531500" lon="2.571155000">
        <ele>869.00000</ele>
        <time>2010-01-01T02:35:53Z</time>
      </trkpt>
      <trkpt lat="42.12536400" lon="2.570916000">
        <ele>867.00000</ele>
        <time>2010-01-01T02:36:00Z</time>
      </trkpt>
      <trkpt lat="42.12583600" lon="2.569486000">
        <ele>852.00000</ele>
        <time>2010-01-01T02:36:46Z</time>
      </trkpt>
      <trkpt lat="42.12609400" lon="2.568921000">
        <ele>845.00000</ele>
        <time>2010-01-01T02:37:06Z</time>
      </trkpt>
      <trkpt lat="42.12601400" lon="2.568747000">
        <ele>849.00000</ele>
        <time>2010-01-01T02:37:12Z</time>
      </trkpt>
      <trkpt lat="42.12605300" lon="2.568593000">
        <ele>851.00000</ele>
        <time>2010-01-01T02:37:17Z</time>
      </trkpt>
      <trkpt lat="42.12585400" lon="2.568497000">
        <ele>858.00000</ele>
        <time>2010-01-01T02:37:25Z</time>
      </trkpt>
      <trkpt lat="42.12559800" lon="2.568313000">
        <ele>861.00000</ele>
        <time>2010-01-01T02:37:37Z</time>
      </trkpt>
      <trkpt lat="42.12515000" lon="2.567572000">
        <ele>882.00000</ele>
        <time>2010-01-01T02:38:05Z</time>
      </trkpt>
      <trkpt lat="42.12499900" lon="2.567509000">
        <ele>885.00000</ele>
        <time>2010-01-01T02:38:12Z</time>
      </trkpt>
      <trkpt lat="42.12463100" lon="2.567644000">
        <ele>884.00000</ele>
        <time>2010-01-01T02:38:27Z</time>
      </trkpt>
      <trkpt lat="42.12436100" lon="2.567625000">
        <ele>885.00000</ele>
        <time>2010-01-01T02:38:38Z</time>
      </trkpt>
      <trkpt lat="42.12430900" lon="2.567513000">
        <ele>887.00000</ele>
        <time>2010-01-01T02:38:42Z</time>
      </trkpt>
      <trkpt lat="42.12467900" lon="2.566321000">
        <ele>908.00000</ele>
        <time>2010-01-01T02:39:20Z</time>
      </trkpt>
      <trkpt lat="42.12470100" lon="2.566087000">
        <ele>911.00000</ele>
        <time>2010-01-01T02:39:27Z</time>
      </trkpt>
      <trkpt lat="42.12470400" lon="2.565850000">
        <ele>912.00000</ele>
        <time>2010-01-01T02:39:34Z</time>
      </trkpt>
      <trkpt lat="42.12451800" lon="2.565111000">
        <ele>919.00000</ele>
        <time>2010-01-01T02:39:57Z</time>
      </trkpt>
      <trkpt lat="42.12451800" lon="2.564605000">
        <ele>922.00000</ele>
        <time>2010-01-01T02:40:12Z</time>
      </trkpt>
      <trkpt lat="42.12444800" lon="2.564345000">
        <ele>925.00000</ele>
        <time>2010-01-01T02:40:21Z</time>
      </trkpt>
      <trkpt lat="42.12423000" lon="2.563624000">
        <ele>937.00000</ele>
        <time>2010-01-01T02:40:44Z</time>
      </trkpt>
      <trkpt lat="42.12408100" lon="2.563507000">
        <ele>939.00000</ele>
        <time>2010-01-01T02:40:51Z</time>
      </trkpt>
      <trkpt lat="42.12392100" lon="2.563499000">
        <ele>938.00000</ele>
        <time>2010-01-01T02:40:57Z</time>
      </trkpt>
      <trkpt lat="42.12340800" lon="2.563775000">
        <ele>938.00000</ele>
        <time>2010-01-01T02:41:19Z</time>
      </trkpt>
      <trkpt lat="42.12331100" lon="2.563743000">
        <ele>940.00000</ele>
        <time>2010-01-01T02:41:23Z</time>
      </trkpt>
      <trkpt lat="42.12348400" lon="2.563531000">
        <ele>943.00000</ele>
        <time>2010-01-01T02:41:32Z</time>
      </trkpt>
      <trkpt lat="42.12392200" lon="2.562671000">
        <ele>951.00000</ele>
        <time>2010-01-01T02:42:03Z</time>
      </trkpt>
      <trkpt lat="42.12410300" lon="2.562209000">
        <ele>954.00000</ele>
        <time>2010-01-01T02:42:19Z</time>
      </trkpt>
      <trkpt lat="42.12422600" lon="2.561689000">
        <ele>949.00000</ele>
        <time>2010-01-01T02:42:35Z</time>
      </trkpt>
      <trkpt lat="42.12457800" lon="2.561393000">
        <ele>951.00000</ele>
        <time>2010-01-01T02:42:52Z</time>
      </trkpt>
      <trkpt lat="42.12471100" lon="2.561138000">
        <ele>950.00000</ele>
        <time>2010-01-01T02:43:01Z</time>
      </trkpt>
      <trkpt lat="42.12476300" lon="2.560801000">
        <ele>946.00000</ele>
        <time>2010-01-01T02:43:11Z</time>
      </trkpt>
      <trkpt lat="42.12486300" lon="2.559450000">
        <ele>940.00000</ele>
        <time>2010-01-01T02:43:52Z</time>
      </trkpt>
      <trkpt lat="42.12475400" lon="2.558445000">
        <ele>926.00000</ele>
        <time>2010-01-01T02:44:22Z</time>
      </trkpt>
      <trkpt lat="42.12509000" lon="2.557053000">
        <ele>909.00000</ele>
        <time>2010-01-01T02:45:05Z</time>
      </trkpt>
      <trkpt lat="42.12538400" lon="2.556491000">
        <ele>907.00000</ele>
        <time>2010-01-01T02:45:26Z</time>
      </trkpt>
      <trkpt lat="42.12534800" lon="2.556323000">
        <ele>905.00000</ele>
        <time>2010-01-01T02:45:31Z</time>
      </trkpt>
      <trkpt lat="42.12470100" lon="2.555426000">
        <ele>886.00000</ele>
        <time>2010-01-01T02:46:08Z</time>
      </trkpt>
      <trkpt lat="42.12461900" lon="2.555161000">
        <ele>880.00000</ele>
        <time>2010-01-01T02:46:16Z</time>
      </trkpt>
      <trkpt lat="42.12464800" lon="2.554517000">
        <ele>874.00000</ele>
        <time>2010-01-01T02:46:36Z</time>
      </trkpt>
      <trkpt lat="42.12451600" lon="2.554208000">
        <ele>868.00000</ele>
        <time>2010-01-01T02:46:46Z</time>
      </trkpt>
      <trkpt lat="42.12428800" lon="2.553929000">
        <ele>863.00000</ele>
        <time>2010-01-01T02:46:59Z</time>
      </trkpt>
      <trkpt lat="42.12368600" lon="2.553448000">
        <ele>861.00000</ele>
        <time>2010-01-01T02:47:27Z</time>
      </trkpt>
      <trkpt lat="42.12285900" lon="2.553412000">
        <ele>871.00000</ele>
        <time>2010-01-01T02:48:00Z</time>
      </trkpt>
      <trkpt lat="42.12220700" lon="2.552605000">
        <ele>874.00000</ele>
        <time>2010-01-01T02:48:35Z</time>
      </trkpt>
      <trkpt lat="42.12195800" lon="2.552560000">
        <ele>873.00000</ele>
        <time>2010-01-01T02:48:45Z</time>
      </trkpt>
      <trkpt lat="42.12172400" lon="2.552729000">
        <ele>875.00000</ele>
        <time>2010-01-01T02:48:56Z</time>
      </trkpt>
      <trkpt lat="42.12161400" lon="2.552992000">
        <ele>875.00000</ele>
        <time>2010-01-01T02:49:05Z</time>
      </trkpt>
      <trkpt lat="42.12166300" lon="2.553378000">
        <ele>871.00000</ele>
        <time>2010-01-01T02:49:16Z</time>
      </trkpt>
      <trkpt lat="42.12156700" lon="2.553540000">
        <ele>872.00000</ele>
        <time>2010-01-01T02:49:23Z</time>
      </trkpt>
      <trkpt lat="42.12145100" lon="2.553595000">
        <ele>872.00000</ele>
        <time>2010-01-01T02:49:27Z</time>
      </trkpt>
      <trkpt lat="42.12095100" lon="2.553276000">
        <ele>880.00000</ele>
        <time>2010-01-01T02:49:50Z</time>
      </trkpt>
      <trkpt lat="42.12071500" lon="2.553192000">
        <ele>884.00000</ele>
        <time>2010-01-01T02:49:59Z</time>
      </trkpt>
      <trkpt lat="42.12017300" lon="2.553740000">
        <ele>884.00000</ele>
        <time>2010-01-01T02:50:26Z</time>
      </trkpt>
      <trkpt lat="42.11952700" lon="2.553031000">
        <ele>879.00000</ele>
        <time>2010-01-01T02:51:00Z</time>
      </trkpt>
      <trkpt lat="42.11960140" lon="2.551939480">
        <ele>864.00000</ele>
        <time>2010-01-01T02:51:32Z</time>
      </trkpt>
      <trkpt lat="42.12003110" lon="2.551317210">
        <ele>862.00000</ele>
        <time>2010-01-01T02:51:58Z</time>
      </trkpt>
      <trkpt lat="42.12009480" lon="2.549922460">
        <ele>856.00000</ele>
        <time>2010-01-01T02:52:39Z</time>
      </trkpt>
      <trkpt lat="42.12047670" lon="2.549793720">
        <ele>860.00000</ele>
        <time>2010-01-01T02:52:55Z</time>
      </trkpt>
      <trkpt lat="42.12079510" lon="2.548699370">
        <ele>853.00000</ele>
        <time>2010-01-01T02:53:30Z</time>
      </trkpt>
      <trkpt lat="42.12124070" lon="2.548720830">
        <ele>859.00000</ele>
        <time>2010-01-01T02:53:48Z</time>
      </trkpt>
      <trkpt lat="42.12182960" lon="2.548913950">
        <ele>863.00000</ele>
        <time>2010-01-01T02:54:12Z</time>
      </trkpt>
      <trkpt lat="42.12195690" lon="2.548205850">
        <ele>861.00000</ele>
        <time>2010-01-01T02:54:34Z</time>
      </trkpt>
      <trkpt lat="42.12132030" lon="2.547261710">
        <ele>853.00000</ele>
        <time>2010-01-01T02:55:11Z</time>
      </trkpt>
      <trkpt lat="42.12101790" lon="2.546360490">
        <ele>856.00000</ele>
        <time>2010-01-01T02:55:41Z</time>
      </trkpt>
      <trkpt lat="42.12111340" lon="2.545952790">
        <ele>856.00000</ele>
        <time>2010-01-01T02:55:53Z</time>
      </trkpt>
      <trkpt lat="42.12112930" lon="2.544965740">
        <ele>851.00000</ele>
        <time>2010-01-01T02:56:23Z</time>
      </trkpt>
      <trkpt lat="42.12159080" lon="2.544836990">
        <ele>843.00000</ele>
        <time>2010-01-01T02:56:42Z</time>
      </trkpt>
      <trkpt lat="42.12198870" lon="2.543506620">
        <ele>819.00000</ele>
        <time>2010-01-01T02:57:24Z</time>
      </trkpt>
      <trkpt lat="42.12243440" lon="2.543184750">
        <ele>814.00000</ele>
        <time>2010-01-01T02:57:44Z</time>
      </trkpt>
      <trkpt lat="42.12272080" lon="2.542583940">
        <ele>801.00000</ele>
        <time>2010-01-01T02:58:06Z</time>
      </trkpt>
      <trkpt lat="42.12211610" lon="2.542004580">
        <ele>786.00000</ele>
        <time>2010-01-01T02:58:35Z</time>
      </trkpt>
      <trkpt lat="42.12256170" lon="2.541661260">
        <ele>780.00000</ele>
        <time>2010-01-01T02:58:56Z</time>
      </trkpt>
      <trkpt lat="42.12270490" lon="2.541210650">
        <ele>773.00000</ele>
        <time>2010-01-01T02:59:10Z</time>
      </trkpt>
      <trkpt lat="42.12235480" lon="2.541081900">
        <ele>767.00000</ele>
        <time>2010-01-01T02:59:25Z</time>
      </trkpt>
      <trkpt lat="42.12246620" lon="2.540674200">
        <ele>759.00000</ele>
        <time>2010-01-01T02:59:38Z</time>
      </trkpt>
      <trkpt lat="42.12278450" lon="2.540395250">
        <ele>754.00000</ele>
        <time>2010-01-01T02:59:53Z</time>
      </trkpt>
      <trkpt lat="42.12268900" lon="2.539622780">
        <ele>743.00000</ele>
        <time>2010-01-01T03:00:16Z</time>
      </trkpt>
      <trkpt lat="42.12297550" lon="2.538785930">
        <ele>732.00000</ele>
        <time>2010-01-01T03:00:44Z</time>
      </trkpt>
      <trkpt lat="42.12386670" lon="2.538056370">
        <ele>720.00000</ele>
        <time>2010-01-01T03:01:25Z</time>
      </trkpt>
      <trkpt lat="42.12442380" lon="2.537670130">
        <ele>712.00000</ele>
        <time>2010-01-01T03:01:51Z</time>
      </trkpt>
      <trkpt lat="42.12467840" lon="2.536983480">
        <ele>709.00000</ele>
        <time>2010-01-01T03:02:13Z</time>
      </trkpt>
      <trkpt lat="42.12337340" lon="2.534708970">
        <ele>683.00000</ele>
        <time>2010-01-01T03:03:39Z</time>
      </trkpt>
      <trkpt lat="42.12299140" lon="2.531812190">
        <ele>655.00000</ele>
        <time>2010-01-01T03:05:06Z</time>
      </trkpt>
      <trkpt lat="42.12237070" lon="2.530438890">
        <ele>643.00000</ele>
        <time>2010-01-01T03:05:54Z</time>
      </trkpt>
      <trkpt lat="42.12092240" lon="2.529602050">
        <ele>637.00000</ele>
        <time>2010-01-01T03:06:57Z</time>
      </trkpt>
      <trkpt lat="42.12007330" lon="2.528923310">
        <ele>636.00000</ele>
        <time>2010-01-01T03:07:36Z</time>
      </trkpt>
    </trkseg>
  </trk>
</gpx>
